[[{"header":{"parameterUnit":"m.s-1","parameterCategory":1,"la1":31.0,"la2":29.5877,"lo1":-88.7671,"lo2":-86.6584,"dy":0.0162,"dx":0.0185,"nx":115,"ny":88,"refTime":"2023-06-28T18:00:00:Z","depth":0,"parameterNumber":2,"parameterNumberName":"U-component_of_WINDS"},"data":[0.0,0.0,0.0,0.0,0.0,0.0,0.0,0.0,0.0,0.0,0.0,0.0,0.0,0.0,0.0,0.0,0.0,0.0,0.0,0.0,0.0,0.0,0.0,0.0,0.0,0.0,0.0,0.0,0.0,0.0,0.0,0.0,0.0,0.0,0.0,0.0,0.0,0.0,0.0,0.0,0.0,0.0,0.0,0.0,0.0,0.0,0.0,0.0,0.0,0.0,0.0,0.0,0.0,0.0,0.0,0.0,0.0,0.0,0.0,0.0,0.0,0.0,0.0,0.0,0.0,0.0,0.0,0.0,0.0,0.0,0.0,0.0,0.0,0.0,0.0,0.0,0.0,0.0,0.0,0.0,0.0,0.0,0.0,0.0,0.0,0.0,0.0,0.0,0.0,0.0,0.0,0.0,0.0,0.0,0.0,0.0,0.0,0.0,0.0,0.0,0.0,0.0,0.0,0.0,0.0,0.0,0.0,0.0,0.0,0.0,0.0,0.0,0.0,0.0,0.0,0.0,0.0,0.0,0.0,0.0,0.0,0.0,0.0,0.0,0.0,0.0,0.0,0.0,0.0,0.0,0.0,0.0,0.0,0.0,0.0,0.0,0.0,0.0,0.0,0.0,0.0,0.0,0.0,0.0,0.0,0.0,0.0,0.0,0.0,0.0,0.0,0.0,0.0,0.0,0.0,0.0,0.0,0.0,0.0,0.0,0.0,0.0,0.0,0.0,0.0,0.0,0.0,0.0,0.0,0.0,0.0,0.0,0.0,0.0,0.0,0.0,0.0,0.0,0.0,0.0,0.0,0.0,0.0,0.0,0.0,0.0,0.0,0.0,0.0,0.0,0.0,0.0,0.0,0.0,0.0,0.0,0.0,0.0,0.0,0.0,0.0,0.0,0.0,0.0,0.0,0.0,0.0,0.0,0.0,0.0,0.0,0.0,0.0,0.0,0.0,0.0,0.0,0.0,0.0,0.0,0.0,0.0,0.0,0.0,0.0,0.0,0.0,0.0,0.0,0.0,0.0,0.0,0.0,0.0,0.0,0.0,0.0,0.0,0.0,0.0,0.0,0.0,0.0,0.0,0.0,0.0,0.0,0.0,0.0,0.0,0.0,0.0,0.0,0.0,0.0,0.0,0.0,0.0,0.0,0.0,0.0,0.0,0.0,0.0,0.0,0.0,0.0,0.0,0.0,0.0,0.0,0.0,0.0,0.0,0.0,0.0,0.0,0.0,0.0,0.0,0.0,0.0,0.0,0.0,0.0,0.0,0.0,0.0,0.0,0.0,0.0,0.0,0.0,0.0,0.0,0.0,0.0,0.0,0.0,0.0,0.0,0.0,0.0,0.0,0.0,0.0,0.0,0.0,0.0,0.0,0.0,0.0,0.0,0.0,0.0,0.0,0.0,0.0,0.0,0.0,0.0,0.0,0.0,0.0,0.0,0.0,0.0,0.0,0.0,0.0,0.0,0.0,0.0,0.0,0.0,0.0,0.0,0.0,0.0,0.0,0.0,0.0,0.0,0.0,0.0,0.0,0.0,0.0,0.0,0.0,0.0,0.0,0.0,0.0,0.0,0.0,0.0,0.0,0.0,0.0,0.0,0.0,0.0,0.0,0.0,0.0,0.0,0.0,0.0,0.0,0.0,0.0,0.0,0.0,0.0,0.0,0.0,0.0,0.0,0.0,0.0,0.0,0.0,0.0,0.0,0.0,0.0,0.0,0.0,0.0,0.0,0.0,0.0,0.0,0.0,0.0,0.0,0.0,0.0,0.0,0.0,0.0,0.0,0.0,0.0,0.0,0.0,0.0,0.0,0.0,0.0,0.0,0.0,0.0,0.0,0.0,0.0,0.0,0.0,0.0,0.0,0.0,0.0,0.0,0.0,0.0,0.0,0.0,0.0,0.0,0.0,0.0,0.0,0.0,0.0,0.0,0.0,0.0,0.0,0.0,0.0,0.0,0.0,0.0,0.0,0.0,0.0,0.0,0.0,0.0,0.0,0.0,0.0,0.0,0.0,0.0,0.0,0.0,0.0,0.0,0.0,0.0,0.0,0.0,0.0,0.0,0.0,0.0,0.0,0.0,0.0,0.0,0.0,0.0,0.0,0.0,0.0,0.0,0.0,0.0,0.0,0.0,0.0,0.0,0.0,0.0,0.0,0.0,0.0,0.0,0.0,0.0,0.0,0.0,0.0,0.0,0.0,0.0,0.0,0.0,0.0,0.0,0.0,0.0,0.0,0.0,0.0,0.0,0.0,0.0,0.0,0.0,0.0,0.0,0.0,0.0,0.0,0.0,0.0,0.0,0.0,0.0,0.0,0.0,0.0,0.0,0.0,0.0,0.0,0.0,0.0,0.0,0.0,0.0,0.0,0.0,0.0,0.0,0.0,0.0,0.0,0.0,0.0,0.0,0.0,0.0,0.0,0.0,0.0,0.0,0.0,0.0,0.0,0.0,0.0,0.0,0.0,0.0,0.0,0.0,0.0,0.0,0.0,0.0,0.0,0.0,0.0,0.0,0.0,0.0,0.0,0.0,0.0,0.0,0.0,0.0,0.0,0.0,0.0,0.0,0.0,0.0,0.0,0.0,0.0,0.0,0.0,0.0,0.0,0.0,0.0,0.0,0.0,0.0,0.0,0.0,0.0,0.0,0.0,0.0,0.0,0.0,0.0,0.0,0.0,0.0,0.0,0.0,0.0,0.0,0.0,0.0,0.0,0.0,0.0,0.0,0.0,0.0,0.0,0.0,0.0,0.0,0.0,0.0,0.0,0.0,0.0,0.0,0.0,0.0,0.0,0.0,0.0,0.0,0.0,0.0,0.0,0.0,0.0,0.0,0.0,0.0,0.0,0.0,0.0,0.0,0.0,0.0,0.0,0.0,0.0,0.0,0.0,0.0,0.0,0.0,0.0,0.0,0.0,0.0,0.0,0.0,0.0,0.0,0.0,0.0,0.0,0.0,0.0,0.0,0.0,0.0,0.0,0.0,0.0,0.0,0.0,0.0,0.0,0.0,0.0,0.0,0.0,0.0,0.0,0.0,0.0,0.0,0.0,0.0,0.0,0.0,0.0,0.0,0.0,0.0,0.0,0.0,0.0,0.0,0.0,0.0,0.0,0.0,0.0,0.0,0.0,0.0,0.0,0.0,0.0,0.0,0.0,0.0,0.0,0.0,0.0,0.0,0.0,0.0,0.0,0.0,0.0,0.0,0.0,0.0,0.0,0.0,0.0,0.0,0.0,0.0,0.0,0.0,0.0,0.0,0.0,0.0,0.0,0.0,0.0,0.0,0.0,0.0,0.0,0.0,0.0,0.0,0.0,0.0,0.0,0.0,0.0,0.0,0.0,0.0,0.0,0.0,0.0,0.0,0.0,0.0,0.0,0.0,0.0,0.0,0.0,0.0,0.0,0.0,0.0,0.0,0.0,0.0,0.0,0.0,0.0,0.0,0.0,0.0,0.0,0.0,0.0,0.0,0.0,0.0,0.0,0.0,0.0,0.0,0.0,0.0,0.0,0.0,0.0,0.0,0.0,0.0,0.0,0.0,0.0,0.0,0.0,0.0,0.0,0.0,0.0,0.0,0.0,0.0,0.0,0.0,0.0,0.0,0.0,0.0,0.0,0.0,0.0,0.0,0.0,0.0,0.0,0.0,0.0,0.0,0.0,0.0,0.0,0.0,0.0,0.0,0.0,0.0,0.0,0.0,0.0,0.0,0.0,0.0,0.0,0.0,0.0,0.0,0.0,0.0,0.0,0.0,0.0,0.0,0.0,0.0,0.0,0.0,0.0,0.0,0.0,0.0,0.0,0.0,0.0,0.0,0.0,0.0,0.0,0.0,0.0,0.0,0.0,0.0,0.0,0.0,0.0,0.0,0.0,0.0,0.0,0.0,0.0,0.0,0.0,0.0,0.0,0.0,0.0,0.0,0.0,0.0,0.0,0.0,0.0,0.0,0.0,0.0,0.0,0.0,0.0,0.0,0.0,0.0,0.0,0.0,0.0,0.0,0.0,0.0,0.0,0.0,0.0,0.0,0.0,0.0,0.0,0.0,0.0,0.0,0.0,0.0,0.0,0.0,0.0,0.0,0.0,0.0,0.0,0.0,0.0,0.0,0.0,0.0,0.0,0.0,0.0,0.0,0.0,0.0,0.0,0.0,0.0,0.0,0.0,0.0,0.0,0.0,0.0,0.0,0.0,0.0,0.0,0.0,0.0,0.0,0.0,0.0,0.0,0.0,0.0,0.0,0.0,0.0,0.0,0.0,0.0,0.0,0.0,0.0,-1.0003,0.0,0.0,0.0,0.0,0.0,0.0,0.0,0.0,0.0,0.0,0.0,0.0,0.0,0.0,0.0,0.0,0.0,0.0,0.0,0.0,0.0,0.0,0.0,0.0,0.0,0.0,0.0,0.0,0.0,0.0,0.0,0.0,0.0,0.0,0.0,0.0,0.0,0.0,0.0,0.0,0.0,0.0,0.0,0.0,0.0,0.0,0.0,0.0,0.0,0.0,0.0,0.0,0.0,0.0,0.0,0.0,0.0,0.0,0.0,0.0,0.0,0.0,0.0,0.0,0.0,0.0,0.0,0.0,0.0,0.0,0.0,0.0,0.0,0.0,0.0,0.0,0.0,0.0,0.0,0.0,0.0,0.0,0.0,0.0,0.0,0.0,0.0,0.0,0.0,0.0,0.0,0.0,0.0,0.0,0.0,0.0,0.0,0.0,0.0,0.0,0.0,0.0,0.0,0.0,0.0,0.0,0.0,0.0,0.0,0.0,-0.9591,-0.9636,-0.972,-0.9833,-0.9938,0.0,0.0,0.0,0.0,0.0,0.0,0.0,0.0,0.0,0.0,0.0,0.0,0.0,0.0,0.0,0.0,0.0,0.0,0.0,0.0,0.0,0.0,0.0,0.0,0.0,0.0,0.0,0.0,0.0,0.0,0.0,0.0,0.0,0.0,0.0,0.0,0.0,0.0,0.0,0.0,0.0,0.0,0.0,0.0,0.0,0.0,0.0,0.0,0.0,0.0,0.0,0.0,0.0,0.0,0.0,0.0,0.0,0.0,0.0,0.0,0.0,0.0,0.0,0.0,0.0,0.0,0.0,0.0,0.0,0.0,0.0,0.0,0.0,0.0,0.0,0.0,0.0,0.0,0.0,0.0,0.0,0.0,0.0,0.0,0.0,0.0,0.0,0.0,0.0,0.0,0.0,0.0,0.0,0.0,0.0,0.0,0.0,0.0,0.0,0.0,0.0,0.0,0.0,0.0,0.0,0.0,0.0,0.0,0.0,0.0,0.0,0.0,-0.9453,-0.9534,-0.9608,0.0,0.0,0.0,0.0,0.0,0.0,0.0,0.0,0.0,0.0,0.0,0.0,0.0,0.0,0.0,0.0,0.0,0.0,0.0,0.0,0.0,0.0,0.0,0.0,0.0,0.0,0.0,0.0,0.0,0.0,0.0,0.0,0.0,0.0,0.0,0.0,0.0,0.0,0.0,0.0,0.0,0.0,0.0,0.0,0.0,0.0,0.0,0.0,0.0,0.0,0.0,0.0,0.0,0.0,0.0,0.0,0.0,0.0,0.0,0.0,0.0,0.0,0.0,0.0,0.0,0.0,0.0,0.0,0.0,0.0,0.0,0.0,0.0,0.0,0.0,0.0,0.0,0.0,0.0,0.0,0.0,0.0,0.0,0.0,0.0,0.0,0.0,0.0,0.0,0.0,0.0,0.0,0.0,0.0,0.0,0.0,0.0,0.0,0.0,0.0,0.0,0.0,0.0,0.0,0.0,0.0,0.0,0.0,0.0,0.0,-0.9191,-0.9134,-0.9142,0.0,-0.8822,0.0,0.0,0.0,0.0,0.0,0.0,0.0,0.0,0.0,0.0,0.0,0.0,0.0,0.0,0.0,0.0,0.0,0.0,0.0,0.0,0.0,0.0,0.0,0.0,0.0,0.0,0.0,0.0,0.0,0.0,0.0,0.0,0.0,0.0,0.0,0.0,0.0,0.0,0.0,0.0,0.0,0.0,0.0,0.0,0.0,0.0,0.0,0.0,0.0,0.0,0.0,0.0,0.0,0.0,0.0,0.0,0.0,0.0,0.0,0.0,0.0,0.0,0.0,0.0,0.0,0.0,0.0,0.0,0.0,0.0,0.0,0.0,0.0,0.0,0.0,0.0,0.0,0.0,0.0,0.0,0.0,0.0,0.0,0.0,0.0,0.0,0.0,0.0,0.0,0.0,0.0,0.0,0.0,0.0,0.0,0.0,0.0,0.0,0.0,0.0,0.0,0.0,0.0,0.0,0.0,0.0,0.0,0.0,0.0,0.0,-0.8711,-0.8578,-0.875,-0.8755,0.0,0.0,0.0,0.0,0.0,0.0,0.0,0.0,0.0,0.0,0.0,0.0,0.0,0.0,0.0,0.0,0.0,0.0,0.0,0.0,0.0,0.0,0.0,0.0,0.0,0.0,0.0,0.0,0.0,0.0,0.0,0.0,0.0,0.0,0.0,0.0,0.0,0.0,0.0,0.0,0.0,0.0,0.0,0.0,0.0,0.0,0.0,0.0,0.0,0.0,0.0,0.0,0.0,0.0,0.0,0.0,0.0,0.0,0.0,0.0,0.0,0.0,0.0,0.0,0.0,0.0,0.0,0.0,0.0,0.0,0.0,0.0,0.0,0.0,0.0,0.0,0.0,0.0,0.0,0.0,0.0,0.0,0.0,0.0,0.0,0.0,0.0,0.0,0.0,0.0,0.0,0.0,0.0,0.0,0.0,0.0,0.0,0.0,0.0,0.0,0.0,0.0,0.0,0.0,0.0,0.0,0.0,0.0,0.0,0.0,-0.8048,-0.7947,-0.7976,-0.8331,-0.8431,-0.8269,0.0,0.0,0.0,0.0,0.0,0.0,0.0,0.0,0.0,0.0,0.0,0.0,0.0,0.0,0.0,0.0,0.0,0.0,0.0,0.0,0.0,0.0,0.0,0.0,0.0,0.0,0.0,0.0,0.0,0.0,0.0,0.0,0.0,0.0,0.0,0.0,0.0,0.0,0.0,0.0,0.0,0.0,0.0,0.0,0.0,0.0,0.0,0.0,0.0,0.0,0.0,0.0,0.0,0.0,0.0,0.0,0.0,0.0,0.0,0.0,0.0,0.0,0.0,0.0,0.0,0.0,0.0,0.0,0.0,0.0,0.0,0.0,0.0,0.0,0.0,0.0,0.0,0.0,0.0,0.0,0.0,0.0,0.0,0.0,0.0,0.0,0.0,0.0,0.0,0.0,0.0,0.0,0.0,0.0,0.0,0.0,0.0,0.0,0.0,0.0,0.0,0.0,0.0,0.0,0.0,0.0,0.0,0.0,-0.6878,-0.6703,-0.6812,-0.7336,-0.7796,-0.799,0.0,0.0,0.0,0.0,0.0,0.0,0.0,0.0,0.0,0.0,0.0,0.0,0.0,0.0,0.0,0.0,0.0,0.0,0.0,0.0,0.0,0.0,0.0,0.0,0.0,0.0,0.0,0.0,0.0,0.0,0.0,0.0,0.0,0.0,0.0,0.0,0.0,0.0,0.0,0.0,0.0,0.0,0.0,0.0,0.0,0.0,0.0,0.0,0.0,0.0,0.0,0.0,0.0,0.0,0.0,0.0,0.0,0.0,0.0,0.0,0.0,0.0,0.0,0.0,0.0,0.0,0.0,0.0,0.0,0.0,0.0,0.0,0.0,0.0,0.0,0.0,0.0,0.0,0.0,0.0,0.0,0.0,0.0,0.0,0.0,0.0,0.0,0.0,0.0,0.0,0.0,0.0,0.0,0.0,0.0,0.0,0.0,0.0,0.0,0.0,0.0,0.0,0.0,0.0,0.0,0.0,0.0,0.0,0.0,-0.6206,-0.6025,-0.6138,-0.6575,-0.7115,-0.746,0.0,0.0,0.0,0.0,0.0,0.0,0.0,0.0,0.0,0.0,0.0,0.0,0.0,0.0,0.0,0.0,0.0,0.0,0.0,0.0,0.0,0.0,0.0,0.0,0.0,0.0,0.0,0.0,0.0,0.0,0.0,0.0,0.0,0.0,0.0,0.0,0.0,0.0,0.0,0.0,0.0,0.0,0.0,0.0,0.0,0.0,0.0,0.0,0.0,0.0,0.0,0.0,0.0,0.0,0.0,0.0,0.0,0.0,0.0,0.0,0.0,0.0,0.0,0.0,0.0,0.0,0.0,0.0,0.0,0.0,0.0,0.0,0.0,0.0,0.0,0.0,0.0,0.0,0.0,0.0,0.0,0.0,0.0,0.0,0.0,0.0,0.0,0.0,0.0,0.0,0.0,0.0,0.0,0.0,0.0,0.0,0.0,0.0,0.0,0.0,0.0,0.0,0.0,0.0,0.0,0.0,0.0,0.0,0.0,-0.4947,0.0,-0.5367,-0.5834,-0.6488,-0.6964,0.0,0.0,0.0,0.0,0.0,0.0,0.0,0.0,0.0,0.0,0.0,0.0,0.0,0.0,0.0,0.0,0.0,0.0,0.0,0.0,0.0,0.0,0.0,0.0,0.0,0.0,0.0,0.0,0.0,0.0,0.0,0.0,0.0,0.0,0.0,0.0,0.0,0.0,0.0,0.0,0.0,0.0,0.0,0.0,0.0,0.0,0.0,0.0,0.0,0.0,0.0,0.0,0.0,0.0,0.0,0.0,0.0,0.0,0.0,0.0,0.0,0.0,0.0,0.0,0.0,0.0,0.0,0.0,0.0,0.0,0.0,0.0,0.0,0.0,0.0,0.0,0.0,0.0,0.0,0.0,0.0,0.0,0.0,0.0,0.0,0.0,0.0,0.0,0.0,0.0,0.0,0.0,0.0,0.0,0.0,0.0,0.0,0.0,0.0,0.0,0.0,0.0,0.0,0.0,0.0,0.0,0.0,0.0,-0.2495,-0.2927,-0.3751,-0.4486,-0.5087,-0.587,-0.6443,0.0,0.0,0.0,0.0,0.0,0.0,0.0,0.0,0.0,0.0,0.0,0.0,0.0,0.0,0.0,0.0,0.0,0.0,0.0,0.0,0.0,0.0,0.0,0.0,0.0,0.0,0.0,0.0,0.0,0.0,0.0,0.0,0.0,0.0,0.0,0.0,0.0,0.0,0.0,0.0,0.0,0.0,0.0,0.0,0.0,0.0,0.0,0.0,0.0,0.0,0.0,0.0,0.0,0.0,0.0,0.0,0.0,0.0,0.0,0.0,0.0,0.0,0.0,0.0,0.0,0.0,0.0,0.0,0.0,0.0,0.0,0.0,0.0,0.0,0.0,0.0,0.0,0.0,0.0,0.0,0.0,0.0,0.0,0.0,0.0,0.0,0.0,0.0,0.0,0.0,0.0,0.0,0.0,0.0,0.0,0.0,0.0,0.0,0.0,0.0,0.0,0.0,0.0,0.0,0.0,0.0,0.0,0.0,0.0,-0.2061,-0.2835,-0.3584,-0.4327,-0.5175,-0.5778,0.0,0.0,0.0,0.0,0.0,0.0,0.0,0.0,0.0,0.0,0.0,0.0,0.0,0.0,0.0,0.0,0.0,0.0,0.0,0.0,0.0,0.0,0.0,0.0,0.0,0.0,0.0,0.0,0.0,0.0,0.0,0.0,0.0,0.0,0.0,0.0,0.0,0.0,0.0,0.0,0.0,0.0,0.0,0.0,0.0,0.0,0.0,0.0,0.0,0.0,0.0,0.0,0.0,0.0,0.0,0.0,0.0,0.0,0.0,0.0,0.0,0.0,0.0,0.0,0.0,0.0,0.0,0.0,0.0,0.0,0.0,0.0,0.0,0.0,0.0,0.0,0.0,0.0,0.0,0.0,0.0,0.0,0.0,0.0,0.0,0.0,0.0,0.0,0.0,0.0,0.0,0.0,0.0,0.0,0.0,0.0,0.0,0.0,0.0,0.0,0.0,0.0,0.0,0.0,0.0,0.0,0.0,0.0,0.0,-0.1219,-0.2036,-0.2847,-0.3653,-0.4356,-0.4953,-0.5465,0.0,0.0,0.0,0.0,0.0,0.0,0.0,0.0,0.0,0.0,0.0,0.0,0.0,0.0,0.0,0.0,0.0,0.0,0.0,0.0,0.0,0.0,0.0,0.0,0.0,0.0,0.0,0.0,0.0,0.0,0.0,0.0,0.0,0.0,0.0,0.0,0.0,0.0,0.0,0.0,0.0,0.0,0.0,0.0,0.0,0.0,0.0,0.0,0.0,0.0,0.0,0.0,0.0,0.0,0.0,0.0,0.0,0.0,0.0,0.0,0.0,0.0,0.0,0.0,0.0,0.0,0.0,0.0,0.0,0.0,0.0,0.0,0.0,0.0,0.0,0.0,0.0,0.0,0.0,0.0,0.0,0.0,0.0,0.0,0.0,0.0,0.0,0.0,0.0,0.0,0.0,0.0,0.0,0.0,0.0,0.0,0.0,0.0,0.0,0.0,0.0,0.0,0.0,0.0,0.0,0.0,0.0,0.0,-0.0479,-0.14,-0.2276,-0.3046,-0.3433,-0.4003,0.0,0.0,0.0,0.0,0.0,0.0,0.0,0.0,0.0,0.0,0.0,0.0,0.0,0.0,0.0,0.0,0.0,0.0,0.0,0.0,0.0,0.0,0.0,0.0,0.0,0.0,0.0,0.0,0.0,0.0,0.0,0.0,0.0,0.0,0.0,0.0,0.0,0.0,0.0,0.0,0.0,0.0,0.0,0.0,0.0,0.0,0.0,0.0,0.0,0.0,0.0,0.0,0.0,0.0,0.0,0.0,0.0,0.0,0.0,0.0,0.0,0.0,0.0,0.0,0.0,0.0,0.0,0.0,0.0,0.0,0.0,0.0,0.0,0.0,0.0,0.0,0.0,0.0,0.0,0.0,0.0,0.0,0.0,0.0,0.0,0.0,0.0,0.0,0.0,0.0,0.0,0.0,0.0,0.0,0.0,0.0,0.0,0.0,0.0,0.0,0.0,0.0,0.0,0.0,0.0,0.0,0.0,0.0,0.0,-0.0404,-0.1247,-0.1998,-0.2617,-0.2869,-0.3273,0.0,0.0,0.0,0.0,0.0,0.0,0.0,0.0,0.0,0.0,0.0,0.0,0.0,0.0,0.0,0.0,0.0,0.0,0.0,0.0,0.0,0.0,0.0,0.0,0.0,0.0,0.0,0.0,0.0,0.0,0.0,0.0,0.0,0.0,0.0,0.0,0.0,0.0,0.0,0.0,0.0,0.0,0.0,0.0,0.0,0.0,0.0,0.0,0.0,0.0,0.0,0.0,0.0,0.0,0.0,0.0,0.0,0.0,0.0,0.0,0.0,0.0,0.0,0.0,0.0,0.0,0.0,0.0,0.0,0.0,0.0,0.0,0.0,0.0,0.0,0.0,0.0,0.0,0.0,0.0,0.0,0.0,0.0,0.0,0.0,0.0,0.0,0.0,0.0,0.0,0.0,0.0,0.0,0.0,0.0,0.0,0.0,0.0,0.0,0.0,0.0,0.0,0.0,0.0,0.0,0.0,0.0,0.0,0.0186,-0.0691,-0.1288,-0.1855,-0.2374,-0.256,-0.2883,0.0,0.0,0.0,0.0,0.0,0.0,0.0,0.0,0.0,0.0,0.0,0.0,0.0,0.0,0.0,0.0,0.0,0.0,0.0,0.0,0.0,0.0,0.0,0.0,0.0,0.0,0.0,0.0,0.0,0.0,0.0,0.0,0.0,0.0,0.0,0.0,0.0,0.0,0.0,0.0,0.0,0.0,0.0,0.0,0.0,0.0,0.0,0.0,0.0,0.0,0.0,0.0,0.0,0.0,0.0,0.0,0.0,0.0,0.0,0.0,0.0,0.0,0.0,0.0,0.0,0.0,0.0,0.0,0.0,0.0,0.0,0.0,0.0,0.0,0.0,0.0,0.0,0.0,0.0,0.0,0.0,0.0,0.0,0.0,0.0,0.0,0.0,0.0,0.0,0.0,0.0,0.0,0.0,0.0,0.0,0.0,0.0,0.0,0.0,0.0,0.0,0.0,0.0,0.0,0.0,0.0,0.0,0.0,-0.0198,-0.1107,-0.1503,-0.1866,-0.2214,-0.2439,-0.2661,0.0,0.0,0.0,0.0,0.0,0.0,0.0,0.0,0.0,0.0,0.0,0.0,0.0,0.0,0.0,0.0,0.0,0.0,0.0,0.0,0.0,0.0,0.0,0.0,0.0,0.0,0.0,0.0,0.0,0.0,0.0,0.0,0.0,0.0,0.0,0.0,0.0,0.0,0.0,0.0,0.0,0.0,0.0,0.0,0.0,0.0,0.0,0.0,0.0,0.0,0.0,0.0,0.0,0.0,0.0,0.0,0.0,0.0,0.0,0.0,0.0,0.0,0.0,0.0,0.0,0.0,0.0,0.0,0.0,0.0,0.0,0.0,0.0,0.0,0.0,0.0,0.0,0.0,0.0,0.0,0.0,0.0,0.0,0.0,0.0,0.0,0.0,0.0,0.0,0.0,0.0,0.0,0.0,0.0,0.0,0.0,0.0,0.0,0.0,0.0,0.0,0.0,0.0,0.0,0.0,0.0,0.0,0.0,-0.0558,-0.1318,-0.1927,-0.2291,-0.2428,-0.2186,-0.2125,0.0,0.0,0.0,0.0,0.0,0.0,0.0,0.0,0.0,0.0,0.0,0.0,0.0,0.0,0.0,0.0,0.0,0.0,0.0,0.0,0.0,0.0,0.0,0.0,0.0,0.0,0.0,0.0,0.0,0.0,0.0,0.0,0.0,0.0,0.0,0.0,0.0,0.0,0.0,0.0,0.0,0.0,0.0,0.0,0.0,0.0,0.0,0.0,0.4667,0.0,0.0,0.0,0.0,0.0,0.0,0.0,0.0,0.0,0.0,0.0,0.0,0.0,0.0,0.0,0.0,0.0,0.0,0.0,0.0,0.0,0.0,0.0,0.0,0.0,0.0,0.0,0.0,0.0,0.0,0.0,0.0,0.0,0.0,0.0,0.0,0.0,0.0,0.0,0.0,0.0,0.0,0.0,0.0,0.0,0.0,0.0,0.0,0.0,0.0,0.0,0.0,0.0,0.0,0.0,0.0,0.0,0.0,0.0,-0.1078,-0.1651,-0.2149,-0.2376,-0.2283,-0.1853,-0.1743,0.0,0.0,0.0,0.0,0.0,0.0,0.0,0.0,0.0,0.0,0.0,0.0,0.0,0.0,0.0,0.0,0.0,0.0,0.0,0.0,0.0,0.0,0.0,0.0,0.0,0.0,0.0,0.0,0.0,0.0,0.0,0.0,0.0,0.0,0.0,0.0,0.0,0.0,0.0,0.0,0.0,0.0,0.0,0.0,0.0,0.0,0.0,0.0,0.0,0.0,0.0,0.0,0.0,0.0,0.0,0.0,0.0,0.0,0.0,0.0,0.0,0.0,0.0,0.0,0.0,0.0,0.0,0.0,0.0,0.0,0.0,0.0,0.0,0.0,0.0,0.0,0.0,0.0,0.0,0.0,0.0,0.0,0.0,0.0,0.0,0.0,0.0,0.0,0.0,0.0,0.0,0.0,0.0,0.0,0.0,0.0,0.0,0.0,0.0,0.0,0.0,0.0,0.0,0.0,0.0,0.0,0.0,-0.0955,-0.1561,-0.2005,-0.2281,-0.2315,-0.2087,-0.1571,-0.147,-0.1728,0.0,0.0,0.0,0.0,0.0,0.0,0.0,0.0,0.0,0.0,0.0,0.0,0.0,0.0,0.0,0.0,0.0,0.0,0.0,0.0,0.0,0.0,0.0,0.0,0.0,0.0,0.0,0.0,0.0,0.0,0.0,0.0,0.0,0.0,0.0,0.0,0.0,0.0,0.4675,0.4745,0.0,0.0,0.0,0.0,0.0,0.0,0.0,0.0,0.4624,0.0,0.0,0.0,0.0,0.0,0.0,0.0,0.0,0.0,0.0,0.0,0.0,0.0,0.0,0.0,0.0,0.0,0.0,0.0,0.0,0.0,0.0,0.0,0.0,0.0,0.0,0.0,0.0,0.0,0.0,0.0,0.0,0.0,0.0,0.0,0.0,0.0,0.0,0.0,0.0,0.0,0.0,0.0,0.0,0.0,0.0,0.0,0.0,0.0,0.0,0.0,0.0,0.0,0.0,0.0,0.0,-0.0532,-0.126,-0.1776,-0.2064,-0.2357,-0.2322,-0.1951,-0.1568,-0.1303,-0.1089,0.0,0.0,0.0,0.0,0.0,0.0,0.0,0.0,0.0,0.0,0.0,0.0,0.0,0.0,0.0,0.0,0.0,0.0,0.0,0.0,0.0,0.0,0.0,0.0,0.0,0.0,0.0,0.0,0.0,0.0,0.0,0.0,0.0,0.0,0.0,0.0,0.0,0.0,0.0,0.4498,0.4547,0.0,0.0,0.0,0.0,0.0,0.0,0.0,0.0,0.4244,0.0,0.0,0.0,0.0,0.0,0.0,0.0,0.0,0.0,0.0,0.0,0.0,0.0,0.0,0.0,0.0,0.0,0.0,0.0,0.0,0.0,0.0,0.0,0.0,0.0,0.0,0.0,0.0,0.0,0.0,0.0,0.0,0.0,0.0,0.0,0.0,0.0,0.0,0.0,0.0,0.0,0.0,0.0,0.0,0.0,0.0,0.0,0.0,0.0,0.0,0.0,0.0,0.0,0.0,0.0,-0.0988,-0.1605,-0.2035,-0.2187,-0.231,-0.2162,-0.1816,-0.1367,-0.1012,0.0,0.0,0.0,0.0,0.0,0.0,0.0,0.0,0.0,0.0,0.0,0.0,0.0,0.0,0.0,0.0,0.0,0.0,0.0,0.0,0.0,0.0,0.0,0.0,0.0,0.0,0.0,0.0,0.0,0.0,0.0,0.0,0.0,0.0,0.0,0.0,0.0,0.0,0.0,0.0,0.4374,0.4435,0.4483,0.0,0.0,0.0,0.0,0.0,0.0,0.4187,0.4063,0.0,0.0,0.0,0.0,0.0,0.0,0.0,0.0,0.0,0.0,0.0,0.0,0.0,0.0,0.0,0.0,0.0,0.0,0.0,0.0,0.0,0.0,0.0,0.0,0.0,0.0,0.0,0.0,0.0,0.0,0.0,0.0,0.0,0.0,0.0,0.0,0.0,0.0,0.0,0.0,0.0,0.0,0.0,0.0,0.0,0.0,0.0,0.0,0.0,0.0,0.0,0.0,0.0,0.0,0.0,-0.1407,-0.1927,-0.224,-0.2226,-0.2177,-0.1997,-0.1653,-0.1174,-0.0822,0.0,0.0,0.0,0.0,0.0,0.0,0.0,0.0,0.0,0.0,0.0,0.0,0.0,0.0,0.0,0.0,0.0,0.0,0.0,0.0,0.0,0.0,0.0,0.0,0.0,0.0,0.0,0.0,0.0,0.0,0.0,0.0,0.0,0.0,0.0,0.0,0.0,0.0,0.0,0.0,0.0,0.4313,0.4287,0.4393,0.0,0.0,0.0,0.0,0.435,0.4198,0.0,0.0,0.0,0.0,0.0,0.0,0.0,0.0,0.0,0.0,0.0,0.0,0.0,0.0,0.0,0.0,0.0,0.0,0.0,0.0,0.0,0.0,0.0,0.0,0.0,0.0,0.0,0.0,0.0,0.0,0.0,0.0,0.0,0.0,0.0,0.0,0.0,0.0,0.0,0.0,0.0,0.0,0.0,0.0,0.0,0.0,0.0,0.0,0.0,0.0,0.0,0.0,0.0,0.0,0.0,0.0,-0.1737,-0.2128,-0.2186,-0.2054,-0.2046,-0.1821,-0.1452,-0.1079,-0.0831,0.0,0.0,0.0,0.0,0.0,0.0,0.0,0.0,0.0,0.0,0.0,0.0,0.0,0.0,0.0,0.0,0.0,0.0,0.0,0.0,0.0,0.0,0.0,0.0,0.0,0.0,0.0,0.0,0.0,0.0,0.0,0.0,0.0,0.0,0.0,0.0,0.0,0.0,0.0,0.0,0.0,0.4094,0.4198,0.4336,0.4498,0.0,0.0,0.4831,0.4806,0.4755,0.0,0.0,0.0,0.0,0.0,0.0,0.0,0.0,0.0,0.0,0.0,0.0,0.0,0.0,0.0,0.0,0.0,0.0,0.0,0.0,0.0,0.0,0.0,0.0,0.0,0.0,0.0,0.0,0.0,0.0,0.0,0.0,0.0,0.0,0.0,0.0,0.0,0.0,0.0,0.0,0.0,0.0,0.0,0.0,0.0,0.0,0.0,0.0,0.0,0.0,0.0,0.0,0.0,0.0,0.0,-0.1723,-0.1971,-0.2214,-0.2285,-0.2102,-0.1988,-0.1733,-0.1297,-0.0986,-0.0749,0.0,0.0,0.0,0.0,0.0,0.0,0.0,0.0,0.0,0.0,0.0,0.0,0.0,0.0,0.0,0.0,0.0,0.0,0.0,0.0,0.0,0.0,0.0,0.0,0.0,0.0,0.0,0.0,0.0,0.0,0.0,0.0,0.0,0.0,0.0,0.0,0.0,0.0,0.0,0.0,0.0,0.0,0.3986,0.4264,0.0,0.0,0.0,0.4586,0.4613,0.0,0.0,0.0,0.0,0.0,0.0,0.0,0.0,0.0,0.0,0.0,0.0,0.0,0.0,0.0,0.0,0.0,0.0,0.0,0.0,0.0,0.0,0.0,0.0,0.0,0.0,0.0,0.0,0.0,0.0,0.0,0.0,0.0,0.0,0.0,0.0,0.0,0.0,0.0,0.0,0.0,0.0,0.0,0.0,0.0,0.0,0.0,0.0,0.0,0.0,0.0,0.0,0.0,0.0,0.0,0.0,0.0,-0.217,-0.2326,-0.2343,-0.2194,-0.2023,-0.17,-0.1207,-0.1001,0.0,0.0,0.0,0.0,0.0,0.0,0.0,0.0,0.0,0.0,0.0,0.0,0.0,0.0,0.0,0.0,0.0,0.0,0.0,0.0,0.0,0.0,0.0,0.0,0.0,0.0,0.0,0.1851,0.0,0.0,0.0,0.0,0.0,0.0,0.0,0.0,0.0,0.0,0.0,0.0,0.0,0.0,0.3692,0.3834,0.4075,0.4218,0.0,0.0,0.4394,0.4477,0.4539,0.4671,0.0,0.0,0.0,0.0,0.0,0.0,0.0,0.0,0.0,0.0,0.0,0.0,0.0,0.0,0.0,0.0,0.0,0.0,0.0,0.0,0.0,0.0,0.0,0.0,0.0,0.0,0.0,0.0,0.0,0.0,0.0,0.0,0.0,0.0,0.0,0.0,0.0,0.0,0.0,0.0,0.0,0.0,0.0,0.0,0.0,0.0,0.0,0.0,0.0,0.0,0.0,0.0,0.0,0.0,0.0,-0.2395,-0.2471,-0.2382,-0.2132,-0.2055,-0.1698,-0.1114,-0.1106,-0.0747,0.0,0.0,0.0,0.0,0.0,0.0,0.0,0.0,0.0,0.0,0.0,0.0,0.0,0.0,0.0,0.0,0.0,0.0,0.0,0.0,0.0,0.0,0.0,0.0,0.0,0.0,0.0,0.0,0.0,0.0,0.0,0.0,0.0,0.0,0.0,0.0,0.0,0.0,0.0,0.0,0.0,0.3966,0.374,0.3644,0.3751,0.0,0.0,0.4544,0.4757,0.4922,0.5141,0.5397,0.0,0.0,0.0,0.0,0.0,0.0,0.0,0.0,0.0,0.0,0.0,0.0,0.0,0.0,0.0,0.0,0.0,0.0,0.0,0.0,0.0,0.0,0.0,0.0,0.0,0.0,0.0,0.0,0.0,0.0,0.0,0.0,0.0,0.0,0.0,0.0,0.0,0.0,0.0,0.0,0.0,0.0,0.0,0.0,0.0,0.0,0.0,0.0,0.0,0.0,0.0,0.0,0.0,-0.218,-0.2495,-0.2487,-0.2449,-0.2405,-0.2156,-0.183,-0.1417,-0.1206,-0.0851,0.0,0.0,0.0,0.0,0.0,0.0,0.0,0.0,0.0,0.0,0.0,0.0,0.0,0.0,0.0,0.0,0.0,0.0,0.0,0.0,0.0,0.0,0.0,0.0,0.0,0.0,0.0,0.0,0.2123,0.2505,0.3391,0.0,0.0,0.0,0.0,0.0,0.0,0.0,0.0,0.0,0.0,0.4157,0.369,0.345,0.0,0.0,0.4053,0.421,0.4447,0.4666,0.4922,0.5309,0.5397,0.0,0.0,0.0,0.0,0.0,0.0,0.0,0.0,0.0,0.0,0.0,0.0,0.0,0.0,0.0,0.0,0.0,0.0,0.0,0.0,0.0,0.0,0.0,0.0,0.0,0.0,0.0,0.0,0.0,0.0,0.0,0.0,0.0,0.0,0.0,0.0,0.0,0.0,0.0,0.0,0.0,0.0,0.0,0.0,0.0,0.0,0.0,0.0,0.0,0.0,0.0,0.0,-0.2309,-0.2576,-0.2663,-0.2704,-0.271,-0.2393,-0.2058,-0.1756,-0.1417,-0.1048,0.0,0.0,0.0,0.0,0.0,0.0,0.0,0.0,0.0,0.0,0.0,0.0,0.0,0.0,0.0,0.0,0.0,0.0,0.0,0.0,0.0,0.0,0.0,0.0,0.0,0.0,0.0,0.0,0.2625,0.313,0.3981,0.0,0.0,0.0,0.0,0.0,0.0,0.0,0.0,0.0,0.0,0.4145,0.3597,0.3307,0.3274,0.3541,0.3695,0.3858,0.4151,0.4377,0.4728,0.5268,0.0,0.0,0.0,0.0,0.0,0.0,0.0,0.0,0.0,0.0,0.0,0.0,0.0,0.0,0.0,0.0,0.0,0.0,0.0,0.0,0.0,0.0,0.0,0.0,0.0,0.0,0.0,0.0,0.0,0.0,-0.5491,0.0,0.0,0.0,0.0,0.0,0.0,0.0,0.0,0.0,0.0,0.0,0.0,0.0,0.0,0.0,0.0,0.0,0.0,0.0,0.0,0.0,0.0,-0.2501,-0.2582,-0.2923,-0.3072,-0.3004,-0.268,-0.2355,-0.2102,-0.1778,-0.1342,-0.0798,0.0,0.0,0.0,0.0,0.0,0.0,0.0,0.0,0.0,0.0,0.0,0.0,0.0,0.0,0.0,0.0,0.0,0.0,0.0,0.0,0.0,0.0,0.0,0.0,0.0,0.0,0.2235,0.3264,0.4149,0.0,0.0,0.0,0.0,0.0,0.0,0.0,0.0,0.0,0.0,0.3993,0.3831,0.3385,0.3249,0.3228,0.329,0.3447,0.3602,0.3906,0.4199,0.4662,0.0,0.0,0.0,0.0,0.0,0.0,0.0,0.0,0.0,0.0,0.0,0.0,0.0,0.0,0.0,0.0,0.0,0.0,0.0,0.0,0.0,0.0,0.0,0.0,0.0,0.0,0.0,-0.6342,-0.6153,0.0,0.0,0.0,0.0,0.0,0.0,0.0,0.0,0.0,0.0,0.0,-0.4517,-0.3987,0.0,0.0,0.0,0.0,0.0,0.0,0.0,0.0,0.0,0.0,0.0,0.0,-0.2624,-0.2863,-0.303,-0.3132,-0.3189,-0.2859,-0.2595,-0.2368,-0.1985,-0.1339,-0.0306,0.0,0.0,0.0,0.0,0.0,0.0,0.0,0.0,0.0,0.0,0.0,0.0,0.0,0.0,0.0,0.0,0.0,0.0,0.0,0.0,0.0,0.0,0.0,0.0,0.0,0.2641,0.0,0.0,0.0,0.0,0.0,0.0,0.0,0.0,0.0,0.0,0.0,0.4357,0.4035,0.3796,0.366,0.3565,0.3561,0.3561,0.0,0.0,0.0,0.0,0.0,0.0,0.0,0.0,0.0,0.0,0.0,0.0,0.0,0.0,0.6975,0.7531,0.7798,0.7695,0.7055,0.0,0.0,0.0,0.0,0.0,0.0,0.0,0.0,0.0,0.0,0.0,0.0,0.0,0.0,-0.6964,0.0,-0.6594,0.0,0.0,0.0,0.0,0.0,0.0,0.0,0.0,-0.4539,-0.4467,-0.4644,-0.4149,-0.3965,0.0,-0.3865,-0.367,0.0,0.0,0.0,0.0,0.0,0.0,0.0,0.0,-0.2866,-0.3116,-0.3302,-0.3437,-0.3527,-0.318,-0.29,-0.2686,-0.203,-0.1202,-0.0295,-0.0082,0.0119,0.0,0.0,0.0,0.0,0.0,0.0,0.0,0.0,0.0,0.0,0.0,0.0,0.0,0.0,0.0,0.0,0.0,0.0,0.0,0.0,0.0,0.0,0.0,0.3207,0.0,0.0,0.0,0.0,0.0,0.0,0.0,0.0,0.0,0.4437,0.4409,0.4238,0.3932,0.3829,0.3762,0.3685,0.0,0.0,0.0,0.0,0.0,0.0,0.0,0.4757,0.5066,0.5379,0.5677,0.6085,0.6453,0.6723,0.6775,0.0,0.0,0.7564,0.7754,0.7706,0.7185,0.7164,0.7058,0.6557,0.6444,0.6453,0.0,0.0,0.0,0.0,0.0,0.0,0.0,0.0,-0.818,-0.7964,0.0,-0.7386,0.0,0.0,0.0,0.0,0.0,-0.5246,0.0,0.0,-0.4757,-0.4679,-0.44,-0.4303,-0.4146,-0.4039,-0.4036,-0.4033,-0.4005,-0.3503,0.0,0.0,0.0,0.0,0.0,0.0,-0.3312,-0.3328,-0.3767,-0.4016,-0.3956,-0.3585,-0.3281,-0.3083,-0.1879,-0.1053,-0.0711,-0.0266,-0.0,-0.0,-0.0,0.0,0.0,0.0,0.0,0.0,0.0,0.0,0.0,0.0,0.0,0.0,0.0,0.0,0.0,0.0,0.0,0.0,0.0,0.0,0.0,0.3264,0.0,0.0,0.0,0.0,0.0,0.0,0.0,0.0,0.0,0.0,0.4251,0.4284,0.4158,0.3746,0.0,0.0,0.0,0.0,0.387,0.3758,0.3858,0.394,0.4,0.4197,0.4465,0.4924,0.0,0.0,0.6047,0.6428,0.6713,0.6823,0.6994,0.716,0.7018,0.7074,0.7051,0.7093,0.7121,0.7165,0.7249,0.715,0.7197,-0.9855,0.0,0.0,0.0,0.0,-0.905,-0.9114,-0.9291,-0.9038,-0.8754,-0.8391,-0.8306,0.0,0.0,0.0,0.0,0.0,0.0,-0.5296,-0.5401,-0.499,-0.4838,-0.4876,-0.4661,-0.4553,-0.4494,-0.4389,-0.4334,-0.4324,-0.405,-0.3691,-0.3306,0.0,0.0,0.0,0.0,-0.34,-0.3685,-0.3877,-0.4019,-0.4019,-0.3686,-0.332,-0.2874,-0.1816,-0.108,-0.0743,-0.0243,-0.0,-0.0,-0.0,0.0,0.0,0.0,0.0,0.0,0.0,0.0,0.0,0.0,0.0,0.0,0.0,0.0,0.0,0.0,0.0,0.0,0.0,0.0,0.3108,0.3752,0.4192,0.0,0.0,0.0,0.0,0.0,0.0,0.0,0.0,0.0,0.3754,0.3965,0.4058,0.0,0.0,0.4239,0.4014,0.4216,0.4361,0.4284,0.4418,0.0,0.4377,0.4489,0.4591,0.4561,0.4876,0.5157,0.5303,0.5707,0.6013,0.6099,0.6398,0.6639,0.6657,0.7043,0.7284,0.7218,0.7159,0.7115,0.69,0.6876,0.6884,-1.1346,-1.0755,-1.0205,-0.9911,-0.9767,-0.9871,-1.0132,-1.0321,-0.989,-0.9549,-0.9248,-0.9015,-0.8656,-0.8219,-0.796,0.0,0.0,0.0,-0.5825,-0.5626,-0.5247,-0.5034,-0.5022,-0.4823,-0.4782,-0.4772,-0.4626,-0.4551,-0.4551,-0.4406,-0.4216,-0.3932,0.0,0.0,-0.3694,-0.3665,-0.3681,-0.3894,-0.4113,-0.4199,-0.4195,-0.3832,-0.3417,-0.2892,-0.1972,-0.1288,-0.0773,-0.0254,-0.0,-0.0,-0.0,-0.0,0.0,0.0,0.0,0.0,0.0,0.0,0.0,0.0,0.0,0.0,0.0,0.1802,0.0,0.0,0.0,0.0,0.3206,0.3206,0.3313,0.3639,0.0,0.0,0.0,0.0,0.0,0.0,0.0,0.3274,0.3269,0.3216,0.3111,0.3378,0.3565,0.3705,0.4026,0.4214,0.4172,0.0,0.4497,0.4466,0.4544,0.462,0.4474,0.4502,0.4562,0.4457,0.4621,0.48,0.4892,0.515,0.5415,0.5577,0.5821,0.6105,0.6349,0.6768,0.7106,0.7099,0.709,0.706,0.6923,0.6895,0.6933,-1.3092,-1.2914,-1.1868,-1.1127,-1.0692,-1.11,-1.1326,-1.1404,-1.0671,-1.0329,-1.0147,-0.9555,-0.9296,-0.9236,-0.8572,0.0,-0.7589,-0.7089,-0.6444,-0.5661,-0.5472,-0.5247,-0.4955,-0.4942,-0.4935,-0.4931,-0.4779,-0.4711,-0.4701,-0.4625,-0.4535,-0.4449,-0.409,-0.3808,-0.3752,-0.3971,-0.4092,-0.4108,-0.4338,-0.446,-0.446,-0.4073,-0.3572,-0.3014,-0.2279,-0.1549,-0.0908,-0.0363,-0.0,-0.0,-0.0,-0.0,-0.0,0.0,0.0,0.0,0.0,0.0,0.0,0.0,0.0,0.0,0.0,0.0,0.0,0.0,0.0,0.0,0.3427,0.0,0.3253,0.3125,0.0,0.0,0.0,0.3306,0.2971,0.2848,0.2725,0.2572,0.0,0.0,0.2438,0.2541,0.2847,0.3352,0.3839,0.4175,0.4175,0.4324,0.4385,0.4431,0.4446,0.44,0.4435,0.4412,0.4394,0.4439,0.4466,0.4542,0.4624,0.4714,0.4896,0.512,0.5325,0.5646,0.6119,0.6452,0.6631,0.692,0.697,0.7056,0.712,0.7161,0.7148,-1.3567,-1.3763,-1.3635,-1.277,-1.1565,-1.1839,-1.1992,-1.2061,-1.1391,-1.0989,-1.0775,-1.0635,-1.0327,-0.9834,-0.9131,-0.861,-0.8213,-0.7379,-0.6782,-0.6322,-0.5553,-0.5255,-0.5434,-0.5195,-0.5081,-0.507,-0.4935,-0.4863,-0.4863,-0.483,-0.4673,-0.4472,-0.4492,-0.4306,-0.3939,-0.3909,-0.3981,-0.4197,-0.4229,-0.4245,-0.4249,-0.4079,-0.3685,-0.3244,-0.2666,-0.1882,-0.0941,-0.0495,-0.0219,-0.0,-0.0,-0.0,-0.0,-0.0,0.0,0.0,0.0,0.0,0.0,0.0,0.0,0.0,0.0,0.1539,0.1857,0.0,0.2791,0.0,0.3031,0.2802,0.262,0.272,0.0,0.0,0.2626,0.2644,0.2538,0.2399,0.2258,0.2104,0.1994,0.1861,0.1748,0.2021,0.2405,0.2841,0.3488,0.3916,0.4022,0.4321,0.4551,0.4562,0.4598,0.4584,0.4462,0.4238,0.4125,0.4122,0.4221,0.4275,0.4321,0.4485,0.465,0.4938,0.5298,0.5686,0.6186,0.662,0.7046,0.7266,0.7172,0.7021,0.7021,0.7027,0.7118,-1.4573,-1.481,-1.5064,-1.4752,-1.3822,-1.3271,-1.2893,-1.2689,-1.2224,-1.185,-1.1557,-1.1303,-1.1002,-1.0631,-1.0212,-0.9762,-0.9267,-0.8345,-0.7637,-0.7096,-0.6089,-0.5666,-0.5823,-0.547,-0.5335,-0.5328,-0.5114,-0.5013,-0.4947,-0.4952,-0.4817,-0.467,-0.4733,-0.4616,-0.4226,-0.405,-0.4056,-0.419,-0.4304,-0.4356,-0.4356,-0.4135,-0.3799,-0.3416,-0.28,-0.2114,-0.1263,-0.0712,-0.0381,-0.0161,-0.0054,-0.0,-0.0,-0.0,0.0189,0.0,0.0,0.0,0.0,0.0,0.0,0.0,0.0,0.0,0.0,0.0,0.2436,0.2822,0.2687,0.2521,0.2331,0.2143,0.2044,0.1998,0.2027,0.2017,0.201,0.176,0.1581,0.1473,0.1275,0.1177,0.112,0.1456,0.1905,0.241,0.3032,0.3638,0.3961,0.4343,0.4556,0.4559,0.4576,0.4604,0.4509,0.4326,0.4219,0.4216,0.4268,0.4323,0.432,0.4419,0.4521,0.4821,0.516,0.5545,0.6126,0.6659,0.7098,0.7396,0.7425,0.741,0.7384,0.7315,0.7264,-1.57,-1.5728,-1.6166,-1.6388,-1.6395,-1.4888,-1.3899,-1.33,-1.2959,-1.2639,-1.2331,-1.1777,-1.1447,-1.1408,-1.1237,-1.0886,-1.0333,-0.9555,-0.8714,-0.7877,-0.6865,-0.6294,-0.609,-0.5748,-0.5616,-0.5603,-0.5325,-0.5186,-0.5186,-0.5043,-0.4965,-0.4948,-0.4948,-0.4807,-0.4539,-0.4365,-0.4228,-0.4193,-0.4408,-0.4463,-0.4463,-0.4187,-0.3858,-0.3583,-0.2912,-0.2263,-0.171,-0.0959,-0.0524,-0.0455,-0.0253,-0.01,-0.0,-0.0,0.0188,0.0,0.0647,0.0,0.0,0.0,0.0,0.0,0.0,0.0,0.0,0.169,0.2003,0.2371,0.2331,0.2184,0.199,0.1431,0.1177,0.1332,0.1369,0.1342,0.1396,0.1102,0.0841,0.0785,0.0505,0.0393,0.0505,0.0897,0.1402,0.2015,0.2621,0.3222,0.379,0.4233,0.4453,0.4463,0.4463,0.4512,0.4505,0.4505,0.4498,0.4453,0.4494,0.4463,0.4501,0.4456,0.453,0.4778,0.5042,0.5444,0.6121,0.6684,0.7126,0.759,0.7863,0.7955,0.7848,0.7695,0.7522,-1.5562,-1.5782,-1.6043,-1.6569,-1.7029,-1.5917,-1.4899,-1.3881,-1.3353,-1.2953,-1.2639,-1.2291,-1.1925,-1.1558,-1.1121,-1.0604,-1.0055,-1.0026,-0.9314,-0.8009,-0.7158,-0.6587,-0.6305,-0.5919,-0.5759,-0.5752,-0.5589,-0.5501,-0.5501,-0.5348,-0.5281,-0.5287,-0.5154,-0.4957,-0.4756,0.0,0.0,0.0,-0.4353,-0.4411,-0.4245,-0.4193,-0.3916,-0.3471,-0.3021,0.0,-0.1763,-0.1226,-0.089,-0.0658,-0.0623,0.0,0.0,0.0,0.0,0.0,0.0,0.0,0.0,0.0,0.0,0.0,0.0834,0.0946,0.1143,0.1148,0.1203,0.1421,0.1475,0.1226,0.0767,0.0605,0.055,0.0606,0.0609,0.0722,0.0945,0.095,0.0729,0.0224,-0.0,-0.0,-0.0,0.0617,0.1121,0.1567,0.2183,0.2854,0.3413,0.3968,0.4301,0.4463,0.4463,0.4463,0.4463,0.4463,0.4463,0.4463,0.4463,0.4463,0.4512,0.4498,0.458,0.4845,0.5097,0.5548,0.6347,0.6998,0.7501,0.8099,0.8417,0.8497,0.7995,0.7889,0.7769,-1.5862,0.0,-1.6264,-1.6593,0.0,-1.6153,-1.5436,-1.4892,-1.4115,-1.3526,-1.3015,-1.2725,-1.2361,-1.1904,-1.1396,-1.0833,-1.0319,-1.0566,-0.9761,-0.8088,-0.7278,-0.6767,-0.647,-0.6096,-0.5911,-0.5908,-0.5762,-0.5698,-0.5688,-0.5616,-0.5607,-0.5535,-0.546,-0.5352,-0.5075,-0.4865,-0.466,-0.4339,-0.4571,-0.4571,-0.4394,-0.4276,-0.3954,-0.3439,-0.3049,0.0,0.0,0.0,0.0,0.0,0.0,0.0,0.0,-0.0104,0.0,-0.0,0.0211,0.0426,0.0532,0.0541,0.0596,0.0586,0.0745,0.0798,0.0746,0.0703,0.071,0.082,0.0929,0.0936,0.0671,0.0393,0.0224,0.0224,0.0224,0.028,0.0449,0.0449,0.0336,-0.0,-0.0,-0.0,-0.0,0.0224,0.0672,0.1176,0.1736,0.2352,0.2968,0.3635,0.419,0.446,0.4463,0.4463,0.4463,0.4463,0.4463,0.4463,0.4463,0.4463,0.4463,0.4463,0.4574,0.4846,0.5117,0.5605,0.6426,0.7079,0.7676,0.8262,0.8586,0.8731,0.836,0.825,0.811,-1.613,-1.6123,-1.64,-1.6421,-1.6427,-1.5971,-1.5742,-1.5667,0.0,0.0,0.0,-1.2904,-1.2449,-1.1908,-1.1437,-1.0947,-1.0399,-1.0672,-0.9792,-0.8026,-0.7254,-0.6794,-0.6638,-0.628,-0.6132,-0.6098,-0.5952,-0.5871,-0.584,-0.5817,-0.58,-0.5728,-0.58,-0.5677,-0.5437,-0.5172,-0.4974,-0.4843,-0.4894,-0.4793,-0.4604,-0.4377,-0.4027,-0.3556,-0.3005,-0.2415,-0.1794,-0.1466,-0.1175,-0.0825,-0.0724,-0.0675,-0.0676,-0.0376,-0.011,-0.0,-0.0,0.0114,0.0285,0.0351,0.0353,0.04,0.0685,0.0786,0.0485,0.0386,0.0336,0.0336,0.0617,0.0729,0.0729,0.0336,-0.0,-0.0,-0.0,-0.0,-0.0,-0.0,-0.0,-0.0,-0.0,-0.0,-0.0,-0.0,0.0224,0.0841,0.1344,0.1903,0.2633,0.3469,0.4079,0.4356,0.4463,0.4463,0.4463,0.4463,0.4463,0.4463,0.4463,0.4463,0.4463,0.4463,0.4629,0.4846,0.5117,0.5605,0.6372,0.7085,0.7681,0.8268,0.8593,0.8804,0.8784,0.8617,0.8481,-1.5832,-1.5832,-1.592,-1.5927,-1.5933,-1.5792,-1.5631,-1.5357,-1.4599,-1.3762,-1.2978,-1.2523,-1.1881,-1.0945,-1.0493,-0.9989,-0.9437,-0.9528,-0.8941,-0.7931,-0.7111,-0.6788,-0.6958,-0.6695,-0.6536,-0.6407,-0.6342,-0.6125,-0.5996,-0.5867,-0.58,-0.5803,-0.5728,-0.5708,-0.5657,-0.5576,-0.5494,-0.5484,-0.5114,-0.4854,-0.4668,-0.4463,-0.4151,-0.3663,-0.3225,-0.2636,-0.1918,-0.1684,-0.1318,-0.0832,-0.0568,-0.0519,-0.0694,-0.0714,-0.0545,-0.0,-0.0,-0.0,-0.0,-0.0,0.0122,0.0366,0.0732,0.0893,0.0841,0.0335,0.0056,-0.0,-0.0,0.0112,0.0112,-0.0,-0.0,-0.0,-0.0,-0.0,-0.0,-0.0,-0.0,-0.0,-0.0,-0.0,-0.0,-0.0,0.0224,0.0729,0.1009,0.1456,0.2629,0.3522,0.4024,0.4249,0.4408,0.446,0.4463,0.4463,0.4463,0.4463,0.4463,0.4463,0.4463,0.4463,0.457,0.4846,0.5117,0.5555,0.6268,0.7031,0.7628,0.8109,0.854,0.8752,0.8804,0.8751,0.8651,-1.5825,-1.5825,-1.5825,-1.5825,-1.5825,-1.5825,-1.5665,-1.5384,-1.4747,-1.4039,-1.3278,-1.2735,-1.1991,-1.0915,-1.0196,-0.9478,-0.8906,-0.8652,-0.8111,-0.7432,-0.7105,-0.6861,-0.6861,-0.6702,-0.6664,-0.6593,-0.6532,-0.642,-0.6274,-0.6196,-0.6129,-0.6051,-0.5966,-0.5925,-0.5991,-0.5851,-0.5667,-0.5586,-0.5304,-0.5095,-0.4893,-0.476,-0.4472,-0.3969,-0.3539,-0.294,-0.2235,-0.1873,-0.132,-0.0592,-0.048,-0.0363,-0.0303,-0.0374,-0.0316,-0.0,-0.0,-0.0,-0.0,-0.0,0.0063,0.019,0.0312,0.0427,0.0415,0.0177,-0.0,-0.0,-0.0,-0.0,-0.0,-0.0,-0.0,-0.0,-0.0,-0.0,-0.0,-0.0,-0.0,-0.0,-0.0,-0.0,-0.0,-0.0,-0.0,0.0561,0.0785,0.1345,0.2517,0.3299,0.386,0.4138,0.4356,0.4463,0.4463,0.4463,0.4463,0.4463,0.4463,0.4463,0.4463,0.4463,0.457,0.4794,0.5011,0.5449,0.6159,0.681,0.7461,0.8115,0.8427,0.8692,0.8752,0.8804,0.8758,-1.5825,-1.5825,-1.5825,-1.5825,-1.5825,-1.5825,-1.5698,-1.5405,-1.5026,-1.4368,-1.3582,-1.2862,-1.1894,-1.0707,-0.9794,-0.9039,-0.839,-0.7971,-0.7588,-0.7154,-0.724,-0.7158,-0.6895,-0.6871,-0.6834,-0.68,-0.6766,-0.6675,-0.6539,-0.6522,-0.6468,-0.6274,-0.6207,-0.6132,-0.6284,-0.6019,-0.58,-0.5684,-0.5535,-0.5363,-0.5153,-0.5049,-0.4742,-0.4347,-0.388,-0.3333,-0.2643,-0.2139,-0.1447,-0.063,-0.0378,-0.0189,-0.0,-0.0,-0.0,-0.0,-0.0,-0.0,-0.0,-0.0,-0.0,-0.0,-0.0,-0.0,-0.0,-0.0,-0.0,-0.0,-0.0,-0.0,-0.0,-0.0,-0.0,-0.0,-0.0,-0.0,-0.0,-0.0,-0.0,-0.0,-0.0,-0.0,-0.0,-0.0,-0.0,0.0393,0.0785,0.1457,0.2296,0.3079,0.3691,0.4082,0.4356,0.4463,0.4463,0.4463,0.4463,0.4463,0.4463,0.4463,0.4463,0.4463,0.4519,0.4688,0.4959,0.534,0.5991,0.6647,0.7306,0.7895,0.8315,0.8633,0.8745,0.8745,0.8752,-1.5838,-1.5825,-1.5838,-1.5825,-1.5825,-1.5825,-1.5805,-1.569,-1.5317,-1.4584,-1.3809,-1.2384,-1.1247,-1.0088,-0.9204,-0.844,-0.7782,-0.7543,-0.7492,-0.7585,-0.7612,-0.7612,-0.7475,-0.7363,-0.7238,-0.7099,-0.6973,-0.6844,-0.6698,-0.6678,-0.6585,-0.6309,-0.6425,-0.6424,-0.6311,-0.6073,-0.6003,-0.5986,-0.5837,-0.563,-0.5376,-0.5209,-0.5008,-0.4743,-0.4268,-0.3666,-0.3129,-0.2536,-0.1802,-0.1068,-0.04,-0.0067,-0.0,-0.0,-0.0,-0.0,-0.0,-0.0,-0.0,-0.0,-0.0,-0.0,-0.0,-0.0,-0.0,-0.0,-0.0,-0.0,-0.0,-0.0,-0.0,-0.0,-0.0,-0.0,-0.0,-0.0,-0.0,-0.0,-0.0,-0.0,-0.0,-0.0,-0.0,-0.0,-0.0,0.0449,0.1122,0.1796,0.224,0.3074,0.3685,0.4021,0.4294,0.446,0.4463,0.4463,0.4463,0.4463,0.4463,0.4463,0.4463,0.4519,0.4519,0.4632,0.4908,0.5285,0.5773,0.6485,0.7139,0.7568,0.8096,0.8573,0.8626,0.8633,0.8639,-1.6246,-1.6099,-1.6092,-1.5985,-1.5838,-1.5825,-1.5825,-1.5737,-1.5267,-1.4727,-1.404,-1.2696,-1.1417,-1.0269,-0.9326,-0.8575,-0.8062,-0.7754,-0.7597,-0.7597,-0.7695,-0.7695,-0.759,-0.7539,-0.7472,-0.7404,-0.7261,-0.7112,-0.6953,-0.6787,-0.6615,-0.6526,-0.6634,-0.6478,-0.6304,-0.627,-0.6207,-0.6034,-0.5969,-0.5833,-0.564,-0.547,-0.5245,-0.4976,-0.4763,-0.4398,-0.3785,-0.3237,-0.2476,-0.1581,-0.0949,-0.0474,-0.0,-0.0,-0.0,-0.0,-0.0,-0.0,-0.0,-0.0,-0.0,-0.0,-0.0,-0.0,-0.0,-0.0,-0.0,-0.0,-0.0,-0.0,-0.0,-0.0,-0.0,-0.0,-0.0,-0.0,-0.0,-0.0,-0.0,-0.0,-0.0,-0.0,-0.0,0.0336,0.0561,0.0785,0.1347,0.1908,0.2352,0.3186,0.3741,0.4021,0.4298,0.4463,0.4463,0.4463,0.4463,0.4463,0.4463,0.4463,0.4463,0.4463,0.4519,0.4574,0.4794,0.5066,0.5391,0.6105,0.6815,0.7295,0.7943,0.8474,0.8474,0.8474,0.8527,-1.6587,-1.6393,-1.6195,-1.5996,-1.5832,-1.5825,-1.5825,-1.573,-1.5267,-1.479,-1.4202,-1.3044,-1.19,-1.0679,-0.9609,-0.8827,-0.823,-0.7889,-0.7723,-0.7719,-0.7723,-0.7723,-0.7716,-0.7672,-0.7658,-0.7638,-0.7506,-0.7373,-0.7251,-0.7065,-0.6926,-0.6803,-0.6844,-0.6746,-0.6518,-0.6525,-0.6366,-0.6173,-0.6115,-0.602,-0.5867,-0.5762,-0.5567,-0.5297,-0.5237,-0.4944,-0.4456,-0.389,-0.3109,-0.2191,-0.1527,-0.0902,-0.0212,-0.0071,-0.0,-0.0,-0.0,-0.0,-0.0,-0.0,-0.0,-0.0,-0.0,-0.0,-0.0,-0.0,-0.0,-0.0,-0.0,-0.0,-0.0,-0.0,-0.0,-0.0,-0.0,-0.0,-0.0,-0.0,-0.0,-0.0,-0.0,0.0059,0.0286,0.0734,0.1122,0.1122,0.1459,0.202,0.2519,0.3241,0.3799,0.4021,0.4298,0.4463,0.4463,0.4463,0.4463,0.4463,0.4463,0.4463,0.4463,0.4463,0.4463,0.4574,0.4739,0.4956,0.5285,0.5832,0.6598,0.7295,0.7889,0.8321,0.8321,0.8374,0.8421,-1.67,-1.6647,-1.6058,-1.5796,-1.5838,-1.5838,-1.5832,-1.5737,-1.5267,-1.4783,-1.4202,-1.3244,-1.2165,-1.1049,-0.9759,-0.8822,-0.8233,-0.8038,-0.7991,-0.7991,-0.8001,-0.8014,-0.8007,-0.7875,-0.7801,-0.779,-0.7655,-0.7573,-0.756,-0.7546,-0.7389,-0.7144,-0.7088,-0.7044,-0.697,-0.6713,-0.6471,-0.6413,-0.6308,-0.6176,-0.604,-0.601,-0.5928,-0.5728,-0.5578,-0.5297,-0.4939,-0.4359,-0.3706,-0.2982,-0.2029,-0.1161,-0.0582,-0.0146,-0.0,-0.0,-0.0,-0.0,-0.0,-0.0,-0.0,-0.0,-0.0,-0.0,-0.0,-0.0,-0.0,-0.0,-0.0,-0.0,-0.0,-0.0,-0.0,-0.0,-0.0,-0.0,-0.0,-0.0,-0.0,-0.0,-0.0,-0.0,0.0765,0.1373,0.1524,0.1518,0.1684,0.2076,0.274,0.3186,0.3577,0.4079,0.4356,0.4463,0.4463,0.4463,0.4463,0.4463,0.4463,0.4463,0.4463,0.4463,0.4463,0.4519,0.4629,0.4849,0.5124,0.5723,0.648,0.7187,0.7788,0.8168,0.8275,0.8321,0.8374,-1.7154,-1.6961,-1.6108,-1.5934,-1.6119,-1.5893,-1.5787,-1.5737,-1.5274,-1.479,-1.4106,-1.305,-1.1975,-1.0904,-0.9727,-0.9004,-0.8557,-0.8216,-0.8038,-0.8038,-0.8038,-0.8038,-0.8035,-0.798,-0.7957,-0.7936,-0.7807,-0.7689,-0.7604,-0.7597,-0.7573,-0.7409,-0.736,-0.7214,-0.7054,-0.6868,-0.6678,-0.6488,-0.6417,-0.6325,-0.6196,-0.6179,-0.6069,-0.5862,-0.5696,-0.543,-0.5061,-0.462,-0.4098,-0.3282,-0.2425,-0.1688,-0.097,-0.0379,-0.0,-0.0,-0.0,-0.0,-0.0,-0.0,-0.0,-0.0,-0.0,-0.0,-0.0,-0.0,-0.0,-0.0,-0.0,-0.0,-0.0,-0.0,-0.0,-0.0,-0.0,-0.0,-0.0,-0.0,-0.0,-0.0,-0.0,-0.0,0.0775,0.1225,0.1552,0.1693,0.1738,0.2183,0.2852,0.3408,0.3858,0.4138,0.4356,0.4463,0.4463,0.4463,0.4463,0.4463,0.4463,0.4463,0.4463,0.4463,0.4463,0.4519,0.4577,0.4743,0.5014,0.5614,0.6372,0.7025,0.7628,0.8008,0.8168,0.8268,0.8368,-1.7415,-1.7134,-1.659,-1.6447,-1.6426,-1.6183,-1.6025,-1.589,-1.5403,-1.4871,-1.4022,-1.2948,-1.1785,-1.0609,-0.9624,-0.9034,-0.863,-0.8237,-0.8038,-0.8038,-0.8038,-0.8038,-0.8038,-0.8038,-0.8038,-0.8024,-0.7936,-0.7831,-0.7756,-0.7743,-0.7716,-0.7756,-0.756,-0.7411,-0.7135,-0.6981,-0.6868,-0.6658,-0.6573,-0.6498,-0.6413,-0.6324,-0.6162,-0.5826,-0.559,-0.5343,-0.5039,-0.4733,-0.4204,-0.3431,-0.2784,-0.2031,-0.1149,-0.0545,-0.0156,-0.0154,-0.0,-0.0149,-0.0,-0.0,-0.0,-0.0,-0.0,-0.0,-0.0,-0.0,-0.0,-0.0,-0.0,-0.0,-0.0,-0.0,-0.0,-0.0,-0.0,-0.0,-0.0,-0.0,-0.0,-0.0,-0.0,-0.0,0.0549,0.0965,0.1359,0.1775,0.1863,0.2296,0.3077,0.3744,0.4132,0.4301,0.4411,0.4463,0.4519,0.4519,0.4522,0.4525,0.4463,0.4463,0.4463,0.4463,0.4519,0.4519,0.4574,0.4684,0.5014,0.5559,0.6213,0.6815,0.7359,0.7788,0.8002,0.8268,0.8368,-1.7422,-1.7298,-1.7497,-1.7204,-1.6734,-1.6707,-1.654,-1.6208,-1.5692,-1.4881,-1.3928,-1.2797,-1.1663,-1.0444,-0.9573,-0.8851,-0.8457,-0.8148,-0.8038,-0.8038,-0.8038,-0.8038,-0.8038,-0.8038,-0.8038,-0.8038,-0.8035,-0.8028,-0.8001,-0.7991,-0.7936,-0.7931,-0.7787,-0.753,-0.7093,-0.7128,-0.7068,-0.6902,-0.6763,-0.6692,-0.6698,-0.6423,-0.608,-0.567,-0.5242,-0.4981,-0.4945,-0.4543,-0.4073,-0.3446,-0.2973,-0.2195,-0.1095,-0.0706,-0.0628,-0.0703,-0.0614,-0.045,-0.0146,-0.0,-0.0,-0.0,-0.0,-0.0,-0.0,-0.0,-0.0,-0.0,-0.0,-0.0,-0.0,-0.0,-0.0,-0.0,-0.0,-0.0,-0.0,-0.0,-0.0,-0.0,-0.0,-0.0,-0.0,0.0565,0.116,0.1656,0.2002,0.2479,0.3406,0.4091,0.4438,0.4494,0.4541,0.4579,0.458,0.4525,0.4529,0.4532,0.4522,0.4463,0.4463,0.4463,0.4463,0.4519,0.4519,0.4629,0.4849,0.5395,0.5941,0.6539,0.7085,0.7628,0.8002,0.8268,0.8421,-1.7528,-1.7448,-1.756,-1.7392,-1.713,-1.7238,-1.6975,-1.6295,-1.5776,-1.4813,-1.3741,-1.2532,-1.1318,-1.0157,-0.9263,-0.8704,-0.8289,-0.8096,-0.8038,-0.8041,-0.8041,-0.8038,-0.8038,-0.8038,-0.8038,-0.8038,-0.8038,-0.8038,-0.8038,-0.8038,-0.8007,-0.796,-0.7862,-0.7716,-0.7436,-0.7373,-0.7187,-0.6953,-0.6885,-0.6729,-0.6469,-0.6376,-0.5954,-0.528,-0.5118,-0.4751,-0.3862,-0.3804,-0.3694,-0.3451,-0.3007,-0.2354,-0.1648,-0.1492,-0.1493,-0.1492,-0.1484,-0.146,-0.1274,-0.073,-0.0356,-0.0278,-0.0136,-0.0,-0.0,-0.0,-0.0,-0.0,-0.0,-0.0,-0.0,-0.0,-0.0,-0.0,-0.0,-0.0,-0.0,-0.0,-0.0,-0.0,-0.0,-0.0,-0.0,0.0447,0.0881,0.1462,0.1923,0.2512,0.348,0.4287,0.4716,0.4775,0.4775,0.4735,0.4701,0.4646,0.4606,0.4551,0.4501,0.4467,0.4463,0.4463,0.4463,0.4463,0.4463,0.4574,0.4849,0.523,0.5723,0.6263,0.6858,0.7402,0.7949,0.8268,0.8474,-1.7916,-1.7909,-1.7682,-1.7536,-1.7468,-1.7603,-1.7161,-1.64,-1.575,-1.4771,-1.3561,-1.2221,-1.0984,-0.9928,-0.9116,-0.866,-0.8433,-0.8194,-0.8126,-0.8109,-0.8055,-0.8041,-0.8038,-0.8038,-0.8038,-0.8038,-0.8038,-0.8038,-0.8038,-0.8038,-0.8038,-0.8018,-0.7943,-0.7824,-0.7773,-0.7529,-0.7329,-0.7119,-0.7034,-0.6791,-0.6462,-0.6184,-0.5667,-0.4984,-0.4734,-0.4134,-0.3183,-0.3034,-0.3058,-0.3167,-0.3018,-0.2668,-0.2196,-0.2199,-0.22,-0.2121,-0.2117,-0.2097,-0.2049,-0.1565,-0.109,-0.0916,-0.0621,-0.0,-0.0,-0.0,-0.0,-0.0,-0.0,-0.0,-0.0,-0.0,-0.0,-0.0,-0.0,-0.0,-0.0,-0.0,-0.0,-0.0,-0.0,-0.0,-0.0,0.0328,0.0778,0.1381,0.1777,0.2383,0.3399,0.4448,0.4761,0.491,0.4823,0.4807,0.4894,0.4836,0.4755,0.465,0.4545,0.4494,0.4463,0.4463,0.4463,0.4463,0.4463,0.4574,0.4794,0.5014,0.5454,0.6046,0.6696,0.7241,0.7836,0.8268,0.8474,-1.8484,-1.8457,-1.7945,-1.7807,-1.7963,-1.7722,-1.7239,-1.6588,-1.5725,-1.4556,-1.3246,-1.1898,-1.0632,-0.9785,-0.905,-0.8709,-0.8472,-0.8347,-0.8279,-0.8238,-0.8147,-0.8069,-0.8041,-0.8038,-0.8038,-0.8038,-0.8038,-0.8038,-0.8038,-0.8038,-0.8038,-0.8035,-0.8021,-0.7957,-0.7897,-0.7767,-0.7533,-0.737,-0.7138,-0.6976,-0.67,-0.6062,-0.5349,-0.4632,-0.4101,-0.3568,-0.2846,-0.2356,-0.2292,-0.2864,-0.311,-0.3074,-0.2912,-0.2907,-0.2826,-0.2668,-0.2588,-0.2639,-0.2592,-0.2491,-0.2225,-0.1784,-0.134,-0.0834,-0.0,-0.0,-0.0,-0.0,-0.0,-0.0,-0.0,-0.0,-0.0,-0.0,-0.0,-0.0,-0.0,-0.0,-0.0,-0.0,-0.0,-0.0,-0.0,-0.0,0.0729,0.1307,0.157,0.2131,0.3251,0.4235,0.4845,0.4988,0.4974,0.504,0.5077,0.4986,0.4908,0.4833,0.468,0.4541,0.4473,0.4463,0.4463,0.4463,0.4519,0.4574,0.4684,0.4959,0.5285,0.5882,0.648,0.7128,0.767,0.815,0.848,-1.8497,-1.8484,-1.8527,-1.8257,-1.7948,-1.7727,-1.7109,-1.6337,-1.5252,-1.4008,-1.2675,-1.1406,-1.0313,-0.9457,-0.9019,-0.8759,-0.8615,-0.8496,-0.8428,-0.8401,-0.8275,-0.8143,-0.8058,-0.8038,-0.8038,-0.8038,-0.8038,-0.8038,-0.8038,-0.8038,-0.8038,-0.8038,-0.8035,-0.7967,-0.7921,-0.787,-0.7682,-0.7539,-0.7207,-0.6863,-0.6391,-0.5771,-0.4924,-0.3942,-0.3676,-0.3139,-0.233,-0.2022,-0.2318,-0.3172,-0.3339,-0.3698,-0.3932,-0.3722,-0.361,-0.3602,-0.3524,-0.3444,-0.3411,-0.3282,-0.3004,-0.2674,-0.2108,-0.1436,-0.0858,-0.0285,-0.0,-0.0,-0.0,-0.0,-0.0,-0.0,-0.0,-0.0,-0.0,-0.0,-0.0,-0.0,-0.0,-0.0,-0.0,-0.0,-0.0,-0.0,-0.0,0.0999,0.1333,0.174,0.3023,0.4194,0.495,0.5101,0.5127,0.5254,0.523,0.5135,0.506,0.5009,0.484,0.4602,0.4524,0.4463,0.4463,0.4463,0.4463,0.4519,0.4625,0.4791,0.5281,0.5773,0.6317,0.6966,0.761,0.8203,0.8474,-1.8512,-1.8505,-1.8645,-1.8419,-1.7786,-1.7322,-1.6667,-1.5815,-1.4702,-1.3516,-1.2209,-1.1017,-1.0147,-0.9368,-0.8951,-0.8808,-0.8788,-0.8648,-0.8581,-0.8554,-0.8428,-0.8245,-0.8089,-0.8038,-0.8038,-0.8038,-0.8038,-0.8038,-0.8038,-0.8038,-0.8038,-0.8038,-0.8038,-0.7991,-0.8021,-0.7834,-0.7777,-0.758,-0.7266,-0.6817,-0.616,-0.5405,-0.4544,-0.3624,-0.3247,-0.2512,-0.1612,-0.1773,-0.2355,-0.3071,-0.3671,-0.4183,-0.4542,-0.4569,-0.4508,-0.4467,-0.4382,-0.4307,-0.4297,-0.4167,-0.3893,-0.3553,-0.2976,-0.2281,-0.1604,-0.0874,-0.0438,-0.0,-0.0,-0.0,-0.0,-0.0,-0.0,-0.0,-0.0,-0.0,-0.0,-0.0,-0.0,-0.0,-0.0,-0.0,-0.0,-0.0,-0.0,0.0739,0.1006,0.1813,0.288,0.4028,0.4837,0.5046,0.5239,0.5342,0.5384,0.5243,0.5142,0.5094,0.4979,0.4735,0.4585,0.4501,0.4522,0.4522,0.4463,0.4519,0.4625,0.4791,0.5171,0.5664,0.6209,0.6853,0.7605,0.8143,0.8474,-1.8305,-1.8279,-1.8544,-1.8139,-1.7458,-1.6637,-1.594,-1.516,-1.4051,-1.2866,-1.1782,-1.0692,-0.9816,-0.9375,-0.9027,-0.893,-0.8923,-0.8788,-0.8726,-0.8665,-0.8554,-0.8374,-0.8153,-0.8102,-0.8092,-0.8079,-0.8055,-0.8038,-0.8038,-0.8038,-0.8038,-0.8038,-0.8038,-0.8038,-0.7997,-0.7906,-0.7845,-0.7717,-0.7311,-0.667,-0.5889,-0.4957,-0.4162,-0.34,-0.2533,-0.1796,-0.1256,-0.161,-0.2399,-0.2707,-0.3925,-0.4506,-0.4663,-0.5208,-0.5286,-0.511,-0.5007,-0.5007,-0.5007,-0.4996,-0.4804,-0.4346,-0.3949,-0.331,-0.2227,-0.1556,-0.0896,-0.0228,-0.0076,-0.0,-0.0,-0.0,-0.0,-0.0,-0.0,-0.0,-0.0,-0.0,-0.0,-0.0,-0.0,-0.0,-0.0,0.0067,0.0269,0.074,0.1077,0.1758,0.2929,0.4127,0.4722,0.4889,0.5145,0.5389,0.5439,0.5411,0.524,0.5152,0.5057,0.4874,0.468,0.4579,0.4563,0.4529,0.4522,0.4519,0.4574,0.4846,0.5183,0.5723,0.6322,0.702,0.7664,0.8096,0.8474,-1.7941,-1.7707,-1.7787,-1.7473,-1.6824,-1.6157,-1.5331,-1.439,-1.298,-1.1891,-1.0911,-1.0036,-0.9375,-0.9047,-0.894,-0.8937,-0.8937,-0.8886,-0.8835,-0.8706,-0.8689,-0.8564,-0.8387,-0.8289,-0.8225,-0.8191,-0.8092,-0.8045,-0.8041,-0.8038,-0.8038,-0.8038,-0.8038,-0.8038,-0.8028,-0.8004,-0.7892,-0.7575,-0.7064,-0.6418,-0.562,-0.4581,-0.366,-0.2963,-0.2089,-0.1348,-0.1077,-0.1615,-0.2417,-0.2928,-0.3749,-0.4605,-0.5178,-0.5499,-0.5633,-0.568,-0.5565,-0.5485,-0.5482,-0.5476,-0.5312,-0.4886,-0.4411,-0.3799,-0.2709,-0.2079,-0.1391,-0.0623,-0.0,-0.0,-0.0,-0.0,-0.0,-0.0,-0.0,-0.0,-0.0,-0.0,-0.0,-0.0,-0.0,-0.0,-0.0,-0.0,0.081,0.0942,0.1353,0.1771,0.2971,0.4292,0.4766,0.5005,0.5261,0.5515,0.542,0.5456,0.5298,0.523,0.5145,0.5036,0.484,0.4718,0.467,0.4572,0.4463,0.4532,0.464,0.4934,0.5274,0.5859,0.6436,0.7133,0.7723,0.8156,0.8474,-1.6649,-1.6543,-1.6414,-1.6326,-1.6115,-1.5377,-1.433,-1.3257,-1.2142,-1.1126,-1.0253,-0.9599,-0.9268,-0.8937,-0.8937,-0.8937,-0.8937,-0.8937,-0.8899,-0.8828,-0.8815,-0.8774,-0.8689,-0.8537,-0.8425,-0.8292,-0.8194,-0.8119,-0.8062,-0.8041,-0.8038,-0.8038,-0.8038,-0.8038,-0.8038,-0.8038,-0.7839,-0.7534,-0.6982,-0.6344,-0.5342,-0.4285,-0.2945,-0.214,-0.1373,-0.0907,-0.0808,-0.1705,-0.2511,-0.3127,-0.3894,-0.4704,-0.5474,-0.5892,-0.6175,-0.6159,-0.612,-0.6006,-0.5973,-0.587,-0.5712,-0.5321,-0.4929,-0.4148,-0.3214,-0.243,-0.1569,-0.0785,-0.0,-0.0,-0.0,-0.0,-0.0,-0.0,-0.0,-0.0,-0.0,-0.0,-0.0,-0.0,-0.0,-0.0,-0.0,0.1161,0.1443,0.1585,0.2359,0.2795,0.3266,0.4467,0.5042,0.5374,0.556,0.5637,0.5504,0.542,0.5411,0.5301,0.527,0.5165,0.5023,0.4931,0.486,0.4745,0.4629,0.4673,0.4815,0.5103,0.5473,0.6023,0.6652,0.7241,0.783,0.8262,0.8533,-1.4992,-1.5235,-1.4873,-1.5006,-1.5162,-1.4073,-1.3154,-1.2163,-1.1317,-1.0468,-0.9816,-0.9489,-0.9158,-0.894,-0.8937,-0.8937,-0.8937,-0.8937,-0.892,-0.8916,-0.891,-0.8903,-0.8859,-0.876,-0.8608,-0.8353,-0.8272,-0.8191,-0.8109,-0.8048,-0.8038,-0.8038,-0.8038,-0.8038,-0.8038,-0.7939,-0.7839,-0.7441,-0.7033,-0.6323,-0.522,-0.416,-0.2905,-0.1417,-0.1204,-0.1101,-0.1267,-0.198,-0.278,-0.3315,-0.4206,-0.4963,-0.5602,-0.6313,-0.6814,-0.6522,-0.6481,-0.6331,-0.6329,-0.6285,-0.6028,-0.564,-0.5243,-0.446,-0.3522,-0.2665,-0.1804,-0.0942,-0.0,-0.0,-0.0,-0.0,-0.0,-0.0,-0.0,-0.0,-0.0,-0.0,-0.0,-0.0,-0.0,-0.0,0.0972,0.1678,0.1967,0.2332,0.3132,0.3737,0.416,0.4724,0.5325,0.5593,0.5706,0.5715,0.5576,0.5508,0.5426,0.5422,0.5415,0.5277,0.5186,0.5142,0.5057,0.4931,0.4903,0.4928,0.5155,0.5485,0.5906,0.6289,0.6869,0.7509,0.799,0.8362,0.8625,-1.3794,-1.3564,-1.32,-1.3333,-1.3386,-1.2578,-1.192,-1.1397,-1.0437,-0.9816,-0.9489,-0.9161,-0.8937,-0.8937,-0.8937,-0.8937,-0.8937,-0.8937,-0.8937,-0.8937,-0.8937,-0.8937,-0.8923,-0.8893,-0.8784,-0.8615,-0.8431,-0.8279,-0.8197,-0.8109,-0.8062,-0.8045,-0.8038,-0.8038,-0.8038,-0.7939,-0.7736,-0.7341,-0.6945,-0.6242,-0.5331,-0.441,-0.3268,-0.1738,-0.1794,-0.195,-0.2114,-0.2718,-0.3229,-0.3585,-0.4656,-0.5447,-0.5937,-0.6471,-0.6678,-0.6695,-0.6573,-0.6505,-0.652,-0.641,-0.6122,-0.5718,-0.5323,-0.4538,-0.3602,-0.2823,-0.2119,-0.1257,-0.0,-0.0,-0.0,-0.0,-0.0,-0.0,-0.0,-0.0,-0.0,-0.0,-0.0,-0.0,-0.0,0.0286,0.1142,0.1861,0.2311,0.2693,0.3306,0.3997,0.4492,0.515,0.5802,0.5907,0.5848,0.5745,0.563,0.5589,0.5528,0.549,0.5456,0.5439,0.5311,0.5387,0.5315,0.5161,0.5178,0.524,0.552,0.591,0.6404,0.6894,0.7362,0.7806,0.828,0.8773,0.8895,-1.2595,-1.2479,-1.2118,-1.2145,-1.2329,-1.1653,-1.0772,-1.0032,-0.9661,-0.9379,-0.9158,-0.8937,-0.8937,-0.8937,-0.8937,-0.8937,-0.8937,-0.8937,-0.8937,-0.8937,-0.8937,-0.8937,-0.8937,-0.8937,-0.8903,-0.8788,-0.8604,-0.8401,-0.8279,-0.8201,-0.8113,-0.8048,-0.8038,-0.8038,-0.8038,-0.7939,-0.7739,-0.7441,-0.6942,-0.6442,-0.5641,-0.4736,-0.3592,-0.284,-0.2701,-0.2946,-0.3004,-0.3173,-0.3592,-0.411,-0.4913,-0.5692,-0.6171,-0.6634,-0.688,-0.6834,-0.6739,-0.6661,-0.6668,-0.6461,-0.6301,-0.5972,-0.5445,-0.4776,-0.407,-0.329,-0.2431,-0.1413,-0.0,-0.0,-0.0,-0.0,-0.0,-0.0,-0.0,-0.0,-0.0,-0.0,-0.0,-0.0,-0.0,0.0438,0.1165,0.1903,0.2446,0.3071,0.363,0.4265,0.483,0.5475,0.6133,0.609,0.6013,0.5889,0.5789,0.5725,0.5623,0.5504,0.5507,0.549,0.5446,0.5425,0.5391,0.5298,0.5336,0.5575,0.5898,0.6328,0.6878,0.7528,0.8,0.8477,0.882,0.9075,0.92,-1.1514,-1.1514,-1.1152,-1.1187,-1.1272,-1.0728,-0.9971,-0.9123,-0.9213,-0.9158,-0.8937,-0.8937,-0.8937,-0.8937,-0.8937,-0.8937,-0.8937,-0.8937,-0.8937,-0.8937,-0.8937,-0.8937,-0.8937,-0.8937,-0.8927,-0.8896,-0.8808,-0.8601,-0.837,-0.8272,-0.8177,-0.8079,-0.8038,-0.8038,-0.8038,-0.8038,-0.7842,-0.7543,-0.7244,-0.6645,-0.5939,-0.5231,-0.4403,-0.3744,-0.3828,-0.3981,-0.403,-0.3992,-0.4145,-0.4654,-0.5262,-0.5946,-0.64,-0.689,-0.6997,-0.699,-0.6946,-0.6858,-0.6753,-0.6607,-0.6425,-0.6138,-0.5732,-0.5126,-0.4462,-0.3602,-0.2743,-0.1648,-0.0,-0.0,-0.0,-0.0,-0.0,-0.0,-0.0,-0.0,-0.0,-0.0,-0.0,-0.0,-0.0,0.0598,0.1273,0.2106,0.2741,0.3355,0.3925,0.4627,0.5197,0.5668,0.6157,0.622,0.6166,0.6084,0.5973,0.5888,0.5745,0.5569,0.5518,0.5494,0.5423,0.5428,0.5394,0.537,0.5629,0.5883,0.6293,0.6782,0.7446,0.8056,0.8658,0.9053,0.9233,0.9418,0.9522,-1.0425,-1.0425,-1.0186,-0.9985,-1.0073,-0.9792,-0.9401,-0.9014,-0.8991,-0.8937,-0.8937,-0.8937,-0.8937,-0.8937,-0.8937,-0.8937,-0.8937,-0.8937,-0.8937,-0.8937,-0.8937,-0.8937,-0.8937,-0.8937,-0.8937,-0.8923,-0.8899,-0.8737,-0.8482,-0.833,-0.8191,-0.8072,-0.8038,-0.8038,-0.8038,-0.8038,-0.7839,-0.7646,-0.7547,-0.7144,-0.6439,-0.6039,-0.5527,-0.5198,-0.4948,-0.4901,-0.4975,-0.4829,-0.4959,-0.531,-0.5874,-0.6276,-0.6593,-0.6936,-0.7061,-0.7082,-0.701,-0.6919,-0.697,-0.6846,-0.6552,-0.6234,-0.5987,-0.543,-0.4742,-0.3841,-0.2978,-0.2118,-0.1412,-0.0785,-0.0314,-0.0,-0.0,-0.0,-0.0,-0.0,-0.0,-0.0,-0.0,-0.0,-0.0,0.0772,0.1396,0.2257,0.3047,0.3593,0.4217,0.4849,0.5479,0.5867,0.6177,0.624,0.6307,0.6159,0.6118,0.6037,0.5901,0.5688,0.5647,0.5596,0.5488,0.5483,0.5439,0.5488,0.5826,0.621,0.6599,0.7149,0.7923,0.8527,0.9084,0.9366,0.9608,0.9733,0.9873,-1.0061,-0.994,-0.9822,-0.981,-0.9728,-0.9528,-0.9245,-0.8937,-0.8967,-0.8937,-0.8937,-0.8937,-0.8937,-0.8937,-0.8937,-0.8937,-0.8937,-0.8937,-0.8937,-0.8937,-0.8937,-0.8937,-0.8937,-0.8937,-0.8937,-0.891,-0.8838,-0.8689,-0.8506,-0.8401,-0.8279,-0.8065,-0.8038,-0.8038,-0.8038,-0.8038,-0.7942,-0.7842,-0.7643,-0.7344,-0.6939,-0.6739,-0.6542,-0.6145,-0.5986,-0.5768,-0.5652,-0.5438,-0.5565,-0.5914,-0.6317,-0.6596,-0.686,-0.7121,-0.7241,-0.7136,-0.7088,-0.7051,-0.7031,-0.6909,-0.6719,-0.6556,-0.6312,-0.5885,-0.5132,-0.4342,-0.3528,-0.2899,-0.2195,-0.1491,-0.0785,-0.0314,-0.0,-0.0,-0.0,-0.0,-0.0,-0.0,-0.0,-0.0,0.055,0.11,0.1572,0.2354,0.3132,0.383,0.4375,0.5082,0.5631,0.6022,0.618,0.6257,0.6247,0.623,0.6207,0.6162,0.6074,0.5915,0.5874,0.5789,0.5586,0.5494,0.5514,0.5656,0.5958,0.6412,0.6863,0.7534,0.8202,0.8857,0.9451,0.9714,0.998,1.0154,1.0274,-0.9798,-0.9768,-0.9768,-0.9741,-0.9743,-0.9463,-0.9178,-0.8957,-0.894,-0.8937,-0.8937,-0.8937,-0.8937,-0.8937,-0.8937,-0.8937,-0.8937,-0.8937,-0.8937,-0.8937,-0.8937,-0.8937,-0.8937,-0.8937,-0.8916,-0.8886,-0.8781,-0.8611,-0.8476,-0.8387,-0.8269,-0.8048,-0.8038,-0.8038,-0.8038,-0.8038,-0.7939,-0.7939,-0.7842,-0.764,-0.7437,-0.7437,-0.7238,-0.6942,-0.6739,-0.6437,-0.6242,-0.5929,-0.6075,-0.6331,-0.6551,-0.6828,-0.7076,-0.723,-0.7319,-0.7221,-0.7163,-0.7122,-0.7099,-0.7034,-0.6976,-0.6806,-0.6622,-0.6135,-0.565,-0.4967,-0.427,-0.3489,-0.2671,-0.2043,-0.1414,-0.0707,-0.0,-0.0,-0.0,-0.0,-0.0,-0.0,-0.0,-0.0,0.1021,0.1335,0.1885,0.2511,0.3292,0.399,0.4613,0.5315,0.5709,0.618,0.6257,0.6261,0.6257,0.6254,0.6247,0.622,0.6152,0.6108,0.6064,0.5949,0.5725,0.5658,0.5593,0.5801,0.6125,0.6548,0.7003,0.7782,0.849,0.9064,0.9655,1.004,1.0368,1.0561,1.0618,-0.9744,-0.9625,-0.9622,-0.9645,-0.9722,-0.9346,-0.9083,-0.894,-0.8937,-0.8937,-0.8937,-0.8937,-0.8937,-0.8937,-0.8937,-0.8937,-0.8937,-0.8937,-0.8937,-0.8937,-0.8937,-0.8937,-0.8937,-0.8923,-0.8872,-0.876,-0.8686,-0.853,-0.8347,-0.8289,-0.8184,-0.8062,-0.8041,-0.8038,-0.8038,-0.8038,-0.8038,-0.8038,-0.7939,-0.7939,-0.7839,-0.7839,-0.7739,-0.754,-0.7241,-0.7039,-0.6742,-0.6439,-0.6431,-0.6804,-0.6929,-0.7143,-0.7314,-0.7449,-0.7424,-0.7316,-0.7231,-0.7177,-0.7132,-0.7112,-0.7058,-0.6843,-0.6638,-0.6383,-0.6016,-0.5328,-0.4625,-0.3885,-0.3045,-0.2381,-0.1739,-0.1102,-0.0477,-0.0,-0.0,-0.0,-0.0,-0.0,-0.0,-0.0,0.1415,0.1811,0.2296,0.3011,0.3536,0.4233,0.5004,0.5709,0.5944,0.6257,0.6257,0.6261,0.6261,0.6257,0.6257,0.6224,0.619,0.6152,0.6108,0.5993,0.5833,0.5799,0.5807,0.601,0.634,0.6743,0.7204,0.7982,0.8759,0.9262,0.9779,1.0174,1.0434,1.0555,1.0618,-1.0073,-1.0273,-1.0181,-0.9871,-0.9578,-0.9518,-0.929,-0.8944,-0.8937,-0.8937,-0.8937,-0.8937,-0.8937,-0.8937,-0.8937,-0.8937,-0.8937,-0.8937,-0.8937,-0.8937,-0.8937,-0.8937,-0.8937,-0.8916,-0.8862,-0.8716,-0.8618,-0.8482,-0.8292,-0.8191,-0.8116,-0.8052,-0.8038,-0.8038,-0.8038,-0.8038,-0.8038,-0.8038,-0.8038,-0.8038,-0.8038,-0.8038,-0.7939,-0.7839,-0.7543,-0.7341,-0.7039,-0.6939,-0.6939,-0.7027,-0.7285,-0.7423,-0.7544,-0.759,-0.7553,-0.7417,-0.7319,-0.7244,-0.7071,-0.7146,-0.7109,-0.7058,-0.6843,-0.658,-0.632,-0.5699,-0.4894,-0.4127,-0.3451,-0.2688,-0.1886,-0.1313,-0.0,-0.0,-0.0,-0.0,-0.0,-0.0,-0.0,-0.0,0.1826,0.2296,0.2869,0.3449,0.3968,0.4479,0.5329,0.6022,0.618,0.6261,0.6261,0.6261,0.6261,0.6261,0.6261,0.6247,0.6234,0.6196,0.6156,0.6139,0.611,0.6086,0.6147,0.6327,0.6695,0.7154,0.7749,0.8338,0.8888,0.946,0.9786,1.011,1.0371,1.0555,1.0618,-1.0492,-1.0902,-1.1009,-1.0502,-0.9702,-0.9887,-0.9579,-0.9265,-0.9261,-0.9154,-0.9047,-0.894,-0.8937,-0.8937,-0.8937,-0.8937,-0.8937,-0.8937,-0.8937,-0.8937,-0.8937,-0.8937,-0.8937,-0.8906,-0.8832,-0.8669,-0.854,-0.8401,-0.8184,-0.8089,-0.8055,-0.8045,-0.8038,-0.8038,-0.8038,-0.8038,-0.8038,-0.8038,-0.8038,-0.8038,-0.8038,-0.8038,-0.8038,-0.7939,-0.7743,-0.7543,-0.7341,-0.7238,-0.7238,-0.7341,-0.7521,-0.7684,-0.7808,-0.7814,-0.7699,-0.7567,-0.7352,-0.7272,-0.7161,-0.7071,-0.7146,-0.7105,-0.697,-0.6737,-0.6347,-0.5829,-0.4831,-0.398,-0.346,-0.2862,-0.1856,-0.1341,-0.0836,-0.0,-0.0,-0.0,-0.0,-0.0,-0.0,0.1296,0.2021,0.2838,0.3575,0.4175,0.4864,0.5212,0.5732,0.6169,0.618,0.6261,0.6261,0.6261,0.6261,0.6261,0.6257,0.6328,0.6325,0.6318,0.628,0.6416,0.6424,0.6536,0.6748,0.7149,0.7451,0.7749,0.8225,0.8805,0.9192,0.9524,0.9913,1.0308,1.0434,1.0618,1.0618,-1.1232,-1.1293,-1.1944,-1.1492,-1.0455,-1.0544,-1.0366,-1.0135,-1.0143,-0.9926,-0.9379,-0.9047,-0.8937,-0.8937,-0.8937,-0.8937,-0.8937,-0.8937,-0.8937,-0.8937,-0.8937,-0.8937,-0.893,-0.8896,-0.8764,-0.855,-0.8438,-0.8306,-0.8069,-0.8052,-0.8038,-0.8038,-0.8038,-0.8038,-0.8038,-0.8038,-0.8038,-0.8038,-0.8038,-0.8038,-0.8038,-0.8038,-0.8038,-0.7939,-0.7842,-0.7643,-0.754,-0.7437,-0.7437,-0.7543,-0.7643,-0.7723,-0.7898,-0.7798,-0.7714,-0.7661,-0.7354,-0.7147,-0.7018,-0.7052,-0.6989,-0.6969,-0.6747,-0.6486,-0.6036,-0.5352,-0.459,-0.364,-0.3088,-0.2376,-0.1691,-0.1185,-0.0594,-0.0,-0.0,-0.0,-0.0,0.0999,0.1488,0.181,0.2579,0.3441,0.4189,0.4934,0.5717,0.6153,0.6331,0.6413,0.6318,0.6261,0.6261,0.6261,0.6261,0.6261,0.6261,0.6338,0.6335,0.6335,0.6479,0.6685,0.6954,0.7195,0.7472,0.7947,0.8288,0.8567,0.8918,0.9265,0.9645,0.9957,1.0244,1.0555,1.0555,1.0618,1.0618,-1.2167,-1.265,-1.3078,-1.284,-1.2265,-1.1695,-1.1686,-1.1923,-1.1029,-1.0253,-0.9706,-0.9379,-0.9047,-0.8937,-0.8937,-0.8937,-0.8937,-0.8937,-0.8937,-0.8937,-0.8937,-0.8937,-0.8916,-0.8821,-0.8679,-0.8506,-0.8391,-0.8258,-0.8045,-0.8038,-0.8038,-0.8038,-0.8038,-0.8038,-0.8038,-0.8038,-0.8038,-0.8038,-0.8038,-0.8038,-0.8038,-0.8038,-0.8038,-0.8038,-0.7842,-0.7743,-0.7643,-0.764,-0.764,-0.7643,-0.7746,-0.7842,-0.7939,-0.7858,-0.7622,-0.7459,-0.7065,-0.6625,-0.6406,-0.6374,-0.643,-0.6477,-0.6435,-0.6083,-0.5625,-0.4896,-0.4168,-0.3542,-0.2987,-0.2273,-0.1584,-0.0792,-0.0,-0.0,-0.0,-0.0,0.0943,0.1862,0.2515,0.2508,0.3026,0.417,0.5127,0.5582,0.632,0.6499,0.6599,0.6532,0.6417,0.6305,0.6261,0.6261,0.6261,0.6261,0.6338,0.6416,0.649,0.6563,0.6795,0.7173,0.7435,0.7769,0.8295,0.8778,0.9145,0.9411,0.973,0.9971,1.0179,1.0469,1.0551,1.0631,1.0618,1.0618,1.0618,-1.3317,-1.3846,-1.418,-1.4174,-1.3777,-1.3068,-1.3004,-1.3024,-1.1796,-1.0802,-1.0253,-0.9816,-0.9379,-0.9158,-0.894,-0.8937,-0.8937,-0.8937,-0.8937,-0.8937,-0.8937,-0.8899,-0.8832,-0.8747,-0.8598,-0.8442,-0.8319,-0.8191,-0.8045,-0.8038,-0.8038,-0.8038,-0.8038,-0.8038,-0.8038,-0.8038,-0.8038,-0.8038,-0.8038,-0.8038,-0.8038,-0.8038,-0.8038,-0.8038,-0.7939,-0.7942,-0.7842,-0.7842,-0.7942,-0.7842,-0.7842,-0.7939,-0.7842,-0.773,-0.7397,-0.7033,-0.6466,-0.5935,-0.5658,-0.5469,-0.5475,-0.5608,-0.5697,-0.546,-0.5013,-0.438,-0.3758,-0.3224,-0.2964,-0.2332,-0.1434,-0.0,-0.0,-0.0,-0.0,-0.0,0.1226,0.2162,0.2931,0.3004,0.3599,0.4849,0.5924,0.6325,0.6873,0.6873,0.6871,0.6698,0.6525,0.6396,0.6291,0.6281,0.6271,0.6345,0.6342,0.649,0.6563,0.6714,0.7099,0.7561,0.8165,0.8576,0.9105,0.9627,0.9991,1.0249,1.0522,1.0712,1.0673,1.0626,1.0641,1.0665,1.0631,1.0618,1.0618,-1.4482,-1.499,-1.5275,-1.5275,-1.491,-1.4506,-1.4019,-1.331,-1.2441,-1.1782,-1.1126,-1.0253,-0.971,-0.9375,-0.9047,-0.8923,-0.8903,-0.8906,-0.8886,-0.8882,-0.8842,-0.8788,-0.8723,-0.8652,-0.8496,-0.8353,-0.8235,-0.8153,-0.8045,-0.8038,-0.8038,-0.8038,-0.8038,-0.8038,-0.8038,-0.8038,-0.8038,-0.8038,-0.8038,-0.8038,-0.8038,-0.8038,-0.8038,-0.8038,-0.7939,-0.7939,-0.7939,-0.7939,-0.7939,-0.7939,-0.7939,-0.7839,-0.7643,-0.7547,-0.7042,-0.6307,-0.5438,-0.5016,-0.4694,-0.462,-0.4581,-0.4624,-0.478,-0.4433,-0.4148,-0.3721,-0.3179,-0.2717,-0.2442,-0.1981,-0.0,-0.0,-0.0,-0.0,-0.0,0.0715,0.1341,0.2137,0.2938,0.3462,0.4339,0.5328,0.6295,0.6871,0.7041,0.7001,0.6983,0.6858,0.6678,0.6478,0.6383,0.6318,0.6383,0.6359,0.6426,0.6567,0.6868,0.7099,0.7633,0.8169,0.8703,0.9382,0.9932,1.0444,1.0846,1.1112,1.1185,1.107,1.0996,1.0895,1.0657,1.0608,1.0561,1.0555,1.0618,-1.4978,-1.5374,-1.5632,-1.5757,-1.571,-1.5869,-1.5455,-1.4476,-1.3846,-1.298,-1.2001,-1.1126,-1.0355,-0.9706,-0.9379,-0.9088,-0.8808,-0.8757,-0.8686,-0.8665,-0.8555,-0.8594,-0.853,-0.8462,-0.835,-0.8262,-0.817,-0.8099,-0.8052,-0.8038,-0.8038,-0.8038,-0.8038,-0.8038,-0.8038,-0.8038,-0.8038,-0.8038,-0.8038,-0.8038,-0.8038,-0.8038,-0.8038,-0.8038,-0.8038,-0.8038,-0.8038,-0.7942,-0.7939,-0.7939,-0.7839,-0.7543,-0.7338,-0.6939,-0.6337,-0.5035,-0.4409,-0.3997,-0.3886,-0.3834,-0.3796,-0.3781,-0.37,-0.3667,-0.3371,-0.3081,-0.2603,-0.2212,-0.1737,-0.1274,-0.0,-0.0,-0.0,-0.0,-0.0,0.1077,0.1794,0.2511,0.3227,0.4208,0.5006,0.5808,0.6792,0.6966,0.7048,0.7139,0.7092,0.6973,0.6861,0.6675,0.6468,0.64,0.6441,0.6421,0.6592,0.6795,0.7176,0.7557,0.8089,0.8699,0.9387,1.0067,1.0738,1.1137,1.1407,1.1552,1.1669,1.1543,1.1215,1.0771,1.0588,1.0527,1.0498,1.0491,1.0491,-1.5542,-1.5819,-1.5959,-1.6037,-1.6063,-1.6273,-1.6024,-1.5461,-1.4836,-1.3917,-1.2856,-1.1964,-1.1084,-1.0252,-0.9806,-0.9305,-0.8845,-0.8728,-0.8687,-0.8537,-0.8357,-0.8442,-0.8381,-0.8309,-0.8245,-0.817,-0.8106,-0.8052,-0.8038,-0.8038,-0.8038,-0.8038,-0.8038,-0.8038,-0.8038,-0.8038,-0.8038,-0.8038,-0.8038,-0.8038,-0.8038,-0.8038,-0.8038,-0.8038,-0.8038,-0.8038,-0.7939,-0.7942,-0.7842,-0.7743,-0.7543,-0.7042,-0.6537,-0.5834,-0.5236,-0.4135,-0.3527,-0.3221,-0.3013,-0.3196,-0.318,-0.3166,-0.2942,-0.2932,-0.2901,-0.2689,-0.2183,-0.1595,-0.1115,-0.0,-0.0,-0.0,-0.0,-0.0,-0.0,-0.0,0.2242,0.2959,0.3851,0.4741,0.563,0.6343,0.6874,0.7051,0.7139,0.7139,0.7136,0.7088,0.7027,0.6943,0.6675,0.6481,0.652,0.6489,0.6731,0.7045,0.7419,0.7876,0.8551,0.9236,0.9997,1.0519,1.1037,1.1484,1.1909,1.1992,1.1925,1.1642,1.1322,1.0866,1.0371,1.0218,1.0181,1.0238,1.0301,-1.6079,-1.6267,-1.6261,-1.6239,-1.6175,-1.5946,-1.5976,-1.6186,-1.539,-1.4596,-1.3709,-1.2827,-1.1926,-1.0946,-1.0289,-0.9561,-0.9035,-0.8891,-0.8647,-0.8445,-0.8381,-0.833,-0.8272,-0.8241,-0.8163,-0.8082,-0.8038,-0.8038,-0.8038,-0.8038,-0.8038,-0.8038,-0.8038,-0.8038,-0.8038,-0.8038,-0.8038,-0.8038,-0.8038,-0.8038,-0.8038,-0.8038,-0.8038,-0.8038,-0.8038,-0.7939,-0.7839,-0.7743,-0.755,-0.7347,-0.6945,-0.6342,-0.5539,-0.4533,-0.3833,-0.333,-0.2724,-0.2422,-0.2321,-0.2514,-0.2717,-0.2616,-0.2521,-0.2607,-0.2578,-0.216,-0.1551,-0.1337,-0.0945,-0.0,-0.0,-0.0,-0.0,-0.0,-0.0,0.1795,0.2513,0.3497,0.4565,0.5455,0.6166,0.6789,0.6962,0.7139,0.7139,0.7139,0.7136,0.7129,0.7115,0.7092,0.6902,0.6614,0.6603,0.6718,0.6856,0.718,0.7679,0.8196,0.888,0.9539,1.0218,1.0743,1.1335,1.1632,1.1855,1.2003,1.1965,1.1657,1.1192,1.0704,1.0294,0.9945,0.9805,0.9817,1.0047,-1.5901,-1.5967,-1.5963,-1.5939,-1.5939,-1.58,-1.5846,-1.5873,-1.577,-1.5212,-1.4356,-1.349,-1.2571,-1.1585,-1.0736,-0.9912,-0.9168,-0.8823,-0.8449,-0.8302,-0.8177,-0.8194,-0.8116,-0.8123,-0.8079,-0.8055,-0.8038,-0.8038,-0.8038,-0.8038,-0.8038,-0.8038,-0.8038,-0.8038,-0.8038,-0.8038,-0.8038,-0.8038,-0.8038,-0.8038,-0.8038,-0.8038,-0.8038,-0.8038,-0.8038,-0.7842,-0.7743,-0.7441,-0.7042,-0.6639,-0.5934,-0.5334,-0.4638,-0.353,-0.3128,-0.3029,-0.2019,-0.1615,-0.1616,-0.1918,-0.212,-0.2322,-0.2423,-0.2424,-0.2114,-0.15,-0.1188,-0.1072,-0.0,-0.0,-0.0,-0.0,0.027,0.081,0.1257,0.2065,0.2784,0.4034,0.528,0.5988,0.67,0.6966,0.7051,0.7139,0.7139,0.7139,0.7139,0.7136,0.7136,0.7115,0.7058,0.6848,0.6834,0.6833,0.7024,0.7288,0.782,0.8508,0.9168,0.9818,1.038,1.0738,1.1111,1.1409,1.1632,1.1706,1.1717,1.1379,1.092,1.0451,0.9885,0.9455,0.9231,0.9157,0.953,-1.5893,-1.5873,-1.581,-1.5825,-1.5825,-1.5825,-1.5825,-1.5763,-1.582,-1.5583,-1.4979,-1.424,-1.3292,-1.22,-1.1364,-1.0247,-0.9396,-0.8967,-0.8532,-0.8165,-0.8038,-0.8055,-0.8038,-0.8038,-0.8045,-0.8038,-0.8038,-0.8038,-0.8038,-0.8038,-0.8038,-0.8038,-0.8038,-0.8038,-0.8038,-0.8038,-0.8038,-0.8038,-0.8038,-0.7939,-0.7939,-0.8038,-0.8038,-0.8038,-0.7842,-0.7743,-0.7341,-0.6942,-0.6437,-0.5737,-0.5035,-0.4433,-0.3732,-0.2826,-0.2424,-0.2121,-0.1515,-0.0808,-0.101,-0.1313,-0.1616,-0.1919,-0.2323,-0.2325,-0.2628,-0.201,-0.1004,-0.0792,-0.0488,-0.0,-0.0,-0.0,0.0736,0.1188,0.1446,0.1974,0.3227,0.4565,0.5455,0.6166,0.6697,0.7051,0.7139,0.7139,0.7139,0.7139,0.7139,0.7139,0.7139,0.7139,0.7082,0.7034,0.699,0.7041,0.723,0.7542,0.8006,0.8695,0.9344,0.9724,1.0062,1.0541,1.0887,1.1037,1.1186,1.1409,1.1243,1.0991,1.0456,0.9903,0.938,0.8937,0.8721,0.8652,0.9145,-1.5838,-1.5825,-1.5832,-1.5825,-1.5825,-1.5825,-1.5825,-1.5832,-1.5832,-1.575,-1.5447,-1.4886,-1.4113,-1.312,-1.2054,-1.0825,-0.9863,-0.9176,-0.8645,-0.8141,-0.8038,-0.8038,-0.8038,-0.8038,-0.8038,-0.8038,-0.8038,-0.8038,-0.8038,-0.8038,-0.8038,-0.8038,-0.8038,-0.8038,-0.8038,-0.8038,-0.8038,-0.7942,-0.7942,-0.7942,-0.7939,-0.7939,-0.7939,-0.7842,-0.7743,-0.7444,-0.6942,-0.6339,-0.5636,-0.4834,-0.4033,-0.343,-0.2927,-0.2222,-0.1717,-0.1313,-0.101,-0.0404,-0.0404,-0.0808,-0.1212,-0.1617,-0.2022,-0.2325,-0.2528,-0.2122,-0.1111,-0.0,-0.0,-0.0,-0.0,0.0668,0.1126,0.1566,0.1727,0.2243,0.3674,0.501,0.5719,0.634,0.6697,0.7051,0.7139,0.7139,0.7139,0.7139,0.7139,0.7139,0.7139,0.7139,0.7115,0.7082,0.7051,0.7165,0.734,0.7635,0.8032,0.8567,0.9082,0.9408,0.974,1.0057,1.0235,1.0443,1.0594,1.0812,1.0887,1.0679,1.0115,0.9482,0.9044,0.8684,0.8508,0.8467,0.884,-1.5825,-1.5825,-1.5825,-1.5825,-1.5825,-1.5825,-1.5825,-1.5825,-1.5825,-1.573,-1.558,-1.523,-1.4401,-1.3397,-1.233,-1.1208,-1.013,-0.9426,-0.8832,-0.8435,-0.8137,-0.8038,-0.8038,-0.8038,-0.8038,-0.8038,-0.8038,-0.8038,-0.8038,-0.8038,-0.8038,-0.8038,-0.8038,-0.8038,-0.7939,-0.7939,-0.7942,-0.7842,-0.7743,-0.7643,-0.7743,-0.7743,-0.7842,-0.7846,-0.7849,-0.7147,-0.6342,-0.5438,-0.4937,-0.4133,-0.3027,-0.2323,-0.1818,-0.1616,-0.1111,-0.0,-0.0,-0.0,-0.0,-0.0,-0.0,-0.101,-0.1414,-0.1617,-0.1718,-0.1718,-0.0,-0.0,-0.0,-0.0,-0.0,-0.0,0.1326,0.1762,0.2096,0.3071,0.4316,0.5198,0.5899,0.6432,0.6874,0.7051,0.7139,0.7139,0.7139,0.7139,0.7139,0.7139,0.7139,0.7139,0.7139,0.7122,0.7099,0.7111,0.725,0.7565,0.7954,0.8508,0.886,0.9016,0.9247,0.9402,0.9585,0.9776,1.0067,1.0368,1.0293,1.0212,0.9824,0.9212,0.8745,0.8429,0.8263,0.8461,0.8959]},{"header":{"parameterUnit":"m.s-1","parameterCategory":1,"la1":31.0,"la2":29.5877,"lo1":-88.7671,"lo2":-86.6584,"dy":0.0162,"dx":0.0185,"nx":115,"ny":88,"refTime":"2023-06-28T18:00:00:Z","depth":0,"parameterNumber":3,"parameterNumberName":"V-component_of_WINDS"},"data":[0.0,0.0,0.0,0.0,0.0,0.0,0.0,0.0,0.0,0.0,0.0,0.0,0.0,0.0,0.0,0.0,0.0,0.0,0.0,0.0,0.0,0.0,0.0,0.0,0.0,0.0,0.0,0.0,0.0,0.0,0.0,0.0,0.0,0.0,0.0,0.0,0.0,0.0,0.0,0.0,0.0,0.0,0.0,0.0,0.0,0.0,0.0,0.0,0.0,0.0,0.0,0.0,0.0,0.0,0.0,0.0,0.0,0.0,0.0,0.0,0.0,0.0,0.0,0.0,0.0,0.0,0.0,0.0,0.0,0.0,0.0,0.0,0.0,0.0,0.0,0.0,0.0,0.0,0.0,0.0,0.0,0.0,0.0,0.0,0.0,0.0,0.0,0.0,0.0,0.0,0.0,0.0,0.0,0.0,0.0,0.0,0.0,0.0,0.0,0.0,0.0,0.0,0.0,0.0,0.0,0.0,0.0,0.0,0.0,0.0,0.0,0.0,0.0,0.0,0.0,0.0,0.0,0.0,0.0,0.0,0.0,0.0,0.0,0.0,0.0,0.0,0.0,0.0,0.0,0.0,0.0,0.0,0.0,0.0,0.0,0.0,0.0,0.0,0.0,0.0,0.0,0.0,0.0,0.0,0.0,0.0,0.0,0.0,0.0,0.0,0.0,0.0,0.0,0.0,0.0,0.0,0.0,0.0,0.0,0.0,0.0,0.0,0.0,0.0,0.0,0.0,0.0,0.0,0.0,0.0,0.0,0.0,0.0,0.0,0.0,0.0,0.0,0.0,0.0,0.0,0.0,0.0,0.0,0.0,0.0,0.0,0.0,0.0,0.0,0.0,0.0,0.0,0.0,0.0,0.0,0.0,0.0,0.0,0.0,0.0,0.0,0.0,0.0,0.0,0.0,0.0,0.0,0.0,0.0,0.0,0.0,0.0,0.0,0.0,0.0,0.0,0.0,0.0,0.0,0.0,0.0,0.0,0.0,0.0,0.0,0.0,0.0,0.0,0.0,0.0,0.0,0.0,0.0,0.0,0.0,0.0,0.0,0.0,0.0,0.0,0.0,0.0,0.0,0.0,0.0,0.0,0.0,0.0,0.0,0.0,0.0,0.0,0.0,0.0,0.0,0.0,0.0,0.0,0.0,0.0,0.0,0.0,0.0,0.0,0.0,0.0,0.0,0.0,0.0,0.0,0.0,0.0,0.0,0.0,0.0,0.0,0.0,0.0,0.0,0.0,0.0,0.0,0.0,0.0,0.0,0.0,0.0,0.0,0.0,0.0,0.0,0.0,0.0,0.0,0.0,0.0,0.0,0.0,0.0,0.0,0.0,0.0,0.0,0.0,0.0,0.0,0.0,0.0,0.0,0.0,0.0,0.0,0.0,0.0,0.0,0.0,0.0,0.0,0.0,0.0,0.0,0.0,0.0,0.0,0.0,0.0,0.0,0.0,0.0,0.0,0.0,0.0,0.0,0.0,0.0,0.0,0.0,0.0,0.0,0.0,0.0,0.0,0.0,0.0,0.0,0.0,0.0,0.0,0.0,0.0,0.0,0.0,0.0,0.0,0.0,0.0,0.0,0.0,0.0,0.0,0.0,0.0,0.0,0.0,0.0,0.0,0.0,0.0,0.0,0.0,0.0,0.0,0.0,0.0,0.0,0.0,0.0,0.0,0.0,0.0,0.0,0.0,0.0,0.0,0.0,0.0,0.0,0.0,0.0,0.0,0.0,0.0,0.0,0.0,0.0,0.0,0.0,0.0,0.0,0.0,0.0,0.0,0.0,0.0,0.0,0.0,0.0,0.0,0.0,0.0,0.0,0.0,0.0,0.0,0.0,0.0,0.0,0.0,0.0,0.0,0.0,0.0,0.0,0.0,0.0,0.0,0.0,0.0,0.0,0.0,0.0,0.0,0.0,0.0,0.0,0.0,0.0,0.0,0.0,0.0,0.0,0.0,0.0,0.0,0.0,0.0,0.0,0.0,0.0,0.0,0.0,0.0,0.0,0.0,0.0,0.0,0.0,0.0,0.0,0.0,0.0,0.0,0.0,0.0,0.0,0.0,0.0,0.0,0.0,0.0,0.0,0.0,0.0,0.0,0.0,0.0,0.0,0.0,0.0,0.0,0.0,0.0,0.0,0.0,0.0,0.0,0.0,0.0,0.0,0.0,0.0,0.0,0.0,0.0,0.0,0.0,0.0,0.0,0.0,0.0,0.0,0.0,0.0,0.0,0.0,0.0,0.0,0.0,0.0,0.0,0.0,0.0,0.0,0.0,0.0,0.0,0.0,0.0,0.0,0.0,0.0,0.0,0.0,0.0,0.0,0.0,0.0,0.0,0.0,0.0,0.0,0.0,0.0,0.0,0.0,0.0,0.0,0.0,0.0,0.0,0.0,0.0,0.0,0.0,0.0,0.0,0.0,0.0,0.0,0.0,0.0,0.0,0.0,0.0,0.0,0.0,0.0,0.0,0.0,0.0,0.0,0.0,0.0,0.0,0.0,0.0,0.0,0.0,0.0,0.0,0.0,0.0,0.0,0.0,0.0,0.0,0.0,0.0,0.0,0.0,0.0,0.0,0.0,0.0,0.0,0.0,0.0,0.0,0.0,0.0,0.0,0.0,0.0,0.0,0.0,0.0,0.0,0.0,0.0,0.0,0.0,0.0,0.0,0.0,0.0,0.0,0.0,0.0,0.0,0.0,0.0,0.0,0.0,0.0,0.0,0.0,0.0,0.0,0.0,0.0,0.0,0.0,0.0,0.0,0.0,0.0,0.0,0.0,0.0,0.0,0.0,0.0,0.0,0.0,0.0,0.0,0.0,0.0,0.0,0.0,0.0,0.0,0.0,0.0,0.0,0.0,0.0,0.0,0.0,0.0,0.0,0.0,0.0,0.0,0.0,0.0,0.0,0.0,0.0,0.0,0.0,0.0,0.0,0.0,0.0,0.0,0.0,0.0,0.0,0.0,0.0,0.0,0.0,0.0,0.0,0.0,0.0,0.0,0.0,0.0,0.0,0.0,0.0,0.0,0.0,0.0,0.0,0.0,0.0,0.0,0.0,0.0,0.0,0.0,0.0,0.0,0.0,0.0,0.0,0.0,0.0,0.0,0.0,0.0,0.0,0.0,0.0,0.0,0.0,0.0,0.0,0.0,0.0,0.0,0.0,0.0,0.0,0.0,0.0,0.0,0.0,0.0,0.0,0.0,0.0,0.0,0.0,0.0,0.0,0.0,0.0,0.0,0.0,0.0,0.0,0.0,0.0,0.0,0.0,0.0,0.0,0.0,0.0,0.0,0.0,0.0,0.0,0.0,0.0,0.0,0.0,0.0,0.0,0.0,0.0,0.0,0.0,0.0,0.0,0.0,0.0,0.0,0.0,0.0,0.0,0.0,0.0,0.0,0.0,0.0,0.0,0.0,0.0,0.0,0.0,0.0,0.0,0.0,0.0,0.0,0.0,0.0,0.0,0.0,0.0,0.0,0.0,0.0,0.0,0.0,0.0,0.0,0.0,0.0,0.0,0.0,0.0,0.0,0.0,0.0,0.0,0.0,0.0,0.0,0.0,0.0,0.0,0.0,0.0,0.0,0.0,0.0,0.0,0.0,0.0,0.0,0.0,0.0,0.0,0.0,0.0,0.0,0.0,0.0,0.0,0.0,0.0,0.0,0.0,0.0,0.0,0.0,0.0,0.0,0.0,0.0,0.0,0.0,0.0,0.0,0.0,0.0,0.0,0.0,0.0,0.0,0.0,0.0,0.0,0.0,0.0,0.0,0.0,0.0,0.0,0.0,0.0,0.0,0.0,0.0,0.0,0.0,0.0,0.0,0.0,0.0,0.0,0.0,0.0,0.0,0.0,0.0,0.0,0.0,0.0,0.0,0.0,0.0,0.0,0.0,0.0,0.0,0.0,0.0,0.0,0.0,0.0,0.0,0.0,0.0,0.0,0.0,0.0,0.0,0.0,0.0,0.0,0.0,0.0,0.0,0.0,0.0,0.0,0.0,0.0,0.0,0.0,0.0,0.0,0.0,0.0,0.0,0.0,0.0,0.0,0.0,0.0,0.0,0.0,0.0,0.0,0.0,0.0,0.0,0.0,0.0,0.0,0.0,0.0,0.0,0.0,0.0,0.0,0.0,0.0,0.0,0.0,0.0,0.0,0.0,0.0,0.0,0.0,0.0,0.0,0.0,0.0,0.0,0.0,0.0,0.0,0.0,0.0,0.0,0.0,0.0,0.0,0.0,0.0,0.0,0.0,0.0,0.0,0.0,0.0,0.0,-0.2587,0.0,0.0,0.0,0.0,0.0,0.0,0.0,0.0,0.0,0.0,0.0,0.0,0.0,0.0,0.0,0.0,0.0,0.0,0.0,0.0,0.0,0.0,0.0,0.0,0.0,0.0,0.0,0.0,0.0,0.0,0.0,0.0,0.0,0.0,0.0,0.0,0.0,0.0,0.0,0.0,0.0,0.0,0.0,0.0,0.0,0.0,0.0,0.0,0.0,0.0,0.0,0.0,0.0,0.0,0.0,0.0,0.0,0.0,0.0,0.0,0.0,0.0,0.0,0.0,0.0,0.0,0.0,0.0,0.0,0.0,0.0,0.0,0.0,0.0,0.0,0.0,0.0,0.0,0.0,0.0,0.0,0.0,0.0,0.0,0.0,0.0,0.0,0.0,0.0,0.0,0.0,0.0,0.0,0.0,0.0,0.0,0.0,0.0,0.0,0.0,0.0,0.0,0.0,0.0,0.0,0.0,0.0,0.0,0.0,0.0,-0.3515,-0.3389,-0.3205,-0.3171,-0.3229,0.0,0.0,0.0,0.0,0.0,0.0,0.0,0.0,0.0,0.0,0.0,0.0,0.0,0.0,0.0,0.0,0.0,0.0,0.0,0.0,0.0,0.0,0.0,0.0,0.0,0.0,0.0,0.0,0.0,0.0,0.0,0.0,0.0,0.0,0.0,0.0,0.0,0.0,0.0,0.0,0.0,0.0,0.0,0.0,0.0,0.0,0.0,0.0,0.0,0.0,0.0,0.0,0.0,0.0,0.0,0.0,0.0,0.0,0.0,0.0,0.0,0.0,0.0,0.0,0.0,0.0,0.0,0.0,0.0,0.0,0.0,0.0,0.0,0.0,0.0,0.0,0.0,0.0,0.0,0.0,0.0,0.0,0.0,0.0,0.0,0.0,0.0,0.0,0.0,0.0,0.0,0.0,0.0,0.0,0.0,0.0,0.0,0.0,0.0,0.0,0.0,0.0,0.0,0.0,0.0,0.0,0.0,0.0,0.0,0.0,0.0,0.0,-0.3819,-0.3828,-0.3955,0.0,0.0,0.0,0.0,0.0,0.0,0.0,0.0,0.0,0.0,0.0,0.0,0.0,0.0,0.0,0.0,0.0,0.0,0.0,0.0,0.0,0.0,0.0,0.0,0.0,0.0,0.0,0.0,0.0,0.0,0.0,0.0,0.0,0.0,0.0,0.0,0.0,0.0,0.0,0.0,0.0,0.0,0.0,0.0,0.0,0.0,0.0,0.0,0.0,0.0,0.0,0.0,0.0,0.0,0.0,0.0,0.0,0.0,0.0,0.0,0.0,0.0,0.0,0.0,0.0,0.0,0.0,0.0,0.0,0.0,0.0,0.0,0.0,0.0,0.0,0.0,0.0,0.0,0.0,0.0,0.0,0.0,0.0,0.0,0.0,0.0,0.0,0.0,0.0,0.0,0.0,0.0,0.0,0.0,0.0,0.0,0.0,0.0,0.0,0.0,0.0,0.0,0.0,0.0,0.0,0.0,0.0,0.0,0.0,0.0,-0.4458,-0.4529,-0.4558,0.0,-0.479,0.0,0.0,0.0,0.0,0.0,0.0,0.0,0.0,0.0,0.0,0.0,0.0,0.0,0.0,0.0,0.0,0.0,0.0,0.0,0.0,0.0,0.0,0.0,0.0,0.0,0.0,0.0,0.0,0.0,0.0,0.0,0.0,0.0,0.0,0.0,0.0,0.0,0.0,0.0,0.0,0.0,0.0,0.0,0.0,0.0,0.0,0.0,0.0,0.0,0.0,0.0,0.0,0.0,0.0,0.0,0.0,0.0,0.0,0.0,0.0,0.0,0.0,0.0,0.0,0.0,0.0,0.0,0.0,0.0,0.0,0.0,0.0,0.0,0.0,0.0,0.0,0.0,0.0,0.0,0.0,0.0,0.0,0.0,0.0,0.0,0.0,0.0,0.0,0.0,0.0,0.0,0.0,0.0,0.0,0.0,0.0,0.0,0.0,0.0,0.0,0.0,0.0,0.0,0.0,0.0,0.0,0.0,0.0,0.0,0.0,-0.526,-0.5438,-0.5494,-0.5524,0.0,0.0,0.0,0.0,0.0,0.0,0.0,0.0,0.0,0.0,0.0,0.0,0.0,0.0,0.0,0.0,0.0,0.0,0.0,0.0,0.0,0.0,0.0,0.0,0.0,0.0,0.0,0.0,0.0,0.0,0.0,0.0,0.0,0.0,0.0,0.0,0.0,0.0,0.0,0.0,0.0,0.0,0.0,0.0,0.0,0.0,0.0,0.0,0.0,0.0,0.0,0.0,0.0,0.0,0.0,0.0,0.0,0.0,0.0,0.0,0.0,0.0,0.0,0.0,0.0,0.0,0.0,0.0,0.0,0.0,0.0,0.0,0.0,0.0,0.0,0.0,0.0,0.0,0.0,0.0,0.0,0.0,0.0,0.0,0.0,0.0,0.0,0.0,0.0,0.0,0.0,0.0,0.0,0.0,0.0,0.0,0.0,0.0,0.0,0.0,0.0,0.0,0.0,0.0,0.0,0.0,0.0,0.0,0.0,0.0,-0.5531,-0.5907,-0.6288,-0.6307,-0.6239,-0.6063,0.0,0.0,0.0,0.0,0.0,0.0,0.0,0.0,0.0,0.0,0.0,0.0,0.0,0.0,0.0,0.0,0.0,0.0,0.0,0.0,0.0,0.0,0.0,0.0,0.0,0.0,0.0,0.0,0.0,0.0,0.0,0.0,0.0,0.0,0.0,0.0,0.0,0.0,0.0,0.0,0.0,0.0,0.0,0.0,0.0,0.0,0.0,0.0,0.0,0.0,0.0,0.0,0.0,0.0,0.0,0.0,0.0,0.0,0.0,0.0,0.0,0.0,0.0,0.0,0.0,0.0,0.0,0.0,0.0,0.0,0.0,0.0,0.0,0.0,0.0,0.0,0.0,0.0,0.0,0.0,0.0,0.0,0.0,0.0,0.0,0.0,0.0,0.0,0.0,0.0,0.0,0.0,0.0,0.0,0.0,0.0,0.0,0.0,0.0,0.0,0.0,0.0,0.0,0.0,0.0,0.0,0.0,0.0,-0.5471,-0.5775,-0.6269,-0.7023,-0.6928,-0.6734,0.0,0.0,0.0,0.0,0.0,0.0,0.0,0.0,0.0,0.0,0.0,0.0,0.0,0.0,0.0,0.0,0.0,0.0,0.0,0.0,0.0,0.0,0.0,0.0,0.0,0.0,0.0,0.0,0.0,0.0,0.0,0.0,0.0,0.0,0.0,0.0,0.0,0.0,0.0,0.0,0.0,0.0,0.0,0.0,0.0,0.0,0.0,0.0,0.0,0.0,0.0,0.0,0.0,0.0,0.0,0.0,0.0,0.0,0.0,0.0,0.0,0.0,0.0,0.0,0.0,0.0,0.0,0.0,0.0,0.0,0.0,0.0,0.0,0.0,0.0,0.0,0.0,0.0,0.0,0.0,0.0,0.0,0.0,0.0,0.0,0.0,0.0,0.0,0.0,0.0,0.0,0.0,0.0,0.0,0.0,0.0,0.0,0.0,0.0,0.0,0.0,0.0,0.0,0.0,0.0,0.0,0.0,0.0,0.0,-0.6922,-0.7309,-0.7546,-0.7664,-0.7465,-0.7204,0.0,0.0,0.0,0.0,0.0,0.0,0.0,0.0,0.0,0.0,0.0,0.0,0.0,0.0,0.0,0.0,0.0,0.0,0.0,0.0,0.0,0.0,0.0,0.0,0.0,0.0,0.0,0.0,0.0,0.0,0.0,0.0,0.0,0.0,0.0,0.0,0.0,0.0,0.0,0.0,0.0,0.0,0.0,0.0,0.0,0.0,0.0,0.0,0.0,0.0,0.0,0.0,0.0,0.0,0.0,0.0,0.0,0.0,0.0,0.0,0.0,0.0,0.0,0.0,0.0,0.0,0.0,0.0,0.0,0.0,0.0,0.0,0.0,0.0,0.0,0.0,0.0,0.0,0.0,0.0,0.0,0.0,0.0,0.0,0.0,0.0,0.0,0.0,0.0,0.0,0.0,0.0,0.0,0.0,0.0,0.0,0.0,0.0,0.0,0.0,0.0,0.0,0.0,0.0,0.0,0.0,0.0,0.0,0.0,-0.7917,0.0,-0.8507,-0.8217,-0.7941,-0.7633,0.0,0.0,0.0,0.0,0.0,0.0,0.0,0.0,0.0,0.0,0.0,0.0,0.0,0.0,0.0,0.0,0.0,0.0,0.0,0.0,0.0,0.0,0.0,0.0,0.0,0.0,0.0,0.0,0.0,0.0,0.0,0.0,0.0,0.0,0.0,0.0,0.0,0.0,0.0,0.0,0.0,0.0,0.0,0.0,0.0,0.0,0.0,0.0,0.0,0.0,0.0,0.0,0.0,0.0,0.0,0.0,0.0,0.0,0.0,0.0,0.0,0.0,0.0,0.0,0.0,0.0,0.0,0.0,0.0,0.0,0.0,0.0,0.0,0.0,0.0,0.0,0.0,0.0,0.0,0.0,0.0,0.0,0.0,0.0,0.0,0.0,0.0,0.0,0.0,0.0,0.0,0.0,0.0,0.0,0.0,0.0,0.0,0.0,0.0,0.0,0.0,0.0,0.0,0.0,0.0,0.0,0.0,0.0,-0.7403,-0.8267,-0.889,-0.9047,-0.8723,-0.8383,-0.8027,0.0,0.0,0.0,0.0,0.0,0.0,0.0,0.0,0.0,0.0,0.0,0.0,0.0,0.0,0.0,0.0,0.0,0.0,0.0,0.0,0.0,0.0,0.0,0.0,0.0,0.0,0.0,0.0,0.0,0.0,0.0,0.0,0.0,0.0,0.0,0.0,0.0,0.0,0.0,0.0,0.0,0.0,0.0,0.0,0.0,0.0,0.0,0.0,0.0,0.0,0.0,0.0,0.0,0.0,0.0,0.0,0.0,0.0,0.0,0.0,0.0,0.0,0.0,0.0,0.0,0.0,0.0,0.0,0.0,0.0,0.0,0.0,0.0,0.0,0.0,0.0,0.0,0.0,0.0,0.0,0.0,0.0,0.0,0.0,0.0,0.0,0.0,0.0,0.0,0.0,0.0,0.0,0.0,0.0,0.0,0.0,0.0,0.0,0.0,0.0,0.0,0.0,0.0,0.0,0.0,0.0,0.0,0.0,0.0,-0.8584,-0.9202,-0.9398,-0.9123,-0.8785,-0.8447,0.0,0.0,0.0,0.0,0.0,0.0,0.0,0.0,0.0,0.0,0.0,0.0,0.0,0.0,0.0,0.0,0.0,0.0,0.0,0.0,0.0,0.0,0.0,0.0,0.0,0.0,0.0,0.0,0.0,0.0,0.0,0.0,0.0,0.0,0.0,0.0,0.0,0.0,0.0,0.0,0.0,0.0,0.0,0.0,0.0,0.0,0.0,0.0,0.0,0.0,0.0,0.0,0.0,0.0,0.0,0.0,0.0,0.0,0.0,0.0,0.0,0.0,0.0,0.0,0.0,0.0,0.0,0.0,0.0,0.0,0.0,0.0,0.0,0.0,0.0,0.0,0.0,0.0,0.0,0.0,0.0,0.0,0.0,0.0,0.0,0.0,0.0,0.0,0.0,0.0,0.0,0.0,0.0,0.0,0.0,0.0,0.0,0.0,0.0,0.0,0.0,0.0,0.0,0.0,0.0,0.0,0.0,0.0,0.0,-0.9748,-0.979,-0.9688,-0.9455,-0.9132,-0.8844,-0.8537,0.0,0.0,0.0,0.0,0.0,0.0,0.0,0.0,0.0,0.0,0.0,0.0,0.0,0.0,0.0,0.0,0.0,0.0,0.0,0.0,0.0,0.0,0.0,0.0,0.0,0.0,0.0,0.0,0.0,0.0,0.0,0.0,0.0,0.0,0.0,0.0,0.0,0.0,0.0,0.0,0.0,0.0,0.0,0.0,0.0,0.0,0.0,0.0,0.0,0.0,0.0,0.0,0.0,0.0,0.0,0.0,0.0,0.0,0.0,0.0,0.0,0.0,0.0,0.0,0.0,0.0,0.0,0.0,0.0,0.0,0.0,0.0,0.0,0.0,0.0,0.0,0.0,0.0,0.0,0.0,0.0,0.0,0.0,0.0,0.0,0.0,0.0,0.0,0.0,0.0,0.0,0.0,0.0,0.0,0.0,0.0,0.0,0.0,0.0,0.0,0.0,0.0,0.0,0.0,0.0,0.0,0.0,0.0,-1.1553,-1.0631,-1.0058,-0.9811,-0.9496,-0.9206,0.0,0.0,0.0,0.0,0.0,0.0,0.0,0.0,0.0,0.0,0.0,0.0,0.0,0.0,0.0,0.0,0.0,0.0,0.0,0.0,0.0,0.0,0.0,0.0,0.0,0.0,0.0,0.0,0.0,0.0,0.0,0.0,0.0,0.0,0.0,0.0,0.0,0.0,0.0,0.0,0.0,0.0,0.0,0.0,0.0,0.0,0.0,0.0,0.0,0.0,0.0,0.0,0.0,0.0,0.0,0.0,0.0,0.0,0.0,0.0,0.0,0.0,0.0,0.0,0.0,0.0,0.0,0.0,0.0,0.0,0.0,0.0,0.0,0.0,0.0,0.0,0.0,0.0,0.0,0.0,0.0,0.0,0.0,0.0,0.0,0.0,0.0,0.0,0.0,0.0,0.0,0.0,0.0,0.0,0.0,0.0,0.0,0.0,0.0,0.0,0.0,0.0,0.0,0.0,0.0,0.0,0.0,0.0,0.0,-1.2337,-1.2123,-1.1626,-1.0901,-1.0088,-0.9573,0.0,0.0,0.0,0.0,0.0,0.0,0.0,0.0,0.0,0.0,0.0,0.0,0.0,0.0,0.0,0.0,0.0,0.0,0.0,0.0,0.0,0.0,0.0,0.0,0.0,0.0,0.0,0.0,0.0,0.0,0.0,0.0,0.0,0.0,0.0,0.0,0.0,0.0,0.0,0.0,0.0,0.0,0.0,0.0,0.0,0.0,0.0,0.0,0.0,0.0,0.0,0.0,0.0,0.0,0.0,0.0,0.0,0.0,0.0,0.0,0.0,0.0,0.0,0.0,0.0,0.0,0.0,0.0,0.0,0.0,0.0,0.0,0.0,0.0,0.0,0.0,0.0,0.0,0.0,0.0,0.0,0.0,0.0,0.0,0.0,0.0,0.0,0.0,0.0,0.0,0.0,0.0,0.0,0.0,0.0,0.0,0.0,0.0,0.0,0.0,0.0,0.0,0.0,0.0,0.0,0.0,0.0,0.0,-1.2186,-1.3752,-1.3081,-1.2796,-1.2968,-1.1315,-1.0308,0.0,0.0,0.0,0.0,0.0,0.0,0.0,0.0,0.0,0.0,0.0,0.0,0.0,0.0,0.0,0.0,0.0,0.0,0.0,0.0,0.0,0.0,0.0,0.0,0.0,0.0,0.0,0.0,0.0,0.0,0.0,0.0,0.0,0.0,0.0,0.0,0.0,0.0,0.0,0.0,0.0,0.0,0.0,0.0,0.0,0.0,0.0,0.0,0.0,0.0,0.0,0.0,0.0,0.0,0.0,0.0,0.0,0.0,0.0,0.0,0.0,0.0,0.0,0.0,0.0,0.0,0.0,0.0,0.0,0.0,0.0,0.0,0.0,0.0,0.0,0.0,0.0,0.0,0.0,0.0,0.0,0.0,0.0,0.0,0.0,0.0,0.0,0.0,0.0,0.0,0.0,0.0,0.0,0.0,0.0,0.0,0.0,0.0,0.0,0.0,0.0,0.0,0.0,0.0,0.0,0.0,0.0,0.0,-1.2987,-1.5351,-1.4002,-1.3938,-1.527,-1.2697,-1.1192,0.0,0.0,0.0,0.0,0.0,0.0,0.0,0.0,0.0,0.0,0.0,0.0,0.0,0.0,0.0,0.0,0.0,0.0,0.0,0.0,0.0,0.0,0.0,0.0,0.0,0.0,0.0,0.0,0.0,0.0,0.0,0.0,0.0,0.0,0.0,0.0,0.0,0.0,0.0,0.0,0.0,0.0,0.0,0.0,0.0,0.0,0.0,0.0,0.0,0.0,0.0,0.0,0.0,0.0,0.0,0.0,0.0,0.0,0.0,0.0,0.0,0.0,0.0,0.0,0.0,0.0,0.0,0.0,0.0,0.0,0.0,0.0,0.0,0.0,0.0,0.0,0.0,0.0,0.0,0.0,0.0,0.0,0.0,0.0,0.0,0.0,0.0,0.0,0.0,0.0,0.0,0.0,0.0,0.0,0.0,0.0,0.0,0.0,0.0,0.0,0.0,0.0,0.0,0.0,0.0,0.0,0.0,0.0,-1.5048,-1.6294,-1.6588,-1.6561,-1.6245,-1.3061,-1.1326,0.0,0.0,0.0,0.0,0.0,0.0,0.0,0.0,0.0,0.0,0.0,0.0,0.0,0.0,0.0,0.0,0.0,0.0,0.0,0.0,0.0,0.0,0.0,0.0,0.0,0.0,0.0,0.0,0.0,0.0,0.0,0.0,0.0,0.0,0.0,0.0,0.0,0.0,0.0,0.0,0.0,0.0,0.0,0.0,0.0,0.0,0.0,0.0,-0.7654,0.0,0.0,0.0,0.0,0.0,0.0,0.0,0.0,0.0,0.0,0.0,0.0,0.0,0.0,0.0,0.0,0.0,0.0,0.0,0.0,0.0,0.0,0.0,0.0,0.0,0.0,0.0,0.0,0.0,0.0,0.0,0.0,0.0,0.0,0.0,0.0,0.0,0.0,0.0,0.0,0.0,0.0,0.0,0.0,0.0,0.0,0.0,0.0,0.0,0.0,0.0,0.0,0.0,0.0,0.0,0.0,0.0,0.0,0.0,-1.5921,-1.7147,-1.719,-1.718,-1.7055,-1.3841,-1.2023,0.0,0.0,0.0,0.0,0.0,0.0,0.0,0.0,0.0,0.0,0.0,0.0,0.0,0.0,0.0,0.0,0.0,0.0,0.0,0.0,0.0,0.0,0.0,0.0,0.0,0.0,0.0,0.0,0.0,0.0,0.0,0.0,0.0,0.0,0.0,0.0,0.0,0.0,0.0,0.0,0.0,0.0,0.0,0.0,0.0,0.0,0.0,0.0,0.0,0.0,0.0,0.0,0.0,0.0,0.0,0.0,0.0,0.0,0.0,0.0,0.0,0.0,0.0,0.0,0.0,0.0,0.0,0.0,0.0,0.0,0.0,0.0,0.0,0.0,0.0,0.0,0.0,0.0,0.0,0.0,0.0,0.0,0.0,0.0,0.0,0.0,0.0,0.0,0.0,0.0,0.0,0.0,0.0,0.0,0.0,0.0,0.0,0.0,0.0,0.0,0.0,0.0,0.0,0.0,0.0,0.0,0.0,-1.4578,-1.6214,-1.7601,-1.7035,-1.7011,-1.7631,-1.4642,-1.2905,-1.2695,0.0,0.0,0.0,0.0,0.0,0.0,0.0,0.0,0.0,0.0,0.0,0.0,0.0,0.0,0.0,0.0,0.0,0.0,0.0,0.0,0.0,0.0,0.0,0.0,0.0,0.0,0.0,0.0,0.0,0.0,0.0,0.0,0.0,0.0,0.0,0.0,0.0,0.0,-0.9126,-0.9068,0.0,0.0,0.0,0.0,0.0,0.0,0.0,0.0,-0.9174,0.0,0.0,0.0,0.0,0.0,0.0,0.0,0.0,0.0,0.0,0.0,0.0,0.0,0.0,0.0,0.0,0.0,0.0,0.0,0.0,0.0,0.0,0.0,0.0,0.0,0.0,0.0,0.0,0.0,0.0,0.0,0.0,0.0,0.0,0.0,0.0,0.0,0.0,0.0,0.0,0.0,0.0,0.0,0.0,0.0,0.0,0.0,0.0,0.0,0.0,0.0,0.0,0.0,0.0,0.0,0.0,-1.2821,-1.5163,-1.6546,-1.6807,-1.7321,-1.7345,-1.6801,-1.4918,-1.3531,-1.2766,0.0,0.0,0.0,0.0,0.0,0.0,0.0,0.0,0.0,0.0,0.0,0.0,0.0,0.0,0.0,0.0,0.0,0.0,0.0,0.0,0.0,0.0,0.0,0.0,0.0,0.0,0.0,0.0,0.0,0.0,0.0,0.0,0.0,0.0,0.0,0.0,0.0,0.0,0.0,-0.9171,-0.9169,0.0,0.0,0.0,0.0,0.0,0.0,0.0,0.0,-0.9313,0.0,0.0,0.0,0.0,0.0,0.0,0.0,0.0,0.0,0.0,0.0,0.0,0.0,0.0,0.0,0.0,0.0,0.0,0.0,0.0,0.0,0.0,0.0,0.0,0.0,0.0,0.0,0.0,0.0,0.0,0.0,0.0,0.0,0.0,0.0,0.0,0.0,0.0,0.0,0.0,0.0,0.0,0.0,0.0,0.0,0.0,0.0,0.0,0.0,0.0,0.0,0.0,0.0,0.0,0.0,-1.2911,-1.5267,-1.6575,-1.6614,-1.6972,-1.6992,-1.6581,-1.4526,-1.3223,0.0,0.0,0.0,0.0,0.0,0.0,0.0,0.0,0.0,0.0,0.0,0.0,0.0,0.0,0.0,0.0,0.0,0.0,0.0,0.0,0.0,0.0,0.0,0.0,0.0,0.0,0.0,0.0,0.0,0.0,0.0,0.0,0.0,0.0,0.0,0.0,0.0,0.0,0.0,0.0,-0.9274,-0.9245,-0.9243,0.0,0.0,0.0,0.0,0.0,0.0,-0.9403,-0.9457,0.0,0.0,0.0,0.0,0.0,0.0,0.0,0.0,0.0,0.0,0.0,0.0,0.0,0.0,0.0,0.0,0.0,0.0,0.0,0.0,0.0,0.0,0.0,0.0,0.0,0.0,0.0,0.0,0.0,0.0,0.0,0.0,0.0,0.0,0.0,0.0,0.0,0.0,0.0,0.0,0.0,0.0,0.0,0.0,0.0,0.0,0.0,0.0,0.0,0.0,0.0,0.0,0.0,0.0,0.0,-1.3108,-1.5151,-1.6193,-1.6097,-1.6261,-1.6265,-1.6067,-1.4131,-1.2982,0.0,0.0,0.0,0.0,0.0,0.0,0.0,0.0,0.0,0.0,0.0,0.0,0.0,0.0,0.0,0.0,0.0,0.0,0.0,0.0,0.0,0.0,0.0,0.0,0.0,0.0,0.0,0.0,0.0,0.0,0.0,0.0,0.0,0.0,0.0,0.0,0.0,0.0,0.0,0.0,0.0,-0.941,-0.9572,-0.9696,0.0,0.0,0.0,0.0,-0.9886,-0.9951,0.0,0.0,0.0,0.0,0.0,0.0,0.0,0.0,0.0,0.0,0.0,0.0,0.0,0.0,0.0,0.0,0.0,0.0,0.0,0.0,0.0,0.0,0.0,0.0,0.0,0.0,0.0,0.0,0.0,0.0,0.0,0.0,0.0,0.0,0.0,0.0,0.0,0.0,0.0,0.0,0.0,0.0,0.0,0.0,0.0,0.0,0.0,0.0,0.0,0.0,0.0,0.0,0.0,0.0,0.0,0.0,-1.3896,-1.4907,-1.5077,-1.4385,-1.5037,-1.5105,-1.4419,-1.4099,-1.3588,0.0,0.0,0.0,0.0,0.0,0.0,0.0,0.0,0.0,0.0,0.0,0.0,0.0,0.0,0.0,0.0,0.0,0.0,0.0,0.0,0.0,0.0,0.0,0.0,0.0,0.0,0.0,0.0,0.0,0.0,0.0,0.0,0.0,0.0,0.0,0.0,0.0,0.0,0.0,0.0,0.0,-0.9762,-1.0522,-1.1223,-1.1642,0.0,0.0,-1.1592,-1.1603,-1.1623,0.0,0.0,0.0,0.0,0.0,0.0,0.0,0.0,0.0,0.0,0.0,0.0,0.0,0.0,0.0,0.0,0.0,0.0,0.0,0.0,0.0,0.0,0.0,0.0,0.0,0.0,0.0,0.0,0.0,0.0,0.0,0.0,0.0,0.0,0.0,0.0,0.0,0.0,0.0,0.0,0.0,0.0,0.0,0.0,0.0,0.0,0.0,0.0,0.0,0.0,0.0,0.0,0.0,0.0,0.0,-1.4035,-1.4022,-1.4816,-1.4845,-1.4063,-1.4848,-1.4919,-1.412,-1.4106,-1.371,0.0,0.0,0.0,0.0,0.0,0.0,0.0,0.0,0.0,0.0,0.0,0.0,0.0,0.0,0.0,0.0,0.0,0.0,0.0,0.0,0.0,0.0,0.0,0.0,0.0,0.0,0.0,0.0,0.0,0.0,0.0,0.0,0.0,0.0,0.0,0.0,0.0,0.0,0.0,0.0,0.0,0.0,-1.1414,-1.2743,0.0,0.0,0.0,-1.2026,-1.2016,0.0,0.0,0.0,0.0,0.0,0.0,0.0,0.0,0.0,0.0,0.0,0.0,0.0,0.0,0.0,0.0,0.0,0.0,0.0,0.0,0.0,0.0,0.0,0.0,0.0,0.0,0.0,0.0,0.0,0.0,0.0,0.0,0.0,0.0,0.0,0.0,0.0,0.0,0.0,0.0,0.0,0.0,0.0,0.0,0.0,0.0,0.0,0.0,0.0,0.0,0.0,0.0,0.0,0.0,0.0,0.0,0.0,-1.4309,-1.4898,-1.4796,-1.4048,-1.4863,-1.4923,-1.4148,-1.432,0.0,0.0,0.0,0.0,0.0,0.0,0.0,0.0,0.0,0.0,0.0,0.0,0.0,0.0,0.0,0.0,0.0,0.0,0.0,0.0,0.0,0.0,0.0,0.0,0.0,0.0,0.0,-0.9748,0.0,0.0,0.0,0.0,0.0,0.0,0.0,0.0,0.0,0.0,0.0,0.0,0.0,0.0,-1.0875,-1.2348,-1.3867,-1.4354,0.0,0.0,-1.2761,-1.2732,-1.273,-1.2662,0.0,0.0,0.0,0.0,0.0,0.0,0.0,0.0,0.0,0.0,0.0,0.0,0.0,0.0,0.0,0.0,0.0,0.0,0.0,0.0,0.0,0.0,0.0,0.0,0.0,0.0,0.0,0.0,0.0,0.0,0.0,0.0,0.0,0.0,0.0,0.0,0.0,0.0,0.0,0.0,0.0,0.0,0.0,0.0,0.0,0.0,0.0,0.0,0.0,0.0,0.0,0.0,0.0,0.0,0.0,-1.5124,-1.5171,-1.4829,-1.4058,-1.4859,-1.4904,-1.4155,-1.4881,-1.4884,0.0,0.0,0.0,0.0,0.0,0.0,0.0,0.0,0.0,0.0,0.0,0.0,0.0,0.0,0.0,0.0,0.0,0.0,0.0,0.0,0.0,0.0,0.0,0.0,0.0,0.0,0.0,0.0,0.0,0.0,0.0,0.0,0.0,0.0,0.0,0.0,0.0,0.0,0.0,0.0,0.0,-1.2389,-1.3374,-1.4349,-1.4906,0.0,0.0,-1.4521,-1.4534,-1.4397,-1.432,-1.4246,0.0,0.0,0.0,0.0,0.0,0.0,0.0,0.0,0.0,0.0,0.0,0.0,0.0,0.0,0.0,0.0,0.0,0.0,0.0,0.0,0.0,0.0,0.0,0.0,0.0,0.0,0.0,0.0,0.0,0.0,0.0,0.0,0.0,0.0,0.0,0.0,0.0,0.0,0.0,0.0,0.0,0.0,0.0,0.0,0.0,0.0,0.0,0.0,0.0,0.0,0.0,0.0,0.0,-1.5512,-1.5978,-1.5485,-1.5036,-1.4766,-1.5101,-1.4908,-1.4069,-1.4912,-1.4995,0.0,0.0,0.0,0.0,0.0,0.0,0.0,0.0,0.0,0.0,0.0,0.0,0.0,0.0,0.0,0.0,0.0,0.0,0.0,0.0,0.0,0.0,0.0,0.0,0.0,0.0,0.0,0.0,-0.8065,-0.7276,-0.7662,0.0,0.0,0.0,0.0,0.0,0.0,0.0,0.0,0.0,0.0,-1.3924,-1.4398,-1.4798,0.0,0.0,-1.4867,-1.4804,-1.4775,-1.4687,-1.4603,-1.4488,-1.3702,0.0,0.0,0.0,0.0,0.0,0.0,0.0,0.0,0.0,0.0,0.0,0.0,0.0,0.0,0.0,0.0,0.0,0.0,0.0,0.0,0.0,0.0,0.0,0.0,0.0,0.0,0.0,0.0,0.0,0.0,0.0,0.0,0.0,0.0,0.0,0.0,0.0,0.0,0.0,0.0,0.0,0.0,0.0,0.0,0.0,0.0,0.0,0.0,0.0,0.0,0.0,0.0,-1.5927,-1.6499,-1.6129,-1.5944,-1.5983,-1.5777,-1.5371,-1.4838,-1.5423,-1.5472,0.0,0.0,0.0,0.0,0.0,0.0,0.0,0.0,0.0,0.0,0.0,0.0,0.0,0.0,0.0,0.0,0.0,0.0,0.0,0.0,0.0,0.0,0.0,0.0,0.0,0.0,0.0,0.0,-0.8019,-0.703,-0.777,0.0,0.0,0.0,0.0,0.0,0.0,0.0,0.0,0.0,0.0,-1.4822,-1.4984,-1.5071,-1.5078,-1.5038,-1.496,-1.4919,-1.4841,-1.4776,-1.477,-1.4876,0.0,0.0,0.0,0.0,0.0,0.0,0.0,0.0,0.0,0.0,0.0,0.0,0.0,0.0,0.0,0.0,0.0,0.0,0.0,0.0,0.0,0.0,0.0,0.0,0.0,0.0,0.0,0.0,0.0,0.0,-1.1576,0.0,0.0,0.0,0.0,0.0,0.0,0.0,0.0,0.0,0.0,0.0,0.0,0.0,0.0,0.0,0.0,0.0,0.0,0.0,0.0,0.0,0.0,-1.6491,-1.6538,-1.7234,-1.7645,-1.7716,-1.6918,-1.6493,-1.6527,-1.6565,-1.6586,-1.6621,0.0,0.0,0.0,0.0,0.0,0.0,0.0,0.0,0.0,0.0,0.0,0.0,0.0,0.0,0.0,0.0,0.0,0.0,0.0,0.0,0.0,0.0,0.0,0.0,0.0,0.0,-1.0187,-0.8788,-0.8276,0.0,0.0,0.0,0.0,0.0,0.0,0.0,0.0,0.0,0.0,-1.4904,-1.4947,-1.5114,-1.5124,-1.5188,-1.5155,-1.508,-1.5003,-1.4968,-1.4888,-1.5015,0.0,0.0,0.0,0.0,0.0,0.0,0.0,0.0,0.0,0.0,0.0,0.0,0.0,0.0,0.0,0.0,0.0,0.0,0.0,0.0,0.0,0.0,0.0,0.0,0.0,0.0,0.0,-1.3074,-1.3121,0.0,0.0,0.0,0.0,0.0,0.0,0.0,0.0,0.0,0.0,0.0,-2.0804,-1.9818,0.0,0.0,0.0,0.0,0.0,0.0,0.0,0.0,0.0,0.0,0.0,0.0,-1.7045,-1.8075,-1.787,-1.7991,-1.8556,-1.7799,-1.7366,-1.7398,-1.7426,-1.7507,-1.7556,0.0,0.0,0.0,0.0,0.0,0.0,0.0,0.0,0.0,0.0,0.0,0.0,0.0,0.0,0.0,0.0,0.0,0.0,0.0,0.0,0.0,0.0,0.0,0.0,0.0,-1.2697,0.0,0.0,0.0,0.0,0.0,0.0,0.0,0.0,0.0,0.0,0.0,-1.6848,-1.6647,-1.566,-1.5391,-1.6594,-1.6755,-1.6755,0.0,0.0,0.0,0.0,0.0,0.0,0.0,0.0,0.0,0.0,0.0,0.0,0.0,0.0,-1.513,-1.4861,-1.4744,-1.4246,-1.2993,0.0,0.0,0.0,0.0,0.0,0.0,0.0,0.0,0.0,0.0,0.0,0.0,0.0,0.0,-1.5735,0.0,-1.5533,0.0,0.0,0.0,0.0,0.0,0.0,0.0,0.0,-2.0059,-2.1015,-2.2574,-2.1597,-2.1393,0.0,-2.1372,-2.0554,0.0,0.0,0.0,0.0,0.0,0.0,0.0,0.0,-1.8352,-1.94,-1.9468,-1.9742,-2.0262,-1.9528,-1.9117,-1.9109,-1.8915,-1.8966,-1.9314,-1.875,-1.8203,0.0,0.0,0.0,0.0,0.0,0.0,0.0,0.0,0.0,0.0,0.0,0.0,0.0,0.0,0.0,0.0,0.0,0.0,0.0,0.0,0.0,0.0,0.0,-1.323,0.0,0.0,0.0,0.0,0.0,0.0,0.0,0.0,0.0,-1.6706,-1.7359,-1.7823,-1.7553,-1.7096,-1.6971,-1.7527,0.0,0.0,0.0,0.0,0.0,0.0,0.0,-1.7449,-1.7667,-1.7594,-1.7603,-1.7797,-1.7729,-1.7629,-1.765,0.0,0.0,-1.6407,-1.6166,-1.5799,-1.4814,-1.4607,-1.4311,-1.3295,-1.3068,-1.3085,0.0,0.0,0.0,0.0,0.0,0.0,0.0,0.0,-1.904,-1.911,0.0,-1.8397,0.0,0.0,0.0,0.0,0.0,-1.9077,0.0,0.0,-2.1911,-2.2746,-2.2901,-2.294,-2.2929,-2.2908,-2.2889,-2.287,-2.2716,-2.0385,0.0,0.0,0.0,0.0,0.0,0.0,-2.0337,-2.0434,-2.1925,-2.2774,-2.2725,-2.2015,-2.1628,-2.1597,-2.0951,-2.097,-2.1727,-2.0291,-1.9414,-1.9414,-1.8613,0.0,0.0,0.0,0.0,0.0,0.0,0.0,0.0,0.0,0.0,0.0,0.0,0.0,0.0,0.0,0.0,0.0,0.0,0.0,0.0,-1.428,0.0,0.0,0.0,0.0,0.0,0.0,0.0,0.0,0.0,0.0,-1.788,-1.8374,-1.8563,-1.7814,0.0,0.0,0.0,0.0,-1.8406,-1.7871,-1.777,-1.7772,-1.7678,-1.7652,-1.7909,-1.8537,0.0,0.0,-1.9473,-1.9495,-1.9357,-1.9402,-1.9216,-1.8653,-1.6944,-1.6666,-1.6612,-1.6509,-1.6476,-1.6478,-1.6378,-1.6058,-1.6165,-2.4393,0.0,0.0,0.0,0.0,-2.145,-2.1868,-2.2429,-2.2511,-2.2225,-2.1717,-2.1498,0.0,0.0,0.0,0.0,0.0,0.0,-2.1848,-2.3629,-2.4258,-2.5184,-2.631,-2.5773,-2.5495,-2.5486,-2.4889,-2.4582,-2.4524,-2.3263,-2.2057,-2.0873,0.0,0.0,0.0,0.0,-2.0877,-2.2018,-2.256,-2.2793,-2.2793,-2.2631,-2.255,-2.2591,-2.2446,-2.2474,-2.2703,-2.2264,-2.2012,-2.1992,-2.123,0.0,0.0,0.0,0.0,0.0,0.0,0.0,0.0,0.0,0.0,0.0,0.0,0.0,0.0,0.0,0.0,0.0,0.0,0.0,-1.599,-1.563,-1.5376,0.0,0.0,0.0,0.0,0.0,0.0,0.0,0.0,0.0,-2.1293,-2.0399,-1.9724,0.0,0.0,-1.9945,-1.9513,-2.0269,-2.0738,-2.0375,-2.0786,0.0,-2.0375,-2.025,-2.0087,-1.9754,-1.9557,-1.9586,-1.979,-1.9738,-1.9668,-1.9641,-1.9546,-1.928,-1.8798,-1.8468,-1.8143,-1.7643,-1.7498,-1.7284,-1.676,-1.6601,-1.6619,-2.9557,-2.6789,-2.5578,-2.5002,-2.4954,-2.5059,-2.5397,-2.5869,-2.5597,-2.5205,-2.4734,-2.4112,-2.3308,-2.2428,-2.2169,0.0,0.0,0.0,-2.4031,-2.564,-2.6079,-2.6836,-2.7772,-2.7351,-2.7121,-2.7063,-2.6236,-2.5813,-2.5813,-2.4986,-2.3908,-2.259,0.0,0.0,-2.2076,-2.1902,-2.2296,-2.327,-2.3629,-2.3812,-2.3793,-2.3854,-2.3937,-2.3986,-2.3727,-2.3598,-2.3601,-2.328,-2.3105,-2.3105,-2.2656,-2.2012,0.0,0.0,0.0,0.0,0.0,0.0,0.0,0.0,0.0,0.0,0.0,-1.5816,0.0,0.0,0.0,0.0,-1.6886,-1.6886,-1.6845,-1.6758,0.0,0.0,0.0,0.0,0.0,0.0,0.0,-2.1273,-2.2202,-2.2881,-2.2856,-2.1949,-2.1305,-2.1281,-2.1203,-2.1186,-2.1215,0.0,-2.2106,-2.1953,-2.2335,-2.2459,-2.1991,-2.1885,-2.1693,-2.1197,-2.1061,-2.1001,-2.098,-2.0657,-2.0387,-2.0282,-1.997,-1.966,-1.9541,-1.938,-1.9133,-1.8614,-1.8471,-1.8273,-1.7803,-1.773,-1.7715,-3.4556,-3.3642,-3.0717,-2.9369,-2.9177,-2.9107,-2.9125,-2.9137,-2.8351,-2.7999,-2.7879,-2.6431,-2.5715,-2.555,-2.4894,0.0,-2.4823,-2.5781,-2.6332,-2.6632,-2.7508,-2.7969,-2.8102,-2.8025,-2.7986,-2.7967,-2.7101,-2.6717,-2.6659,-2.5899,-2.5081,-2.4303,-2.3494,-2.3067,-2.3036,-2.3732,-2.4128,-2.4224,-2.4918,-2.5293,-2.5293,-2.5359,-2.5414,-2.5467,-2.4798,-2.4443,-2.4475,-2.3747,-2.3301,-2.3301,-2.3379,-2.2969,-2.2051,0.0,0.0,0.0,0.0,0.0,0.0,0.0,0.0,0.0,0.0,0.0,0.0,0.0,0.0,0.0,-1.7838,0.0,-1.7989,-1.7953,0.0,0.0,0.0,-2.0299,-2.0489,-2.2004,-2.3023,-2.3021,0.0,0.0,-2.3193,-2.3201,-2.3185,-2.3118,-2.2943,-2.2804,-2.2804,-2.2777,-2.2825,-2.2796,-2.2873,-2.2901,-2.2815,-2.27,-2.2604,-2.2575,-2.271,-2.2575,-2.2478,-2.1941,-2.142,-2.1328,-2.0592,-2.002,-1.986,-1.9857,-1.9674,-1.9678,-1.9412,-1.9256,-1.917,-1.9154,-1.9118,-3.6047,-3.6328,-3.552,-3.4156,-3.2433,-3.1876,-3.1652,-3.1626,-3.0876,-3.0191,-2.9604,-2.9219,-2.8374,-2.7203,-2.6519,-2.6302,-2.645,-2.6836,-2.7456,-2.8226,-2.8567,-2.906,-2.9682,-2.9091,-2.8813,-2.8756,-2.7986,-2.7582,-2.7582,-2.739,-2.6842,-2.6025,-2.5803,-2.5062,-2.3857,-2.4,-2.4444,-2.5081,-2.5274,-2.537,-2.5389,-2.5397,-2.5418,-2.5498,-2.5368,-2.5321,-2.5373,-2.521,-2.5077,-2.5078,-2.5098,-2.4434,-2.2969,-2.2715,0.0,0.0,0.0,0.0,0.0,0.0,0.0,0.0,0.0,-1.804,-1.9737,0.0,-1.8956,0.0,-1.969,-1.9941,-2.0596,-2.0662,0.0,0.0,-2.1008,-2.1537,-2.2278,-2.3314,-2.3996,-2.4049,-2.4646,-2.5048,-2.4997,-2.4977,-2.4982,-2.4936,-2.369,-2.2791,-2.2812,-2.3314,-2.3688,-2.3745,-2.4216,-2.4437,-2.3784,-2.315,-2.2814,-2.2794,-2.2776,-2.2786,-2.2757,-2.2547,-2.2354,-2.2272,-2.2068,-2.179,-2.1572,-2.1484,-2.1368,-2.1253,-2.0252,-1.9289,-1.9289,-1.9308,-1.9295,-3.8465,-3.8834,-3.8736,-3.7936,-3.6723,-3.5261,-3.4485,-3.4165,-3.3358,-3.2559,-3.1751,-3.1054,-3.0228,-2.9407,-2.9038,-2.8966,-2.9169,-2.9344,-2.9799,-3.0434,-3.0611,-3.095,-3.1418,-3.0629,-3.0256,-3.0217,-2.9006,-2.8429,-2.842,-2.8082,-2.767,-2.718,-2.7189,-2.6515,-2.5254,-2.4868,-2.4906,-2.5379,-2.538,-2.5351,-2.5351,-2.5388,-2.5421,-2.5515,-2.557,-2.544,-2.5144,-2.5107,-2.4938,-2.4589,-2.4531,-2.3965,-2.2695,-2.2617,-2.164,0.0,0.0,0.0,0.0,0.0,0.0,0.0,0.0,0.0,0.0,0.0,-2.0579,-2.1436,-2.1493,-2.1709,-2.2182,-2.226,-2.225,-2.2274,-2.2605,-2.3056,-2.3567,-2.4409,-2.495,-2.4976,-2.5398,-2.5676,-2.5659,-2.5642,-2.5632,-2.5609,-2.4697,-2.3983,-2.3992,-2.4322,-2.4581,-2.4601,-2.4995,-2.5148,-2.463,-2.4226,-2.3928,-2.3908,-2.3899,-2.3909,-2.389,-2.3554,-2.3256,-2.3176,-2.2802,-2.245,-2.2279,-2.2125,-2.2009,-2.1787,-2.1115,-2.0499,-2.0425,-2.0097,-1.9824,-4.0899,-4.0972,-4.078,-4.0817,-4.0835,-3.8784,-3.7424,-3.6541,-3.5605,-3.4724,-3.388,-3.2357,-3.1666,-3.1556,-3.1513,-3.1616,-3.1801,-3.2002,-3.2241,-3.2496,-3.2645,-3.276,-3.2858,-3.2186,-3.1852,-3.1775,-3.0198,-2.941,-2.941,-2.8602,-2.8159,-2.8063,-2.8063,-2.7612,-2.6766,-2.6083,-2.561,-2.5398,-2.5322,-2.5313,-2.5313,-2.536,-2.5432,-2.5492,-2.5557,-2.5231,-2.4452,-2.4415,-2.3998,-2.3179,-2.3221,-2.289,-2.2109,-2.2148,-2.1503,0.0,-1.9775,0.0,0.0,0.0,0.0,0.0,0.0,0.0,0.0,-2.2084,-2.2332,-2.3042,-2.3145,-2.3218,-2.3333,-2.3394,-2.3427,-2.3458,-2.4102,-2.4573,-2.4589,-2.5249,-2.5689,-2.5691,-2.5698,-2.57,-2.5698,-2.5687,-2.5684,-2.5604,-2.5471,-2.5323,-2.5363,-2.5293,-2.5255,-2.5313,-2.5313,-2.5264,-2.5226,-2.5226,-2.5187,-2.5255,-2.5168,-2.5313,-2.5207,-2.4639,-2.4149,-2.4022,-2.3468,-2.2897,-2.2644,-2.2566,-2.243,-2.236,-2.2204,-2.2005,-2.1711,-2.1143,-2.0666,-4.1348,-4.1933,-4.1792,-4.1796,-4.1885,-4.1464,-4.0115,-3.8138,-3.6688,-3.5587,-3.4724,-3.377,-3.2989,-3.2415,-3.1844,-3.1691,-3.189,-3.2042,-3.2216,-3.2424,-3.2622,-3.2742,-3.2818,-3.2731,-3.266,-3.2622,-3.1698,-3.1198,-3.1198,-3.0333,-2.9571,-2.8875,-2.886,-2.8478,-2.768,0.0,0.0,0.0,-2.5332,-2.5341,-2.537,-2.5398,-2.5443,-2.5507,-2.5525,0.0,-2.4448,-2.4422,-2.3987,-2.3194,-2.3781,0.0,0.0,0.0,0.0,0.0,0.0,0.0,0.0,0.0,0.0,0.0,-2.2484,-2.2812,-2.3801,-2.3898,-2.3954,-2.4099,-2.4115,-2.4422,-2.5105,-2.5208,-2.5209,-2.5227,-2.5364,-2.5439,-2.5471,-2.5607,-2.5693,-2.5702,-2.5703,-2.5703,-2.5703,-2.5696,-2.5679,-2.5616,-2.5591,-2.5544,-2.5495,-2.5415,-2.5361,-2.5313,-2.5313,-2.5313,-2.5313,-2.5313,-2.5313,-2.5313,-2.5313,-2.5313,-2.5264,-2.5187,-2.5014,-2.4924,-2.4774,-2.4517,-2.4322,-2.4204,-2.3971,-2.3858,-2.3769,-2.3345,-2.2115,-2.1675,-2.1345,-4.2425,0.0,-4.2648,-4.2668,0.0,-4.2356,-4.1562,-4.0368,-3.8781,-3.7415,-3.625,-3.5441,-3.4907,-3.457,-3.3815,-3.3589,-3.3751,-3.351,-3.3489,-3.3691,-3.3875,-3.4021,-3.4079,-3.3711,-3.3526,-3.3506,-3.2679,-3.2314,-3.2256,-3.1852,-3.1398,-3.0994,-3.0968,-3.0352,-2.9151,-2.8315,-2.7479,-2.6641,-2.6602,-2.6602,-2.6612,-2.6256,-2.6069,-2.6122,-2.5758,0.0,0.0,0.0,0.0,0.0,0.0,0.0,0.0,-2.3925,0.0,-2.3789,-2.414,-2.4391,-2.4389,-2.4779,-2.4837,-2.4407,-2.4383,-2.4381,-2.4403,-2.4775,-2.5029,-2.5045,-2.5041,-2.5217,-2.5636,-2.57,-2.5702,-2.5702,-2.5702,-2.5702,-2.5699,-2.5699,-2.5701,-2.5703,-2.5703,-2.5703,-2.5703,-2.5702,-2.5675,-2.5657,-2.5625,-2.5595,-2.5551,-2.5464,-2.5379,-2.5293,-2.5313,-2.5313,-2.5313,-2.5313,-2.5313,-2.5313,-2.5313,-2.5313,-2.5313,-2.5313,-2.5293,-2.5222,-2.5149,-2.5024,-2.4847,-2.4689,-2.453,-2.4339,-2.4247,-2.3988,-2.3125,-2.2666,-2.2281,-4.3429,-4.3411,-4.3286,-4.3341,-4.3359,-4.2717,-4.2386,-4.2184,0.0,0.0,0.0,-3.6952,-3.6675,-3.6649,-3.6,-3.5805,-3.5968,-3.546,-3.5308,-3.547,-3.5656,-3.5786,-3.5816,-3.5166,-3.4776,-3.4584,-3.3757,-3.3295,-3.3122,-3.2987,-3.2891,-3.2904,-3.2891,-3.2199,-3.0833,-2.9333,-2.8574,-2.8557,-2.8112,-2.7892,-2.7884,-2.7248,-2.6947,-2.7013,-2.6372,-2.5668,-2.4877,-2.4859,-2.4464,-2.3618,-2.37,-2.3779,-2.3818,-2.4606,-2.5097,-2.5117,-2.5762,-2.6152,-2.617,-2.6834,-2.6931,-2.6208,-2.6163,-2.573,-2.4722,-2.529,-2.5701,-2.5701,-2.5696,-2.5693,-2.5693,-2.5701,-2.5703,-2.5703,-2.5703,-2.5703,-2.5703,-2.5703,-2.5703,-2.5703,-2.5703,-2.5703,-2.5703,-2.5703,-2.5702,-2.5689,-2.5648,-2.5613,-2.5587,-2.5488,-2.5397,-2.5351,-2.5313,-2.5313,-2.5313,-2.5313,-2.5313,-2.5313,-2.5313,-2.5313,-2.5313,-2.5313,-2.5283,-2.5222,-2.5149,-2.5024,-2.4861,-2.4707,-2.4549,-2.4358,-2.4266,-2.419,-2.4135,-2.3676,-2.3143,-4.3497,-4.3497,-4.3444,-4.3463,-4.3481,-4.3387,-4.2947,-4.2194,-4.0662,-3.9135,-3.7691,-3.7701,-3.7396,-3.6948,-3.6896,-3.6955,-3.716,-3.7177,-3.7242,-3.7311,-3.7456,-3.7536,-3.7544,-3.7493,-3.7065,-3.6334,-3.5512,-3.4737,-3.4007,-3.3276,-3.2891,-3.291,-3.2904,-3.2788,-3.2499,-3.1621,-3.116,-3.1102,-2.9006,-2.7881,-2.7893,-2.7788,-2.7777,-2.7826,-2.7763,-2.7373,-2.6591,-2.6587,-2.6236,-2.5416,-2.6048,-2.644,-2.6495,-2.7256,-2.7748,-2.7754,-2.7871,-2.793,-2.793,-2.8047,-2.8066,-2.7947,-2.794,-2.727,-2.5689,-2.5623,-2.5703,-2.5703,-2.5742,-2.5703,-2.5703,-2.5703,-2.5703,-2.5703,-2.5703,-2.5703,-2.5703,-2.5703,-2.5703,-2.5703,-2.5703,-2.5703,-2.5703,-2.5703,-2.5702,-2.5693,-2.5683,-2.5642,-2.5549,-2.5461,-2.5406,-2.5389,-2.5322,-2.5293,-2.5313,-2.5313,-2.5313,-2.5313,-2.5313,-2.5313,-2.5313,-2.5313,-2.5274,-2.5222,-2.5149,-2.5056,-2.4907,-2.4723,-2.4566,-2.4411,-2.4284,-2.4209,-2.419,-2.4043,-2.3768,-4.3479,-4.3479,-4.3479,-4.3479,-4.3479,-4.3479,-4.3039,-4.2268,-4.1646,-4.0486,-3.9116,-3.9194,-3.8917,-3.838,-3.8052,-3.8016,-3.8194,-3.7852,-3.7752,-3.7792,-3.7874,-3.7939,-3.7939,-3.8007,-3.7796,-3.7392,-3.7046,-3.6411,-3.5584,-3.5141,-3.4757,-3.4314,-3.3833,-3.3603,-3.3551,-3.2763,-3.2141,-3.1679,-3.0083,-2.9267,-2.9242,-2.8828,-2.8637,-2.8692,-2.8315,-2.7971,-2.7625,-2.7651,-2.7488,-2.7122,-2.7476,-2.7693,-2.7733,-2.8533,-2.9002,-2.9023,-2.9453,-2.9707,-2.9726,-2.9258,-2.9004,-2.9003,-2.8572,-2.7985,-2.7184,-2.7109,-2.6914,-2.6465,-2.6406,-2.6211,-2.5762,-2.5703,-2.5703,-2.5703,-2.5703,-2.5703,-2.5703,-2.5703,-2.5703,-2.5703,-2.5703,-2.5703,-2.5703,-2.5703,-2.5703,-2.5697,-2.5691,-2.5668,-2.556,-2.549,-2.5451,-2.5407,-2.5351,-2.5313,-2.5313,-2.5313,-2.5313,-2.5313,-2.5313,-2.5313,-2.5313,-2.5313,-2.5274,-2.5252,-2.519,-2.5099,-2.4934,-2.4764,-2.4596,-2.443,-2.4303,-2.4209,-2.4209,-2.419,-2.4061,-4.3479,-4.3479,-4.3479,-4.3479,-4.3479,-4.3479,-4.313,-4.2613,-4.2728,-4.2026,-4.0889,-4.0794,-4.0476,-3.9958,-3.9648,-3.9546,-3.947,-3.9178,-3.9035,-3.9077,-3.9061,-3.9096,-3.9104,-3.8969,-3.8757,-3.8565,-3.8373,-3.7853,-3.7084,-3.6988,-3.668,-3.604,-3.5199,-3.4776,-3.4749,-3.3705,-3.2891,-3.2237,-3.1391,-3.0806,-3.0386,-2.977,-2.9524,-2.9525,-2.898,-2.8694,-2.8765,-2.8788,-2.8811,-2.886,-2.8865,-2.8867,-2.8926,-2.9531,-2.9902,-2.9961,-3.0527,-3.0918,-3.0879,-3.0293,-2.9883,-2.9883,-2.9277,-2.8887,-2.8887,-2.8887,-2.8418,-2.75,-2.7305,-2.7012,-2.6504,-2.6348,-2.6289,-2.6269,-2.6094,-2.6035,-2.5996,-2.584,-2.5703,-2.5703,-2.5703,-2.5703,-2.5703,-2.5703,-2.5703,-2.57,-2.5691,-2.5662,-2.56,-2.5538,-2.5456,-2.5416,-2.5351,-2.5313,-2.5313,-2.5313,-2.5313,-2.5313,-2.5313,-2.5313,-2.5313,-2.5313,-2.5303,-2.5292,-2.522,-2.5122,-2.4955,-2.4808,-2.4663,-2.4481,-2.4321,-2.421,-2.419,-2.419,-2.4209,-4.3516,-4.3479,-4.3516,-4.3479,-4.3479,-4.3479,-4.3424,-4.3403,-4.3557,-4.3272,-4.25,-4.2144,-4.1612,-4.1225,-4.1951,-4.1952,-4.1483,-4.2242,-4.2489,-4.2473,-4.2626,-4.2626,-4.2393,-4.1758,-4.1046,-4.0258,-3.9546,-3.8815,-3.7988,-3.7873,-3.7829,-3.7698,-3.6906,-3.643,-3.6252,-3.4885,-3.4045,-3.3949,-3.3103,-3.1929,-3.0487,-3.0317,-3.0332,-3.0374,-3.0366,-3.0405,-3.0406,-3.052,-3.0552,-3.0587,-3.0525,-3.0566,-3.0644,-3.0742,-3.0781,-3.0801,-3.0898,-3.0918,-3.0898,-3.082,-3.0742,-3.0781,-3.0664,-3.0566,-3.0586,-3.0625,-2.9941,-2.8633,-2.8203,-2.8125,-2.8066,-2.7969,-2.7871,-2.7773,-2.7285,-2.6875,-2.6797,-2.6172,-2.5703,-2.5703,-2.5801,-2.5703,-2.5703,-2.5703,-2.5703,-2.5699,-2.5698,-2.5679,-2.5605,-2.5499,-2.5418,-2.5387,-2.5322,-2.5293,-2.5313,-2.5313,-2.5313,-2.5313,-2.5313,-2.5313,-2.5313,-2.5303,-2.5303,-2.5302,-2.525,-2.5134,-2.5006,-2.4851,-2.4692,-2.4564,-2.4374,-2.421,-2.4192,-2.421,-2.4228,-4.4635,-4.4232,-4.4213,-4.392,-4.3516,-4.3479,-4.3479,-4.3532,-4.3719,-4.3698,-4.3534,-4.3558,-4.2982,-4.1965,-4.2504,-4.2622,-4.2464,-4.2879,-4.3085,-4.3085,-4.3088,-4.3088,-4.3047,-4.2758,-4.2374,-4.1989,-4.1181,-4.0335,-3.9431,-3.8488,-3.8003,-3.7978,-3.7623,-3.7214,-3.6689,-3.6021,-3.5199,-3.4218,-3.3853,-3.3083,-3.1987,-3.1422,-3.0926,-3.0554,-3.0944,-3.1294,-3.1394,-3.1455,-3.1465,-3.1484,-3.106,-3.1051,-3.1582,-3.1641,-3.1894,-3.2285,-3.1914,-3.1426,-3.0957,-3.0918,-3.0918,-3.0918,-3.0918,-3.0918,-3.0918,-3.0918,-3.0566,-2.9961,-2.9375,-2.8887,-2.8418,-2.8301,-2.8281,-2.8242,-2.7969,-2.7773,-2.7754,-2.7461,-2.707,-2.6602,-2.6465,-2.625,-2.582,-2.5701,-2.5697,-2.5691,-2.5707,-2.5671,-2.5595,-2.5485,-2.541,-2.5387,-2.5341,-2.5313,-2.5313,-2.5313,-2.5313,-2.5313,-2.5313,-2.5313,-2.5313,-2.5313,-2.5303,-2.5293,-2.5252,-2.5179,-2.5091,-2.4947,-2.4783,-2.4626,-2.4445,-2.4266,-2.4266,-2.4266,-2.4247,-4.5571,-4.5039,-4.4799,-4.4248,-4.3497,-4.3479,-4.3479,-4.3513,-4.3719,-4.3883,-4.4036,-4.4393,-4.4026,-4.3232,-4.3342,-4.3388,-4.3347,-4.3628,-4.3797,-4.3778,-4.3797,-4.3797,-4.3758,-4.3508,-4.3431,-4.3316,-4.2566,-4.1816,-4.1123,-4.0065,-3.9277,-3.908,-3.8815,-3.8257,-3.7445,-3.7007,-3.6103,-3.5007,-3.468,-3.4141,-3.3276,-3.2679,-3.198,-3.1234,-3.1719,-3.2122,-3.2213,-3.2266,-3.2292,-3.2348,-3.1799,-3.1784,-3.2402,-3.25,-3.2793,-3.3242,-3.2637,-3.1934,-3.1289,-3.1035,-3.0918,-3.0918,-3.0918,-3.0918,-3.0918,-3.0918,-3.0918,-3.082,-3.0312,-2.9668,-2.916,-2.9004,-2.9023,-2.9004,-2.8848,-2.8652,-2.8652,-2.8496,-2.8008,-2.7461,-2.7363,-2.7031,-2.6248,-2.5888,-2.5698,-2.5698,-2.5701,-2.5663,-2.5579,-2.5478,-2.5421,-2.5387,-2.5341,-2.5313,-2.5313,-2.5313,-2.5313,-2.5313,-2.5313,-2.5313,-2.5313,-2.5313,-2.5313,-2.5293,-2.5262,-2.5201,-2.5134,-2.5013,-2.4842,-2.4626,-2.4462,-2.4339,-2.4339,-2.4321,-2.4284,-4.5883,-4.5736,-4.5035,-4.4299,-4.3516,-4.3516,-4.3497,-4.3532,-4.3719,-4.3865,-4.4036,-4.4354,-4.4621,-4.473,-4.4949,-4.4863,-4.4419,-4.501,-4.5316,-4.5316,-4.5374,-4.5451,-4.5413,-4.4662,-4.4239,-4.4182,-4.3412,-4.2951,-4.2874,-4.2797,-4.2447,-4.1578,-4.0716,-3.995,-3.9031,-3.7589,-3.6699,-3.6372,-3.5776,-3.5026,-3.4257,-3.4083,-3.3622,-3.2904,-3.289,-3.2976,-3.3051,-3.3113,-3.3172,-3.3245,-3.318,-3.3261,-3.3335,-3.3379,-3.3437,-3.3379,-3.2715,-3.2226,-3.2031,-3.1387,-3.0957,-3.0918,-3.0918,-3.0918,-3.0918,-3.0918,-3.0918,-3.0898,-3.0801,-3.0703,-3.0625,-3.0469,-3.0566,-3.0547,-2.9961,-2.959,-2.9551,-2.8945,-2.8379,-2.8242,-2.8164,-2.7715,-2.6962,-2.6194,-2.5834,-2.5736,-2.5687,-2.5658,-2.5537,-2.5485,-2.5453,-2.5397,-2.5351,-2.5313,-2.5313,-2.5313,-2.5313,-2.5313,-2.5313,-2.5313,-2.5313,-2.5313,-2.5313,-2.5303,-2.5283,-2.5241,-2.5187,-2.5038,-2.4832,-2.4657,-2.4515,-2.4412,-2.4376,-2.4339,-2.4321,-4.7131,-4.6599,-4.5805,-4.4996,-4.4287,-4.4265,-4.397,-4.3532,-4.3738,-4.3883,-4.4067,-4.4411,-4.4693,-4.4986,-4.5275,-4.5265,-4.5074,-4.5435,-4.5586,-4.5586,-4.5586,-4.5586,-4.5566,-4.5259,-4.5124,-4.5009,-4.4278,-4.3605,-4.3124,-4.3085,-4.2951,-4.2563,-4.1739,-4.0912,-4.0008,-3.895,-3.7873,-3.6796,-3.6392,-3.5872,-3.5141,-3.5045,-3.4866,-3.4565,-3.4038,-3.3805,-3.3862,-3.3945,-3.3992,-3.4081,-3.3624,-3.361,-3.4205,-3.4763,-3.4785,-3.4277,-3.3965,-3.334,-3.2344,-3.1914,-3.1484,-3.0957,-3.0918,-3.0918,-3.0918,-3.0918,-3.0918,-3.0918,-3.0918,-3.0918,-3.0918,-3.0918,-3.0918,-3.0859,-3.0625,-3.0391,-3.0391,-3.0137,-2.9766,-2.9219,-2.8672,-2.7949,-2.7313,-2.673,-2.6321,-2.5823,-2.5664,-2.5591,-2.5525,-2.5456,-2.5432,-2.5407,-2.5351,-2.5313,-2.5313,-2.5313,-2.5313,-2.5313,-2.5313,-2.5313,-2.5313,-2.5313,-2.5313,-2.5303,-2.5312,-2.5282,-2.5209,-2.5063,-2.4861,-2.4704,-2.4566,-2.4465,-2.4412,-2.4358,-2.4303,-4.7847,-4.7076,-4.6525,-4.5809,-4.5131,-4.5073,-4.4632,-4.3954,-4.4107,-4.4124,-4.4135,-4.4421,-4.4764,-4.5057,-4.5277,-4.5419,-4.5457,-4.555,-4.5586,-4.5586,-4.5586,-4.5586,-4.5586,-4.5586,-4.5586,-4.5509,-4.5009,-4.4412,-4.3989,-4.3912,-4.3758,-4.3434,-4.2874,-4.2027,-4.0985,-4.01,-3.895,-3.7757,-3.7276,-3.6853,-3.6372,-3.6329,-3.6337,-3.6273,-3.5797,-3.5222,-3.4754,-3.4777,-3.4865,-3.4831,-3.4419,-3.4432,-3.5098,-3.5679,-3.5742,-3.5195,-3.4824,-3.4101,-3.2812,-3.2344,-3.1797,-3.0996,-3.0918,-3.0918,-3.0918,-3.0918,-3.0918,-3.0918,-3.0918,-3.0918,-3.0918,-3.0918,-3.0918,-3.0918,-3.0918,-3.0918,-3.0918,-3.0898,-3.0605,-3.0039,-2.9277,-2.8535,-2.7944,-2.762,-2.7056,-2.6209,-2.5831,-2.56,-2.5518,-2.5429,-2.5369,-2.5361,-2.5341,-2.5313,-2.5303,-2.5303,-2.5322,-2.5341,-2.5313,-2.5313,-2.5313,-2.5313,-2.5303,-2.5303,-2.5293,-2.5273,-2.5209,-2.5075,-2.4921,-2.4783,-2.4647,-2.4515,-2.4446,-2.4358,-2.4303,-4.7865,-4.7204,-4.711,-4.6635,-4.5975,-4.5902,-4.5443,-4.4836,-4.4936,-4.48,-4.4512,-4.4627,-4.5098,-4.5236,-4.5528,-4.5534,-4.5629,-4.5626,-4.5586,-4.5586,-4.5586,-4.5586,-4.5586,-4.5586,-4.5586,-4.5586,-4.5566,-4.5528,-4.5374,-4.5316,-4.5009,-4.4414,-4.4162,-4.3256,-4.1825,-4.0947,-4.0085,-3.9142,-3.8354,-3.795,-3.7988,-3.7877,-3.7855,-3.7938,-3.7901,-3.7207,-3.5753,-3.5708,-3.5745,-3.5791,-3.5775,-3.589,-3.5843,-3.597,-3.5991,-3.5794,-3.519,-3.4352,-3.3496,-3.2656,-3.1914,-3.1172,-3.0957,-3.0918,-3.0918,-3.0918,-3.0918,-3.0918,-3.0918,-3.0918,-3.0918,-3.0918,-3.0918,-3.0918,-3.0918,-3.0918,-3.0918,-3.0918,-3.0898,-3.0703,-3.0059,-2.9648,-2.9394,-2.8783,-2.7964,-2.7078,-2.6173,-2.574,-2.587,-2.583,-2.5495,-2.5486,-2.5755,-2.5967,-2.5649,-2.5341,-2.536,-2.538,-2.5322,-2.5313,-2.5313,-2.5313,-2.5313,-2.5303,-2.5303,-2.5283,-2.5241,-2.5111,-2.4987,-2.4837,-2.4707,-2.4566,-2.4446,-2.4358,-2.4284,-4.8159,-4.7939,-4.7919,-4.7461,-4.6745,-4.6726,-4.6324,-4.5697,-4.5817,-4.5932,-4.602,-4.6364,-4.6695,-4.6781,-4.6568,-4.6398,-4.6414,-4.5913,-4.5586,-4.5605,-4.5605,-4.5586,-4.5586,-4.5586,-4.5586,-4.5586,-4.5586,-4.5586,-4.5586,-4.5586,-4.5413,-4.5143,-4.4586,-4.3758,-4.2717,-4.1816,-4.0758,-3.9431,-3.9046,-3.8657,-3.8147,-3.8103,-3.8132,-3.8172,-3.8233,-3.8005,-3.7536,-3.6973,-3.6689,-3.6674,-3.6184,-3.5919,-3.5939,-3.5985,-3.6004,-3.5985,-3.577,-3.5204,-3.4332,-3.3469,-3.2615,-3.1815,-3.123,-3.0937,-3.0918,-3.0898,-3.0918,-3.0918,-3.0918,-3.0918,-3.0918,-3.0918,-3.0976,-3.0918,-3.0918,-3.0918,-3.0918,-3.0918,-3.0918,-3.0898,-3.0664,-3.0254,-2.9746,-2.9254,-2.8834,-2.7891,-2.6669,-2.609,-2.6885,-2.7065,-2.7093,-2.7082,-2.7082,-2.6851,-2.6659,-2.6351,-2.612,-2.5813,-2.5524,-2.5332,-2.5313,-2.5313,-2.5313,-2.5313,-2.5313,-2.5293,-2.5241,-2.5145,-2.5038,-2.4888,-2.4731,-2.4594,-2.4464,-2.4358,-2.4266,-4.9224,-4.9205,-4.8914,-4.851,-4.7994,-4.7716,-4.715,-4.6634,-4.6734,-4.6848,-4.6907,-4.7254,-4.7577,-4.7728,-4.7452,-4.73,-4.7222,-4.6471,-4.6086,-4.599,-4.5682,-4.5605,-4.5586,-4.5586,-4.5586,-4.5586,-4.5586,-4.5586,-4.5586,-4.5586,-4.5586,-4.547,-4.5047,-4.4374,-4.353,-4.2701,-4.1566,-4.0373,-3.9892,-3.9518,-3.9138,-3.9044,-3.9083,-3.9176,-3.9266,-3.9334,-3.9344,-3.8553,-3.7806,-3.7131,-3.632,-3.5897,-3.5909,-3.5948,-3.5968,-3.5973,-3.5895,-3.5563,-3.4744,-3.4144,-3.3302,-3.2292,-3.1615,-3.1172,-3.0976,-3.0859,-3.0976,-3.1328,-3.1406,-3.1523,-3.1777,-3.1836,-3.1719,-3.1406,-3.1074,-3.0937,-3.0918,-3.0918,-3.0918,-3.0898,-3.0879,-3.0605,-3.0273,-3.0057,-2.9697,-2.8756,-2.8049,-2.724,-2.8194,-2.8483,-2.8452,-2.8209,-2.7708,-2.7612,-2.7755,-2.7428,-2.6967,-2.637,-2.5774,-2.5486,-2.5313,-2.5313,-2.5313,-2.5313,-2.5313,-2.5293,-2.5252,-2.5209,-2.5118,-2.4942,-2.4775,-2.4642,-2.4479,-2.4358,-2.4266,-5.0784,-5.071,-4.9981,-4.9595,-4.9352,-4.8691,-4.8015,-4.7499,-4.7689,-4.761,-4.7362,-4.7719,-4.7957,-4.8097,-4.824,-4.8164,-4.8048,-4.7336,-4.6951,-4.6721,-4.6201,-4.5759,-4.5605,-4.5586,-4.5586,-4.5586,-4.5586,-4.5586,-4.5586,-4.5586,-4.5586,-4.5566,-4.549,-4.5124,-4.4222,-4.3492,-4.272,-4.1797,-4.1004,-4.0596,-4.0583,-4.0565,-4.0626,-4.0655,-4.0731,-4.0782,-4.0701,-3.995,-3.8858,-3.743,-3.6469,-3.6041,-3.5996,-3.5937,-3.5905,-3.5897,-3.5883,-3.5507,-3.4884,-3.4539,-3.3951,-3.2686,-3.2296,-3.1844,-3.1328,-3.1367,-3.1621,-3.2168,-3.2266,-3.2519,-3.3066,-3.3184,-3.2851,-3.2226,-3.1367,-3.0957,-3.0918,-3.0918,-3.0918,-3.0918,-3.0898,-3.0859,-3.0781,-3.0781,-3.0362,-2.9932,-2.9959,-2.9552,-2.9096,-2.9206,-2.9349,-2.9028,-2.8574,-2.8582,-2.8794,-2.8275,-2.7832,-2.7409,-2.6544,-2.5755,-2.537,-2.5313,-2.5313,-2.5313,-2.5303,-2.5293,-2.5273,-2.522,-2.5134,-2.4981,-2.4832,-2.4654,-2.4512,-2.4356,-2.4284,-5.082,-5.0784,-5.056,-5.016,-4.9648,-4.9375,-4.8993,-4.8473,-4.8744,-4.8852,-4.9012,-4.9403,-4.9583,-4.9813,-4.9259,-4.9048,-4.8856,-4.8182,-4.7798,-4.7644,-4.6932,-4.6182,-4.5701,-4.5586,-4.5586,-4.5586,-4.5586,-4.5586,-4.5586,-4.5586,-4.5586,-4.5586,-4.5566,-4.5182,-4.4357,-4.4068,-4.3566,-4.2758,-4.1944,-4.1566,-4.1523,-4.1061,-4.0837,-4.0943,-4.0988,-4.1032,-4.1028,-4.0262,-3.9307,-3.8169,-3.7233,-3.6728,-3.6645,-3.6176,-3.5854,-3.5776,-3.5784,-3.5772,-3.5422,-3.4885,-3.4341,-3.3977,-3.3273,-3.2898,-3.2782,-3.2714,-3.2851,-3.3086,-3.3086,-3.3184,-3.3379,-3.3437,-3.3047,-3.2266,-3.1582,-3.1016,-3.0918,-3.0918,-3.0918,-3.0918,-3.0918,-3.0918,-3.0918,-3.0898,-3.0762,-3.053,-3.0537,-3.0634,-3.0024,-2.9843,-2.9985,-3.0078,-2.9836,-2.9794,-2.966,-2.9121,-2.8698,-2.8409,-2.7448,-2.6101,-2.5659,-2.5313,-2.5313,-2.5313,-2.5313,-2.5303,-2.5264,-2.5233,-2.5115,-2.5006,-2.4874,-2.47,-2.451,-2.4338,-2.4266,-5.1915,-5.1897,-5.1577,-5.0952,-5.0225,-4.9953,-4.9454,-4.9036,-4.9239,-4.9577,-4.9895,-5.0212,-5.0435,-5.0545,-5.0125,-4.9952,-4.9837,-4.9048,-4.8663,-4.8509,-4.7798,-4.6759,-4.5874,-4.5586,-4.5586,-4.5586,-4.5586,-4.5586,-4.5586,-4.5586,-4.5586,-4.5586,-4.5586,-4.5316,-4.4914,-4.4432,-4.4105,-4.3544,-4.2845,-4.2444,-4.2485,-4.1761,-4.149,-4.1424,-4.1259,-4.1075,-4.1023,-4.0606,-3.9931,-3.902,-3.8124,-3.7443,-3.6988,-3.6551,-3.6067,-3.5737,-3.5689,-3.5718,-3.564,-3.5203,-3.4842,-3.4525,-3.4011,-3.3673,-3.3399,-3.3387,-3.3454,-3.3906,-3.3926,-3.4141,-3.4355,-3.418,-3.375,-3.334,-3.248,-3.168,-3.1035,-3.0918,-3.0918,-3.0918,-3.0918,-3.0918,-3.0918,-3.0918,-3.0879,-3.0792,-3.0726,-3.0747,-3.0607,-3.0595,-3.0537,-3.0563,-3.0491,-3.0294,-3.0148,-2.9737,-2.9159,-2.889,-2.8236,-2.6851,-2.6005,-2.5524,-2.5322,-2.5322,-2.5313,-2.5303,-2.5264,-2.5233,-2.5138,-2.5031,-2.4902,-2.4712,-2.4491,-2.4338,-2.4266,-5.3539,-5.3465,-5.2733,-5.1943,-5.1063,-5.0453,-4.9796,-4.9202,-4.9408,-4.975,-5.0038,-5.0302,-5.05,-5.0584,-5.0548,-5.0644,-5.0606,-4.9837,-4.949,-4.9144,-4.8509,-4.749,-4.624,-4.5951,-4.5893,-4.5817,-4.5682,-4.5586,-4.5586,-4.5586,-4.5586,-4.5586,-4.5586,-4.5586,-4.5355,-4.4836,-4.4489,-4.4333,-4.3689,-4.3337,-4.3273,-4.2682,-4.2256,-4.2031,-4.1407,-4.1133,-4.1114,-4.0984,-4.0671,-3.9967,-3.8982,-3.8074,-3.7307,-3.7058,-3.6455,-3.5789,-3.5626,-3.5626,-3.5626,-3.5549,-3.53,-3.4768,-3.4659,-3.4372,-3.397,-3.3949,-3.4207,-3.4804,-3.4824,-3.5137,-3.5508,-3.5215,-3.4746,-3.4375,-3.3828,-3.2812,-3.1601,-3.1094,-3.0996,-3.0918,-3.0918,-3.0918,-3.0918,-3.0918,-3.0878,-3.0811,-3.0841,-3.0966,-3.1132,-3.135,-3.1128,-3.0865,-3.0744,-3.0564,-3.0456,-3.0302,-2.9717,-2.9217,-2.8679,-2.764,-2.6544,-2.5967,-2.5553,-2.536,-2.5322,-2.5303,-2.5293,-2.5222,-2.5195,-2.5038,-2.4893,-2.4685,-2.4493,-2.4374,-2.4266,-5.3621,-5.3699,-5.3549,-5.2603,-5.1398,-5.1244,-5.0538,-4.9371,-4.9741,-5.0012,-5.0255,-5.0457,-5.0584,-5.0663,-5.0702,-5.0683,-5.0683,-5.0394,-5.0106,-4.9375,-4.9279,-4.8567,-4.7567,-4.7009,-4.6644,-4.6451,-4.5893,-4.5624,-4.5605,-4.5586,-4.5586,-4.5586,-4.5586,-4.5586,-4.5528,-4.5393,-4.5334,-4.5269,-4.46,-4.4264,-4.4175,-4.3588,-4.2911,-4.2377,-4.1588,-4.1169,-4.1119,-4.1101,-4.0983,-4.0598,-3.9843,-3.8908,-3.8048,-3.7351,-3.66,-3.5861,-3.5642,-3.5635,-3.5616,-3.5577,-3.5543,-3.5328,-3.5292,-3.5402,-3.5404,-3.5251,-3.5402,-3.5698,-3.5723,-3.5762,-3.5918,-3.584,-3.5391,-3.4902,-3.457,-3.4004,-3.3027,-3.2266,-3.1621,-3.1152,-3.0937,-3.0918,-3.0918,-3.0996,-3.0946,-3.0825,-3.0986,-3.118,-3.1579,-3.2058,-3.1892,-3.1598,-3.1438,-3.1275,-3.0737,-3.0552,-3.0044,-2.966,-2.9179,-2.8563,-2.7448,-2.6755,-2.6486,-2.5928,-2.5313,-2.538,-2.5658,-2.5384,-2.5356,-2.5127,-2.4884,-2.4673,-2.4495,-2.4375,-2.4266,-5.4036,-5.411,-5.4108,-5.34,-5.23,-5.1911,-5.1237,-5.0354,-5.0092,-5.0188,-5.0393,-5.0562,-5.0623,-5.0683,-5.0683,-5.0683,-5.0683,-5.0683,-5.0471,-5.0067,-4.999,-4.976,-4.9279,-4.8413,-4.7778,-4.7028,-4.6471,-4.6047,-4.572,-4.5605,-4.5586,-4.5586,-4.5586,-4.5586,-4.5586,-4.5586,-4.562,-4.5632,-4.5364,-4.5142,-4.5134,-4.4501,-4.3475,-4.2602,-4.1931,-4.1572,-4.1144,-4.1117,-4.1056,-4.0877,-4.0438,-3.9742,-3.8953,-3.828,-3.7404,-3.6317,-3.6086,-3.5888,-3.5695,-3.5554,-3.556,-3.5601,-3.5637,-3.5717,-3.5833,-3.5875,-3.5942,-3.5987,-3.5996,-3.6016,-3.6016,-3.5996,-3.5684,-3.5488,-3.5312,-3.4941,-3.4062,-3.2969,-3.207,-3.1523,-3.1172,-3.0996,-3.0937,-3.1287,-3.1471,-3.1562,-3.1748,-3.1948,-3.2434,-3.2822,-3.2759,-3.2548,-3.2358,-3.1968,-3.1218,-3.0737,-3.0302,-3.0063,-2.989,-2.9294,-2.8486,-2.7967,-2.7563,-2.6909,-2.6255,-2.6168,-2.6301,-2.5948,-2.5473,-2.5088,-2.4827,-2.4642,-2.4461,-2.4339,-2.4266,-5.4519,-5.4472,-5.4552,-5.411,-5.3316,-5.2522,-5.1793,-5.1152,-5.0525,-5.0329,-5.05,-5.0582,-5.0643,-5.0702,-5.0683,-5.0683,-5.0683,-5.0683,-5.0587,-5.0567,-5.0529,-5.0491,-5.024,-4.9683,-4.8817,-4.7375,-4.6913,-4.6451,-4.599,-4.5643,-4.5586,-4.5586,-4.5586,-4.5586,-4.5586,-4.5603,-4.562,-4.5687,-4.5692,-4.5717,-4.5817,-4.5278,-4.4319,-4.3297,-4.2424,-4.2036,-4.1484,-4.1222,-4.1039,-4.0979,-4.0878,-4.0419,-3.9862,-3.9301,-3.8642,-3.6988,-3.6757,-3.6367,-3.5892,-3.5641,-3.5547,-3.5611,-3.5612,-3.5679,-3.5764,-3.5858,-3.5931,-3.5984,-3.6016,-3.6016,-3.6016,-3.6016,-3.6016,-3.5957,-3.5976,-3.5644,-3.4844,-3.3516,-3.2812,-3.2324,-3.2051,-3.1836,-3.1821,-3.2026,-3.2166,-3.2338,-3.2525,-3.2796,-3.3276,-3.3615,-3.3624,-3.3422,-3.3205,-3.241,-3.1621,-3.1237,-3.0775,-3.0359,-3.0321,-2.9929,-2.941,-2.9159,-2.8679,-2.7967,-2.7456,-2.7253,-2.6833,-2.6369,-2.5837,-2.5224,-2.4768,-2.4561,-2.4409,-2.4284,-2.4358,-5.4814,-5.4912,-5.4981,-5.4486,-5.3688,-5.29,-5.2151,-5.1408,-5.0734,-5.05,-5.0582,-5.0663,-5.0683,-5.0683,-5.0683,-5.0683,-5.0683,-5.0683,-5.0683,-5.0683,-5.0683,-5.0683,-5.0606,-5.0433,-4.9817,-4.8856,-4.7817,-4.6951,-4.649,-4.599,-4.572,-4.5624,-4.5586,-4.5586,-4.5586,-4.5603,-4.5618,-4.5703,-4.5785,-4.5866,-4.5902,-4.5804,-4.5312,-4.4243,-4.3244,-4.2533,-4.2095,-4.1473,-4.1025,-4.0976,-4.0868,-4.0692,-4.0327,-3.973,-3.8864,-3.7969,-3.7276,-3.6892,-3.6512,-3.5897,-3.563,-3.5598,-3.562,-3.5669,-3.5776,-3.5866,-3.5934,-3.5994,-3.6016,-3.6016,-3.6016,-3.6016,-3.6016,-3.6016,-3.5996,-3.5918,-3.5566,-3.4844,-3.3926,-3.3476,-3.3144,-3.2792,-3.2714,-3.2779,-3.3044,-3.329,-3.3568,-3.3768,-3.412,-3.4461,-3.4674,-3.4379,-3.4032,-3.3,-3.1929,-3.1698,-3.1352,-3.0744,-3.0552,-3.0456,-3.0121,-3.0167,-2.9763,-2.8898,-2.828,-2.7931,-2.7438,-2.6937,-2.6422,-2.5955,-2.5258,-2.4571,-2.4745,-2.4948,-2.4946,-5.5102,-5.5149,-5.5229,-5.4783,-5.3941,-5.3112,-5.236,-5.1612,-5.0888,-5.0603,-5.0643,-5.0683,-5.0683,-5.0683,-5.0683,-5.0683,-5.0683,-5.0683,-5.0683,-5.0683,-5.0683,-5.0683,-5.0683,-5.0683,-5.0491,-4.9837,-4.8798,-4.7644,-4.6951,-4.6509,-4.6009,-4.5643,-4.5586,-4.5586,-4.5586,-4.5603,-4.5637,-4.5687,-4.5765,-4.5838,-4.5944,-4.6026,-4.564,-4.4832,-4.4156,-4.3494,-4.2961,-4.2695,-4.2113,-4.1732,-4.1507,-4.1151,-4.0687,-4.0179,-3.9523,-3.8757,-3.8219,-3.7777,-3.7339,-3.6642,-3.6194,-3.617,-3.5898,-3.5678,-3.5726,-3.5806,-3.5894,-3.5968,-3.6016,-3.6016,-3.6016,-3.6016,-3.6016,-3.6016,-3.6016,-3.6016,-3.5918,-3.5586,-3.5117,-3.4512,-3.3848,-3.3454,-3.3358,-3.352,-3.3916,-3.4237,-3.4536,-3.4739,-3.4921,-3.5063,-3.5232,-3.4982,-3.4539,-3.3827,-3.2833,-3.2468,-3.1891,-3.1218,-3.084,-3.0744,-3.0494,-3.0379,-3.0186,-2.9667,-2.9144,-2.8682,-2.8358,-2.7965,-2.7331,-2.6693,-2.6168,-2.5709,-2.5614,-2.5628,-2.5625,-5.5358,-5.5358,-5.5432,-5.4987,-5.4192,-5.3326,-5.2519,-5.1741,-5.0951,-5.0643,-5.0683,-5.0683,-5.0683,-5.0683,-5.0683,-5.0683,-5.0683,-5.0683,-5.0683,-5.0683,-5.0683,-5.0683,-5.0683,-5.0683,-5.0625,-5.0452,-4.9952,-4.8779,-4.7471,-4.6913,-4.6374,-4.5817,-4.5586,-4.5586,-4.5586,-4.5586,-4.564,-4.569,-4.5738,-4.5829,-4.5887,-4.5914,-4.5726,-4.5059,-4.4876,-4.4392,-4.3858,-4.345,-4.3043,-4.25,-4.2094,-4.1648,-4.0988,-4.0631,-4.0196,-3.9642,-3.9392,-3.8892,-3.8296,-3.7469,-3.6906,-3.6677,-3.6189,-3.5905,-3.5699,-3.5776,-3.5852,-3.5939,-3.5996,-3.6016,-3.6016,-3.6016,-3.6016,-3.6016,-3.6016,-3.6016,-3.6016,-3.5898,-3.5879,-3.5234,-3.4473,-3.4253,-3.4312,-3.4428,-3.4834,-3.4839,-3.5133,-3.5146,-3.5303,-3.529,-3.5366,-3.5276,-3.4968,-3.4507,-3.3872,-3.3391,-3.2583,-3.1583,-3.1295,-3.116,-3.0756,-3.0398,-3.0206,-3.0071,-3.0004,-2.9577,-2.9292,-2.8802,-2.8032,-2.7415,-2.7046,-2.6669,-2.6256,-2.6232,-2.634,-5.5573,-5.5573,-5.5638,-5.5218,-5.4348,-5.3486,-5.2644,-5.178,-5.0991,-5.0683,-5.0683,-5.0683,-5.0683,-5.0683,-5.0683,-5.0683,-5.0683,-5.0683,-5.0683,-5.0683,-5.0683,-5.0683,-5.0683,-5.0683,-5.0683,-5.0606,-5.0471,-4.9548,-4.8105,-4.724,-4.6451,-4.5778,-4.5586,-4.5586,-4.5586,-4.5586,-4.562,-4.5693,-4.5709,-4.5754,-4.5819,-4.5874,-4.584,-4.5623,-4.5179,-4.4752,-4.4528,-4.4092,-4.3527,-4.3249,-4.2467,-4.1994,-4.1629,-4.09,-4.0562,-4.0162,-3.9758,-3.9238,-3.9031,-3.8339,-3.7637,-3.7255,-3.6762,-3.6335,-3.6017,-3.5791,-3.5833,-3.5914,-3.5949,-3.5987,-3.5995,-3.6016,-3.6016,-3.6016,-3.6016,-3.6016,-3.6016,-3.6016,-3.6016,-3.5976,-3.5195,-3.5363,-3.5519,-3.5632,-3.573,-3.5679,-3.563,-3.5629,-3.5596,-3.5534,-3.5482,-3.5391,-3.532,-3.493,-3.4699,-3.4237,-3.3468,-3.2256,-3.2025,-3.1737,-3.1121,-3.0706,-3.0456,-3.0348,-3.0324,-3.0188,-2.9766,-2.9216,-2.857,-2.811,-2.775,-2.7202,-2.6578,-2.6741,-2.7126,-5.564,-5.5662,-5.5703,-5.4932,-5.3795,-5.3355,-5.2433,-5.1337,-5.0856,-5.0683,-5.0683,-5.0683,-5.0683,-5.0683,-5.0683,-5.0683,-5.0683,-5.0683,-5.0683,-5.0683,-5.0683,-5.0683,-5.0683,-5.0683,-5.0683,-5.0529,-5.0125,-4.9279,-4.824,-4.7644,-4.6951,-4.574,-4.5586,-4.5586,-4.5586,-4.5586,-4.5622,-4.564,-4.5673,-4.5722,-4.5746,-4.5776,-4.5824,-4.5899,-4.5467,-4.5338,-4.5214,-4.5103,-4.4517,-4.4176,-4.3568,-4.2855,-4.2121,-4.1443,-4.1066,-4.0469,-4.02,-3.9988,-3.9873,-3.9181,-3.8599,-3.8152,-3.7718,-3.7154,-3.6516,-3.6009,-3.5823,-3.584,-3.589,-3.5946,-3.5987,-3.6014,-3.6016,-3.6016,-3.6016,-3.6016,-3.6016,-3.6016,-3.6016,-3.6016,-3.6011,-3.5999,-3.6001,-3.5919,-3.5801,-3.5693,-3.5631,-3.5596,-3.5553,-3.5509,-3.5501,-3.5488,-3.543,-3.5334,-3.5199,-3.4949,-3.4449,-3.3545,-3.3314,-3.2833,-3.1679,-3.116,-3.0879,-3.0515,-3.0299,-3.0166,-3.0026,-2.9664,-2.908,-2.8745,-2.8452,-2.8012,-2.7607,-2.7897,-2.8227,-5.5568,-5.5395,-5.5395,-5.4547,-5.3217,-5.299,-5.2049,-5.0798,-5.0702,-5.0683,-5.0683,-5.0683,-5.0683,-5.0683,-5.0683,-5.0683,-5.0683,-5.0683,-5.0683,-5.0683,-5.0683,-5.0683,-5.0683,-5.0683,-5.0567,-5.0394,-4.9798,-4.8836,-4.8067,-4.7567,-4.6894,-4.5643,-4.5586,-4.5586,-4.5586,-4.5586,-4.5603,-4.5603,-4.564,-4.5654,-4.5668,-4.5668,-4.57,-4.5765,-4.5776,-4.58,-4.5866,-4.5809,-4.5376,-4.5045,-4.4501,-4.3728,-4.2857,-4.2079,-4.1508,-4.095,-4.0623,-4.0392,-4.0258,-3.9892,-3.9565,-3.9099,-3.8537,-3.7668,-3.725,-3.6499,-3.6076,-3.6239,-3.5936,-3.5977,-3.5988,-3.6009,-3.6016,-3.6016,-3.6016,-3.6016,-3.6016,-3.6016,-3.6016,-3.6016,-3.6001,-3.5991,-3.5966,-3.5908,-3.5826,-3.5715,-3.564,-3.5562,-3.554,-3.5501,-3.5488,-3.5507,-3.5488,-3.5468,-3.543,-3.5276,-3.4891,-3.4641,-3.4391,-3.3737,-3.2468,-3.1686,-3.1321,-3.0925,-3.0445,-3.0157,-3.0034,-2.9822,-2.9608,-2.9191,-2.8857,-2.8953,-2.8879,-2.9017,-2.8975,-5.5261,-5.4587,-5.4568,-5.4009,-5.3102,-5.2336,-5.151,-5.0702,-5.0683,-5.0683,-5.0683,-5.0683,-5.0683,-5.0683,-5.0683,-5.0683,-5.0683,-5.0683,-5.0683,-5.0683,-5.0683,-5.0683,-5.0683,-5.0606,-5.0317,-4.9683,-4.926,-4.8375,-4.7336,-4.7009,-4.6413,-4.572,-4.5605,-4.5586,-4.5586,-4.5586,-4.5586,-4.5586,-4.5603,-4.5603,-4.562,-4.562,-4.5637,-4.5671,-4.5719,-4.5731,-4.5795,-4.5819,-4.5761,-4.5529,-4.5017,-4.4469,-4.3709,-4.2794,-4.2104,-4.1489,-4.1008,-4.07,-4.045,-4.0335,-4.0027,-3.9311,-3.8633,-3.8141,-3.7983,-3.7317,-3.6997,-3.6964,-3.6651,-3.6328,-3.6208,-3.6057,-3.6442,-3.6465,-3.6543,-3.6328,-3.625,-3.6035,-3.6035,-3.6016,-3.6027,-3.6068,-3.6236,-3.6242,-3.59,-3.5766,-3.5607,-3.554,-3.5522,-3.5488,-3.5488,-3.5507,-3.5507,-3.5488,-3.5488,-3.5295,-3.5103,-3.4891,-3.4641,-3.3987,-3.3083,-3.2474,-3.2116,-3.1283,-3.0819,-3.0414,-3.0007,-2.9789,-2.957,-2.9375,-2.9228,-2.9134,-2.9062,-2.8998,-2.8975,-5.4348,-5.3475,-5.2996,-5.2617,-5.2314,-5.1987,-5.1374,-5.0721,-5.0683,-5.0683,-5.0683,-5.0683,-5.0683,-5.0683,-5.0683,-5.0683,-5.0683,-5.0683,-5.0683,-5.0683,-5.0683,-5.0683,-5.0683,-5.0567,-5.026,-4.9433,-4.8875,-4.8105,-4.7028,-4.6451,-4.6028,-4.5663,-4.5586,-4.5586,-4.5586,-4.5586,-4.5586,-4.5586,-4.5586,-4.5586,-4.5586,-4.5586,-4.5603,-4.562,-4.569,-4.5703,-4.5731,-4.5746,-4.5746,-4.5654,-4.5356,-4.4958,-4.4482,-4.3602,-4.2835,-4.2066,-4.1508,-4.1085,-4.062,-4.0527,-4.0315,-4.0027,-3.9311,-3.8801,-3.8805,-3.8131,-3.781,-3.7685,-3.7557,-3.7266,-3.755,-3.7614,-3.7695,-3.748,-3.7207,-3.6894,-3.6699,-3.6543,-3.6406,-3.6543,-3.636,-3.6236,-3.645,-3.6654,-3.6229,-3.5834,-3.5659,-3.5509,-3.5501,-3.5507,-3.5507,-3.5507,-3.5507,-3.5507,-3.5507,-3.543,-3.5353,-3.5141,-3.4911,-3.4378,-3.3788,-3.3653,-3.3166,-3.2177,-3.1164,-3.0681,-3.0234,-2.9813,-2.9531,-2.9332,-2.9246,-2.9156,-2.9085,-2.8998,-2.8975,-5.3353,-5.2413,-5.1792,-5.1618,-5.1715,-5.1461,-5.1062,-5.0604,-5.0585,-5.0624,-5.0663,-5.0702,-5.0683,-5.0683,-5.0683,-5.0683,-5.0683,-5.0683,-5.0683,-5.0683,-5.0683,-5.0683,-5.0683,-5.051,-5.0087,-4.9163,-4.8432,-4.7644,-4.6413,-4.5874,-4.5682,-4.5624,-4.5586,-4.5586,-4.5586,-4.5586,-4.5586,-4.5586,-4.5586,-4.5586,-4.5586,-4.5586,-4.5586,-4.5603,-4.5657,-4.569,-4.5703,-4.57,-4.57,-4.5703,-4.5555,-4.531,-4.4853,-4.4316,-4.3662,-4.2912,-4.2236,-4.1774,-4.1139,-4.062,-4.0527,-4.0296,-4.0042,-3.9726,-3.9513,-3.9,-3.8644,-3.8682,-3.8576,-3.8507,-3.8647,-3.8394,-3.8331,-3.8066,-3.7949,-3.7676,-3.7578,-3.7441,-3.7226,-3.7126,-3.7015,-3.7099,-3.7133,-3.7365,-3.6947,-3.6505,-3.6189,-3.59,-3.5501,-3.5507,-3.5507,-3.5507,-3.5507,-3.5507,-3.5488,-3.5435,-3.5416,-3.5378,-3.5166,-3.5042,-3.4663,-3.4424,-3.3925,-3.2924,-3.1955,-3.108,-3.0431,-2.9964,-2.9602,-2.9312,-2.9203,-2.9108,-2.9062,-2.8975,-2.8975,-5.2283,-5.1471,-5.1224,-5.1307,-5.1389,-5.0692,-5.039,-5.0377,-5.0416,-5.0478,-5.0603,-5.0663,-5.0683,-5.0683,-5.0683,-5.0683,-5.0683,-5.0683,-5.0683,-5.0683,-5.0683,-5.0683,-5.0644,-5.0452,-4.9702,-4.849,-4.7855,-4.7105,-4.5759,-4.5663,-4.5586,-4.5586,-4.5586,-4.5586,-4.5586,-4.5586,-4.5586,-4.5586,-4.5586,-4.5586,-4.5586,-4.5586,-4.5586,-4.5603,-4.564,-4.5673,-4.5671,-4.5668,-4.5668,-4.569,-4.5673,-4.5541,-4.5372,-4.4795,-4.4314,-4.4006,-4.3365,-4.2707,-4.1936,-4.1039,-4.0673,-4.0558,-4.0318,-4.0381,-4.0391,-3.9975,-3.9519,-3.9618,-3.9234,-3.8853,-3.8733,-3.8771,-3.8902,-3.8906,-3.8809,-3.8574,-3.8476,-3.8131,-3.7881,-3.7691,-3.8077,-3.8362,-3.8248,-3.8119,-3.7694,-3.7269,-3.6843,-3.6372,-3.5834,-3.5507,-3.5507,-3.5507,-3.5507,-3.5507,-3.5507,-3.5493,-3.5474,-3.5474,-3.5388,-3.5211,-3.496,-3.4592,-3.4053,-3.3424,-3.2636,-3.1695,-3.0846,-3.007,-2.9683,-2.9333,-2.913,-2.8998,-2.8998,-2.8975,-2.8975,-5.1171,-5.0269,-5.0118,-5.0099,-5.0123,-5.0158,-5.012,-5.0145,-5.0269,-5.0393,-5.0521,-5.0603,-5.0663,-5.0683,-5.0683,-5.0683,-5.0683,-5.0683,-5.0683,-5.0683,-5.0683,-5.0683,-5.0567,-5.0029,-4.9221,-4.824,-4.7586,-4.6836,-4.5624,-4.5586,-4.5586,-4.5586,-4.5586,-4.5586,-4.5586,-4.5586,-4.5586,-4.5586,-4.5586,-4.5586,-4.5586,-4.5586,-4.5586,-4.5586,-4.564,-4.5657,-4.5673,-4.5654,-4.5654,-4.5673,-4.5676,-4.564,-4.5603,-4.5141,-4.4944,-4.4575,-4.3987,-4.368,-4.2864,-4.2019,-4.1181,-4.0896,-4.0626,-4.07,-4.0667,-4.0604,-4.0509,-4.049,-4.0202,-4.0033,-4.032,-4.0344,-4.041,-4.0273,-4.0078,-3.9609,-3.9305,-3.8764,-3.8375,-3.8258,-3.8455,-3.8859,-3.8941,-3.9096,-3.8805,-3.832,-3.7906,-3.7046,-3.6392,-3.5757,-3.5507,-3.5507,-3.5507,-3.5507,-3.5493,-3.5479,-3.5446,-3.5412,-3.5369,-3.5254,-3.498,-3.4687,-3.4224,-3.3639,-3.2974,-3.2289,-3.1337,-3.046,-2.9773,-2.9361,-2.9187,-2.9012,-2.8975,-2.8975,-2.8975,-5.0136,-4.9506,-4.9046,-4.9027,-4.9262,-4.9637,-4.9835,-4.9911,-5.0095,-5.0278,-5.0393,-5.05,-5.0603,-5.0643,-5.0702,-5.0683,-5.0683,-5.0683,-5.0683,-5.0683,-5.0683,-5.0471,-5.0087,-4.9606,-4.8759,-4.7875,-4.7182,-4.6451,-4.5624,-4.5586,-4.5586,-4.5586,-4.5586,-4.5586,-4.5586,-4.5586,-4.5586,-4.5586,-4.5586,-4.5586,-4.5586,-4.5586,-4.5586,-4.5586,-4.5603,-4.5622,-4.564,-4.564,-4.5622,-4.564,-4.564,-4.5603,-4.564,-4.558,-4.5417,-4.504,-4.4592,-4.4331,-4.3717,-4.2993,-4.2303,-4.1892,-4.119,-4.0788,-4.0826,-4.082,-4.0902,-4.0967,-4.1104,-4.1067,-4.1069,-4.1191,-4.1133,-4.0976,-4.0801,-4.0332,-4.0137,-3.9609,-3.9442,-3.926,-3.9171,-3.9489,-3.9638,-3.9932,-4.0,-3.9484,-3.8969,-3.7988,-3.7007,-3.6276,-3.568,-3.5622,-3.5565,-3.5532,-3.5512,-3.5446,-3.5412,-3.5364,-3.5289,-3.5193,-3.5018,-3.4718,-3.428,-3.3853,-3.3197,-3.2505,-3.1677,-3.0891,-3.0139,-2.9596,-2.9237,-2.9104,-2.9012,-2.8975,-2.8975,-4.9283,-4.9029,-4.8081,-4.8081,-4.8768,-4.8971,-4.9295,-4.9673,-4.9898,-5.0038,-5.0188,-5.0393,-5.054,-5.0584,-5.0663,-5.0606,-5.0491,-5.051,-5.0394,-5.0375,-5.0144,-4.9837,-4.9471,-4.9067,-4.8182,-4.7375,-4.6701,-4.624,-4.5624,-4.5586,-4.5586,-4.5586,-4.5586,-4.5586,-4.5586,-4.5586,-4.5586,-4.5586,-4.5586,-4.5586,-4.5586,-4.5586,-4.5586,-4.5586,-4.5603,-4.5603,-4.5603,-4.5603,-4.5603,-4.5603,-4.5603,-4.562,-4.5673,-4.5709,-4.575,-4.5601,-4.5103,-4.4896,-4.4656,-4.3957,-4.3588,-4.3092,-4.1955,-4.1306,-4.1198,-4.1494,-4.1558,-4.1454,-4.1412,-4.1241,-4.1152,-4.1172,-4.1191,-4.1152,-4.1152,-4.099,-4.0974,-4.0784,-4.0734,-4.0595,-4.0432,-4.0471,-4.0312,-4.0515,-4.0446,-4.0215,-3.9604,-3.8892,-3.7873,-3.6738,-3.6199,-3.5834,-3.5743,-3.5608,-3.5537,-3.5432,-3.5335,-3.5289,-3.5157,-3.5037,-3.4908,-3.4711,-3.4355,-3.3896,-3.338,-3.2736,-3.2029,-3.1262,-3.0417,-2.9934,-2.948,-2.9145,-2.9017,-2.8998,-2.8975,-4.8236,-4.8029,-4.7061,-4.6752,-4.6953,-4.7085,-4.7921,-4.9265,-4.9506,-4.9741,-4.9986,-5.0188,-5.0333,-5.0521,-5.0603,-5.0259,-4.9952,-4.9663,-4.926,-4.9144,-4.9144,-4.874,-4.8375,-4.799,-4.7355,-4.6855,-4.6336,-4.5932,-4.5663,-4.5586,-4.5586,-4.5586,-4.5586,-4.5586,-4.5586,-4.5586,-4.5586,-4.5586,-4.5586,-4.5586,-4.5586,-4.5586,-4.5586,-4.5586,-4.5586,-4.5586,-4.5586,-4.5622,-4.5603,-4.5603,-4.562,-4.569,-4.5684,-4.5746,-4.5814,-4.5975,-4.5784,-4.5685,-4.5557,-4.4954,-4.4506,-4.4331,-4.3378,-4.2988,-4.2836,-4.2721,-4.2557,-4.2208,-4.1878,-4.1699,-4.1406,-4.1289,-4.125,-4.1191,-4.1191,-4.1138,-4.1094,-4.1056,-4.1006,-4.0897,-4.0768,-4.0681,-4.0588,-4.0539,-4.0485,-4.0489,-4.0219,-3.9546,-3.8911,-3.7853,-3.668,-3.6295,-3.607,-3.5955,-3.5566,-3.5369,-3.5273,-3.5174,-3.5035,-3.4889,-3.473,-3.4539,-3.4316,-3.4024,-3.3605,-3.308,-3.25,-3.1715,-3.1023,-3.0207,-2.9692,-2.932,-2.904,-2.9021,-2.9021,-4.7132,-4.6937,-4.6022,-4.5602,-4.5676,-4.5954,-4.6868,-4.7939,-4.8525,-4.8938,-4.9268,-4.9834,-4.9997,-4.9835,-4.9865,-4.9603,-4.8914,-4.8875,-4.8644,-4.8413,-4.8008,-4.7875,-4.7528,-4.7124,-4.6759,-4.6336,-4.597,-4.5663,-4.5586,-4.5586,-4.5586,-4.5586,-4.5586,-4.5586,-4.5586,-4.5586,-4.5586,-4.5586,-4.5586,-4.5586,-4.5586,-4.5586,-4.5586,-4.5586,-4.5586,-4.5586,-4.5603,-4.5622,-4.564,-4.5657,-4.569,-4.575,-4.5786,-4.5861,-4.5953,-4.6104,-4.6096,-4.6059,-4.5975,-4.5709,-4.5475,-4.528,-4.4884,-4.4728,-4.426,-4.3961,-4.3461,-4.2998,-4.2583,-4.2207,-4.1777,-4.1426,-4.1308,-4.1191,-4.1152,-4.1113,-4.1072,-4.1026,-4.0932,-4.0819,-4.0706,-4.0621,-4.0534,-4.0504,-4.0489,-4.0489,-4.0469,-4.02,-3.9854,-3.9373,-3.7853,-3.6757,-3.6512,-3.6339,-3.5878,-3.5419,-3.5283,-3.5164,-3.4945,-3.4771,-3.458,-3.4404,-3.4221,-3.4074,-3.3865,-3.3401,-3.2989,-3.2426,-3.1753,-3.0899,-3.012,-2.9677,-2.9359,-2.9112,-2.9089,-4.6043,-4.5935,-4.4983,-4.4617,-4.4744,-4.5344,-4.5748,-4.6026,-4.7018,-4.774,-4.8206,-4.9155,-4.92,-4.8867,-4.893,-4.862,-4.8164,-4.7972,-4.7818,-4.7894,-4.7528,-4.724,-4.6913,-4.674,-4.6297,-4.5836,-4.5586,-4.5586,-4.5586,-4.5586,-4.5586,-4.5586,-4.5586,-4.5586,-4.5586,-4.5586,-4.5586,-4.5586,-4.5586,-4.5586,-4.5586,-4.5586,-4.5586,-4.5586,-4.5586,-4.5603,-4.562,-4.5657,-4.5728,-4.5742,-4.5785,-4.5852,-4.5937,-4.6027,-4.613,-4.6169,-4.6189,-4.6206,-4.6211,-4.6045,-4.6072,-4.6078,-4.6181,-4.5903,-4.5396,-4.4968,-4.4426,-4.3769,-4.3329,-4.2656,-4.2168,-4.1543,-4.125,-4.1191,-4.1152,-4.1113,-4.1095,-4.1003,-4.0859,-4.075,-4.0648,-4.0569,-4.0519,-4.0489,-4.0489,-4.0489,-4.0469,-4.0431,-4.0354,-4.0219,-3.9142,-3.7507,-3.745,-3.7151,-3.6113,-3.5691,-3.5367,-3.5151,-3.4964,-3.4689,-3.4495,-3.4335,-3.4124,-3.4023,-3.3947,-3.3895,-3.3556,-3.2919,-3.2275,-3.1533,-3.0765,-3.016,-2.9734,-2.9339,-2.9178,-4.5215,-4.5088,-4.4156,-4.3791,-4.3791,-4.4007,-4.4136,-4.4209,-4.5158,-4.6131,-4.6956,-4.7435,-4.7748,-4.7796,-4.7933,-4.7652,-4.7164,-4.7031,-4.6723,-4.6491,-4.6374,-4.6471,-4.6028,-4.6067,-4.5817,-4.5682,-4.5586,-4.5586,-4.5586,-4.5586,-4.5586,-4.5586,-4.5586,-4.5586,-4.5586,-4.5586,-4.5586,-4.5586,-4.5586,-4.5586,-4.5586,-4.5586,-4.5586,-4.5586,-4.5586,-4.564,-4.5657,-4.5687,-4.575,-4.5791,-4.5848,-4.5922,-4.6056,-4.6135,-4.6183,-4.6209,-4.6245,-4.6261,-4.628,-4.6249,-4.624,-4.6231,-4.6226,-4.6245,-4.6104,-4.5815,-4.5355,-4.4655,-4.3945,-4.3223,-4.2539,-4.1855,-4.1269,-4.1242,-4.1133,-4.112,-4.1097,-4.0954,-4.0792,-4.0675,-4.0583,-4.0539,-4.0504,-4.0489,-4.0489,-4.0489,-4.0489,-4.0469,-4.0469,-4.0354,-4.0027,-3.8834,-3.8757,-3.8262,-3.6995,-3.6227,-3.6016,-3.5438,-3.5132,-3.4814,-3.4487,-3.4316,-3.4197,-3.4099,-3.4023,-3.3998,-3.3788,-3.3284,-3.2636,-3.1927,-3.135,-3.0686,-2.9958,-2.949,-2.933,-4.4265,-4.4209,-4.3734,-4.3479,-4.3479,-4.3479,-4.3479,-4.3605,-4.4062,-4.4623,-4.5426,-4.6215,-4.674,-4.6755,-4.6884,-4.6702,-4.6183,-4.6129,-4.6032,-4.5722,-4.5586,-4.5682,-4.5586,-4.5586,-4.5624,-4.5586,-4.5586,-4.5586,-4.5586,-4.5586,-4.5586,-4.5586,-4.5586,-4.5586,-4.5586,-4.5586,-4.5586,-4.5586,-4.5586,-4.5603,-4.5603,-4.5586,-4.5586,-4.5586,-4.564,-4.5657,-4.5703,-4.5765,-4.58,-4.5893,-4.5975,-4.6037,-4.6138,-4.6203,-4.6245,-4.626,-4.6264,-4.6301,-4.6297,-4.629,-4.628,-4.6269,-4.625,-4.6289,-4.6273,-4.603,-4.6005,-4.5364,-4.4743,-4.4023,-4.3535,-4.291,-4.2181,-4.1878,-4.14,-4.1105,-4.1006,-4.0859,-4.075,-4.0648,-4.0564,-4.0504,-4.0489,-4.0489,-4.0489,-4.0489,-4.0489,-4.0489,-4.0489,-4.0489,-4.0162,-3.9892,-3.9642,-3.8939,-3.7632,-3.7072,-3.6875,-3.6217,-3.549,-3.5063,-3.4805,-3.4479,-3.4269,-3.4221,-3.4173,-3.4099,-3.3846,-3.3579,-3.291,-3.2142,-3.1667,-3.1166,-3.0415,-2.9683,-2.9453,-4.3516,-4.3479,-4.3497,-4.3479,-4.3479,-4.3479,-4.3479,-4.3497,-4.3497,-4.3569,-4.3925,-4.5477,-4.5805,-4.5754,-4.5783,-4.5527,-4.5426,-4.5609,-4.5534,-4.5587,-4.5586,-4.5586,-4.5586,-4.5586,-4.5586,-4.5586,-4.5586,-4.5586,-4.5586,-4.5586,-4.5586,-4.5586,-4.5586,-4.5586,-4.5586,-4.5586,-4.5586,-4.5622,-4.5622,-4.5622,-4.5603,-4.5603,-4.5603,-4.564,-4.5657,-4.5706,-4.5765,-4.5833,-4.5905,-4.5997,-4.6093,-4.6162,-4.6196,-4.6255,-4.6277,-4.629,-4.6278,-4.6307,-4.6287,-4.6301,-4.6293,-4.63,-4.6303,-4.6289,-4.6298,-4.6279,-4.6276,-4.5976,-4.5351,-4.4824,-4.4336,-4.3745,-4.3012,-4.2217,-4.1644,-4.1091,-4.0968,-4.0807,-4.0694,-4.0602,-4.0564,-4.0504,-4.0489,-4.0489,-4.0489,-4.0489,-4.0489,-4.0489,-4.0489,-4.0489,-4.0354,-4.0162,-3.9988,-3.9135,-3.8207,-3.795,-3.7789,-3.711,-3.6424,-3.5735,-3.512,-3.4786,-3.4551,-3.4427,-3.4381,-3.4293,-3.4269,-3.413,-3.3343,-3.2533,-3.2069,-3.1582,-3.0678,-3.002,-2.9607,-4.3479,-4.3479,-4.3479,-4.3479,-4.3479,-4.3479,-4.3479,-4.3479,-4.3479,-4.3513,-4.3692,-4.3919,-4.4321,-4.4512,-4.4839,-4.4952,-4.5227,-4.5319,-4.5438,-4.5514,-4.5568,-4.5586,-4.5586,-4.5586,-4.5586,-4.5586,-4.5586,-4.5586,-4.5586,-4.5586,-4.5586,-4.5586,-4.5586,-4.5586,-4.5603,-4.5603,-4.5622,-4.564,-4.5657,-4.5673,-4.5657,-4.5657,-4.564,-4.5659,-4.5678,-4.5773,-4.5852,-4.5949,-4.6005,-4.6084,-4.619,-4.625,-4.6273,-4.628,-4.6295,-4.6289,-4.6289,-4.6289,-4.6289,-4.6289,-4.6289,-4.6297,-4.6287,-4.63,-4.6296,-4.6296,-4.625,-4.6172,-4.5644,-4.5215,-4.4707,-4.4101,-4.3398,-4.2483,-4.1744,-4.1331,-4.1063,-4.0862,-4.0688,-4.0607,-4.0534,-4.0504,-4.0489,-4.0489,-4.0489,-4.0489,-4.0489,-4.0489,-4.0489,-4.0489,-4.0489,-4.0392,-4.0258,-3.9819,-3.9119,-3.892,-3.8663,-3.7985,-3.7262,-3.6501,-3.5757,-3.509,-3.4858,-3.4663,-3.4539,-3.445,-3.4473,-3.4476,-3.3979,-3.3219,-3.2638,-3.2014,-3.1109,-3.0509,-3.0244]}]]